[[{"header":{"parameterUnit":"m.s-1","parameterCategory":1,"la1":30.6,"la2":28.766,"lo1":-90.7593,"lo2":-88.6598,"dx":0.0162,"dy":0.0183,"nx":116,"ny":114,"refTime":"2023-01-07T18:00:00:Z","depth":0,"parameterNumber":2,"parameterNumberName":"U-component_of_WINDS"},"data":[0.0,0.0,0.0,0.0,0.0,0.0,0.0,0.0,0.0,0.0,0.0,0.0,0.0,0.0,0.0,0.0,0.0,0.0,0.0,0.0,0.0,0.0,0.0,0.0,0.0,0.0,0.0,0.0,0.0,0.0,0.0,0.0,0.0,0.0,0.0,0.0,0.0,0.0,0.0,0.0,0.0,0.0,0.0,0.0,0.0,0.0,0.0,0.0,0.0,0.0,0.0,0.0,0.0,0.0,0.0,0.0,0.0,0.0,0.0,0.0,0.0,0.0,0.0,0.0,0.0,0.0,0.0,0.0,0.0,0.0,0.0,0.0,0.0,0.0,0.0,0.0,0.0,0.0,0.0,0.0,0.0,0.0,0.0,0.0,0.0,0.0,0.0,0.0,0.0,0.0,0.0,0.0,0.0,0.0,0.0,0.0,0.0,0.0,0.0,0.0,0.0,0.0,0.0,0.0,0.0,0.0,0.0,0.0,0.0,0.0,0.0,0.0,0.0,0.0,0.0,0.0,0.0,0.0,0.0,0.0,0.0,0.0,0.0,0.0,0.0,0.0,0.0,0.0,0.0,0.0,0.0,0.0,0.0,0.0,0.0,0.0,0.0,0.0,0.0,0.0,0.0,0.0,0.0,0.0,0.0,0.0,0.0,0.0,0.0,0.0,0.0,0.0,0.0,0.0,0.0,0.0,0.0,0.0,0.0,0.0,0.0,0.0,0.0,0.0,0.0,0.0,0.0,0.0,0.0,0.0,0.0,0.0,0.0,0.0,0.0,0.0,0.0,0.0,0.0,0.0,0.0,0.0,0.0,0.0,0.0,0.0,0.0,0.0,0.0,0.0,0.0,0.0,0.0,0.0,0.0,0.0,0.0,0.0,0.0,0.0,0.0,0.0,0.0,0.0,0.0,0.0,0.0,0.0,0.0,0.0,0.0,0.0,0.0,0.0,0.0,0.0,0.0,0.0,0.0,0.0,0.0,0.0,0.0,0.0,0.0,0.0,0.0,0.0,0.0,0.0,0.0,0.0,0.0,0.0,0.0,0.0,0.0,0.0,0.0,0.0,0.0,0.0,0.0,0.0,0.0,0.0,0.0,0.0,0.0,0.0,0.0,0.0,0.0,0.0,0.0,0.0,0.0,0.0,0.0,0.0,0.0,0.0,0.0,0.0,0.0,0.0,0.0,0.0,0.0,0.0,0.0,0.0,0.0,0.0,0.0,0.0,0.0,0.0,0.0,0.0,0.0,0.0,0.0,0.0,0.0,0.0,0.0,0.0,0.0,0.0,0.0,0.0,0.0,0.0,0.0,0.0,0.0,0.0,0.0,0.0,0.0,0.0,0.0,0.0,0.0,0.0,0.0,0.0,0.0,0.0,0.0,0.0,0.0,0.0,0.0,0.0,0.0,0.0,0.0,0.0,0.0,0.0,0.0,0.0,0.0,0.0,0.0,0.0,0.0,0.0,0.0,0.0,0.0,0.0,0.0,0.0,0.0,0.0,0.0,0.0,0.0,0.0,0.0,0.0,0.0,0.0,0.0,0.0,0.0,0.0,0.0,0.0,0.0,0.0,0.0,0.0,0.0,0.0,0.0,0.0,0.0,0.0,0.0,0.0,0.0,0.0,0.0,0.0,0.0,0.0,0.0,0.0,0.0,0.0,0.0,0.0,0.0,0.0,0.0,0.0,0.0,0.0,0.0,0.0,0.0,0.0,0.0,0.0,0.0,0.0,0.0,0.0,0.0,0.0,0.0,0.0,0.0,0.0,0.0,0.0,0.0,0.0,0.0,0.0,0.0,0.0,0.0,0.0,0.0,0.0,0.0,0.0,0.0,0.0,0.0,0.0,0.0,0.0,0.0,0.0,0.0,0.0,0.0,0.0,0.0,0.0,0.0,0.0,0.0,0.0,0.0,0.0,0.0,0.0,0.0,0.0,0.0,0.0,0.0,0.0,0.0,0.0,0.0,0.0,0.0,0.0,0.0,0.0,0.0,0.0,0.0,0.0,0.0,0.0,0.0,0.0,0.0,0.0,0.0,0.0,0.0,0.0,0.0,0.0,0.0,0.0,0.0,0.0,0.0,0.0,0.0,0.0,0.0,0.0,0.0,0.0,0.0,0.0,0.0,0.0,0.0,0.0,0.0,0.0,0.0,0.0,0.0,0.0,0.0,0.0,0.0,0.0,0.0,0.0,0.0,0.0,0.0,0.0,0.0,0.0,0.0,0.0,0.0,0.0,0.0,0.0,0.0,0.0,0.0,0.0,0.0,0.0,0.0,0.0,0.0,0.0,0.0,0.0,0.0,0.0,0.0,0.0,0.0,0.0,0.0,0.0,0.0,0.0,0.0,0.0,0.0,0.0,0.0,0.0,0.0,0.0,0.0,0.0,0.0,0.0,0.0,0.0,0.0,0.0,0.0,0.0,0.0,0.0,0.0,0.0,0.0,0.0,0.0,0.0,0.0,0.0,0.0,0.0,0.0,0.0,0.0,0.0,0.0,0.0,0.0,0.0,0.0,0.0,0.0,0.0,0.0,0.0,0.0,0.0,0.0,0.0,0.0,0.0,0.0,0.0,0.0,0.0,0.0,0.0,0.0,0.0,0.0,0.0,0.0,0.0,0.0,0.0,0.0,0.0,0.0,0.0,0.0,0.0,0.0,0.0,0.0,0.0,0.0,0.0,0.0,0.0,0.0,0.0,0.0,0.0,0.0,0.0,0.0,0.0,0.0,0.0,0.0,0.0,0.0,0.0,0.0,0.0,0.0,0.0,0.0,0.0,0.0,0.0,0.0,0.0,0.0,0.0,0.0,0.0,0.0,0.0,0.0,0.0,0.0,0.0,0.0,0.0,0.0,0.0,0.0,0.0,0.0,0.0,0.0,0.0,0.0,0.0,0.0,0.0,0.0,0.0,0.0,0.0,0.0,0.0,0.0,0.0,0.0,0.0,0.0,0.0,0.0,0.0,0.0,0.0,0.0,0.0,0.0,0.0,0.0,0.0,0.0,0.0,0.0,0.0,0.0,0.0,0.0,0.0,0.0,0.0,0.0,0.0,0.0,0.0,0.0,0.0,0.0,0.0,0.0,0.0,0.0,0.0,0.0,0.0,0.0,0.0,0.0,0.0,0.0,0.0,0.0,0.0,0.0,0.0,0.0,0.0,0.0,0.0,0.0,0.0,0.0,0.0,0.0,0.0,0.0,0.0,0.0,0.0,0.0,0.0,0.0,0.0,0.0,0.0,0.0,0.0,0.0,0.0,0.0,0.0,0.0,0.0,0.0,0.0,0.0,0.0,0.0,0.0,0.0,0.0,0.0,0.0,0.0,0.0,0.0,0.0,0.0,0.0,0.0,0.0,0.0,0.0,0.0,0.0,0.0,0.0,0.0,0.0,0.0,0.0,0.0,0.0,0.0,0.0,0.0,0.0,0.0,0.0,0.0,0.0,0.0,0.0,0.0,0.0,0.0,0.0,0.0,0.0,0.0,0.0,0.0,0.0,0.0,0.0,0.0,0.0,0.0,0.0,0.0,0.0,0.0,0.0,0.0,0.0,0.0,0.0,0.0,0.0,0.0,0.0,0.0,0.0,0.0,0.0,0.0,0.0,0.0,0.0,0.0,0.0,0.0,0.0,0.0,0.0,0.0,0.0,0.0,0.0,0.0,0.0,0.0,0.0,0.0,0.0,0.0,0.0,0.0,0.0,0.0,0.0,0.0,0.0,0.0,0.0,0.0,0.0,0.0,0.0,0.0,0.0,0.0,0.0,0.0,0.0,0.0,0.0,0.0,0.0,0.0,0.0,0.0,0.0,0.0,0.0,0.0,0.0,0.0,0.0,0.0,0.0,0.0,0.0,0.0,0.0,0.0,0.0,0.0,0.0,0.0,0.0,0.0,0.0,0.0,0.0,0.0,0.0,0.0,0.0,0.0,0.0,0.0,0.0,0.0,0.0,0.0,0.0,0.0,0.0,0.0,0.0,0.0,0.0,0.0,0.0,0.0,0.0,0.0,0.0,0.0,0.0,0.0,0.0,0.0,0.0,0.0,0.0,0.0,0.0,0.0,0.0,0.0,0.0,0.0,0.0,0.0,0.0,0.0,0.0,0.0,0.0,0.0,0.0,0.0,0.0,0.0,0.0,0.0,0.0,0.0,0.0,0.0,0.0,0.0,0.0,0.0,0.0,0.0,0.0,0.0,0.0,0.0,0.0,0.0,0.0,0.0,0.0,0.0,0.0,0.0,0.0,0.0,0.0,0.0,0.0,0.0,0.0,0.0,0.0,0.0,0.0,0.0,0.0,0.0,0.0,0.0,0.0,0.0,0.0,0.0,0.0,0.0,0.0,0.0,0.0,0.0,0.0,0.0,0.0,0.0,0.0,0.0,0.0,0.0,0.0,0.0,0.0,0.0,0.0,0.0,0.0,0.0,0.0,0.0,0.0,0.0,0.0,0.0,0.0,0.0,0.0,0.0,0.0,0.0,0.0,0.0,0.0,0.0,0.0,0.0,0.0,0.0,0.0,0.0,0.0,0.0,0.0,0.0,0.0,0.0,0.0,0.0,0.0,0.0,0.0,0.0,0.0,0.0,0.0,0.0,0.0,0.0,0.0,0.0,0.0,0.0,0.0,0.0,0.0,0.0,0.0,0.0,0.0,0.0,0.0,0.0,0.0,0.0,0.0,0.0,0.0,0.0,0.0,0.0,0.0,0.0,0.0,0.0,0.0,0.0,0.0,0.0,0.0,0.0,0.0,0.0,0.0,0.0,0.0,0.0,0.0,0.0,0.0,0.0,0.0,0.0,0.0,0.0,0.0,0.0,0.0,0.0,0.0,0.0,0.0,0.0,0.0,0.0,0.0,0.0,0.0,0.0,0.0,0.0,0.0,0.0,0.0,0.0,0.0,0.0,0.0,0.0,0.0,0.0,0.0,0.0,0.0,0.0,0.0,0.0,0.0,0.0,0.0,0.0,0.0,0.0,0.0,0.0,0.0,0.0,0.0,0.0,0.0,0.0,0.0,0.0,0.0,0.0,0.0,0.0,0.0,0.0,0.0,0.0,0.0,0.0,0.0,0.0,0.0,0.0,0.0,0.0,0.0,0.0,0.0,0.0,0.0,0.0,0.0,0.0,0.0,0.0,0.0,0.0,0.0,0.0,0.0,0.0,0.0,0.0,0.0,0.0,0.0,0.0,0.0,0.0,0.0,0.0,0.0,0.0,0.0,0.0,0.0,0.0,0.0,0.0,0.0,0.0,0.0,0.0,0.0,0.0,0.0,0.0,0.0,0.0,0.0,0.0,0.0,0.0,0.0,0.0,0.0,0.0,0.0,0.0,0.0,0.0,0.0,0.0,0.0,0.0,0.0,0.0,0.0,0.0,0.0,0.0,0.0,0.0,0.0,0.0,0.0,0.0,0.0,0.0,0.0,0.0,0.0,0.0,0.0,0.0,0.0,0.0,0.0,0.0,0.0,0.0,0.0,0.0,0.0,0.0,0.0,0.0,0.0,0.0,0.0,0.0,0.0,0.0,0.0,0.0,0.0,0.0,0.0,0.0,0.0,0.0,0.0,0.0,0.0,0.0,0.0,0.0,0.0,0.0,0.0,0.0,0.0,0.0,0.0,0.0,0.0,0.0,0.0,0.0,0.0,0.0,0.0,0.0,0.0,0.0,0.0,0.0,0.0,0.0,0.0,0.0,0.0,0.0,0.0,0.0,0.0,0.0,0.0,0.0,0.0,0.0,0.0,0.0,0.0,0.0,0.0,0.0,0.0,0.0,0.0,0.0,0.0,0.0,0.0,0.0,0.0,0.0,0.0,0.0,0.0,0.0,0.0,0.0,0.0,0.0,0.0,0.0,0.0,0.0,0.0,0.0,0.0,0.0,0.0,0.0,0.0,0.0,0.0,0.0,0.0,0.0,0.0,0.0,0.0,0.0,0.0,0.0,0.0,0.0,0.0,0.0,0.0,0.0,0.0,0.0,0.0,0.0,0.0,0.0,0.0,0.0,0.0,0.0,0.0,0.0,0.0,0.0,0.0,0.0,0.0,0.0,0.0,0.0,0.0,0.0,0.0,0.0,0.0,0.0,0.0,0.0,0.0,0.0,0.0,0.0,0.0,0.0,0.0,3.711,0.0,0.0,0.0,0.0,0.0,0.0,0.0,0.0,0.0,0.0,0.0,0.0,0.0,0.0,0.0,0.0,0.0,0.0,0.0,0.0,0.0,0.0,0.0,0.0,1.6241,1.6473,1.7115,1.7174,0.0,0.0,0.0,0.0,0.0,0.0,0.0,0.0,0.0,1.6002,1.7671,1.7992,1.966,2.2542,2.1495,2.032,1.9074,0.0,0.0,0.0,0.0,0.0,0.0,0.0,0.0,0.0,0.0,0.0,0.0,0.0,0.0,0.0,0.0,0.0,0.0,0.0,0.0,0.0,0.0,0.0,0.0,0.0,0.0,0.0,0.0,0.0,0.0,0.0,0.0,0.0,0.0,0.0,0.0,0.0,0.0,0.0,0.0,0.0,0.0,0.0,0.0,0.0,0.0,0.0,0.0,0.0,0.0,0.0,0.0,0.0,0.0,0.0,0.0,0.0,0.0,0.0,0.0,0.0,0.0,0.0,0.0,0.0,0.0,0.0,0.0,0.0,0.0,0.0,3.8464,0.0,0.0,0.0,0.0,0.0,0.0,0.0,0.0,0.0,0.0,0.0,0.0,0.0,0.0,0.0,0.0,0.0,0.0,0.0,0.0,0.0,1.6159,1.6659,1.6808,1.7137,1.7818,1.787,1.787,1.787,1.7264,0.0,0.0,0.0,0.0,1.6689,1.6928,1.8027,2.0058,2.1425,2.317,2.5322,2.5872,2.4687,2.1984,1.9851,0.0,0.0,0.0,0.0,0.0,0.0,0.0,0.0,0.0,0.0,0.0,0.0,0.0,0.0,0.0,0.0,0.0,0.0,0.0,0.0,0.0,0.0,0.0,0.0,0.0,0.0,0.0,0.0,0.0,0.0,0.0,0.0,0.0,0.0,0.0,0.0,0.0,0.0,0.0,0.0,0.0,0.0,0.0,0.0,0.0,0.0,0.0,0.0,0.0,0.0,0.0,0.0,0.0,0.0,0.0,0.0,0.0,0.0,0.0,0.0,0.0,0.0,0.0,0.0,4.1644,4.1664,4.1664,4.2997,4.5244,4.2713,4.2861,4.4432,0.0,0.0,0.0,0.0,0.0,0.0,0.0,0.0,0.0,0.0,0.0,0.0,0.0,0.0,0.0,0.0,0.0,0.0,0.0,0.0,1.6599,1.6689,1.7234,1.7848,1.8514,1.8583,1.8583,1.8583,1.7938,0.0,0.0,0.0,1.6629,1.6711,1.7848,1.9411,2.1435,2.5555,2.7739,2.8055,2.8158,2.7979,2.744,2.4844,2.3697,2.3528,0.0,0.0,0.0,0.0,0.0,0.0,0.0,0.0,0.0,0.0,0.0,0.0,0.0,0.0,0.0,0.0,0.0,0.0,0.0,0.0,0.0,0.0,0.0,0.0,0.0,0.0,0.0,0.0,0.0,0.0,0.0,0.0,0.0,0.0,0.0,0.0,0.0,0.0,0.0,0.0,0.0,3.5972,3.6186,0.0,0.0,0.0,0.0,0.0,0.0,0.0,0.0,0.0,0.0,0.0,0.0,0.0,0.0,4.1022,4.301,4.433,4.4993,4.6921,4.7834,4.7834,4.7834,4.8037,4.8409,4.8003,0.0,4.5466,4.4127,0.0,0.0,0.0,0.0,0.0,0.0,0.0,0.0,0.0,0.0,0.0,0.0,0.0,0.0,0.0,0.0,0.0,0.0,0.0,0.0,0.0,1.8984,1.98,2.0866,2.1246,2.1156,2.0438,1.977,0.0,0.0,1.7443,1.7451,1.7818,1.9501,2.2443,2.6662,2.9431,3.1375,3.2497,3.2497,3.2287,3.1853,3.0283,2.7936,2.5053,2.3528,0.0,0.0,0.0,0.0,0.0,0.0,0.0,0.0,0.0,0.0,0.0,0.0,0.0,0.0,0.0,0.0,0.0,0.0,0.0,0.0,0.0,0.0,0.0,0.0,0.0,0.0,0.0,0.0,0.0,0.0,0.0,0.0,0.0,0.0,0.0,0.0,0.0,0.0,0.0,3.4212,3.5667,3.6096,3.5509,3.4799,0.0,0.0,0.0,0.0,0.0,0.0,0.0,0.0,0.0,4.255,4.3031,4.3998,4.5568,4.6583,4.7225,4.7564,4.8545,4.9018,4.9018,4.9018,4.9018,4.9018,4.9018,4.8443,4.7428,4.5872,4.4116,4.2253,0.0,0.0,0.0,0.0,0.0,4.1789,0.0,0.0,0.0,0.0,0.0,0.0,0.0,0.0,0.0,0.0,0.0,0.0,1.9761,2.0694,2.1702,2.306,2.361,2.3449,2.2503,2.1505,2.0428,1.9262,1.8424,1.8267,1.8942,2.1904,2.6033,3.127,3.2602,3.4037,3.5519,3.5519,3.522,3.4727,3.4233,3.1539,2.7278,2.6111,2.4676,2.3082,0.0,0.0,0.0,0.0,0.0,0.0,0.0,0.0,0.0,0.0,0.0,0.0,0.0,0.0,0.0,0.0,0.0,0.0,0.0,0.0,0.0,0.0,0.0,0.0,0.0,0.0,0.0,0.0,0.0,0.0,0.0,0.0,0.0,0.0,0.0,0.0,0.0,3.5588,3.684,3.6997,3.7358,3.6952,0.0,0.0,0.0,0.0,0.0,0.0,4.1487,4.2049,4.3403,4.565,4.6244,4.7327,4.8984,4.9187,4.9289,4.9289,4.9476,4.956,4.956,4.956,4.956,4.956,4.956,4.956,4.9424,4.7394,4.6007,4.5007,4.3504,4.2662,4.247,4.4092,4.4568,4.487,0.0,0.0,0.0,0.0,0.0,0.0,0.0,0.0,0.0,0.0,0.0,1.9757,2.0562,2.1709,2.2986,2.4388,2.4545,2.4515,2.4455,2.2702,2.1335,2.0628,1.9352,1.8972,1.9648,2.5285,2.9924,3.3335,3.4681,3.54,3.5519,3.5519,3.5489,3.5459,3.5413,3.4187,3.2004,2.9475,2.7961,2.6956,2.3171,0.0,0.0,0.0,0.0,0.0,0.0,0.0,0.0,0.0,0.0,0.0,0.0,0.0,0.0,0.0,0.0,0.0,0.0,0.0,0.0,0.0,0.0,0.0,0.0,0.0,0.0,0.0,0.0,0.0,0.0,0.0,0.0,0.0,0.0,0.0,0.0,0.0,0.0,4.1068,4.2138,0.0,0.0,0.0,0.0,4.1001,4.1745,4.3132,4.5297,4.5452,4.6481,4.8714,4.8815,4.8883,4.9018,4.9695,5.0049,5.0033,5.0728,5.11,5.11,5.11,5.11,5.11,5.11,5.11,5.0964,4.9458,4.8003,4.6766,4.7312,4.7008,4.6437,4.8084,4.9065,4.9691,0.0,0.0,0.0,1.5291,1.5057,1.5218,1.6241,1.6547,1.7017,1.787,1.9344,2.0735,2.1854,2.3867,2.5698,2.7044,2.7906,2.8235,2.7829,2.5555,2.4298,2.4477,2.2423,2.2962,2.6572,2.9594,3.2736,3.5998,3.6507,3.7148,3.8015,3.8015,3.7776,3.7345,3.6926,3.6118,3.4921,3.2706,3.0656,2.8723,2.6884,2.4837,0.0,0.0,0.0,0.0,0.0,0.0,0.0,0.0,0.0,0.0,0.0,0.0,0.0,0.0,0.0,0.0,0.0,0.0,0.0,0.0,0.0,0.0,0.0,0.0,0.0,0.0,0.0,0.0,0.0,0.0,0.0,0.0,0.0,0.0,0.0,0.0,0.0,4.2016,4.3234,0.0,0.0,4.3098,4.4113,4.4113,4.5669,4.6955,4.78,4.8274,4.8883,4.9661,5.0168,5.0423,5.0423,5.066,5.0811,5.0811,5.1066,5.1201,5.1201,5.1201,5.1201,5.1201,5.1201,5.1201,5.1167,5.0626,5.0119,4.9645,4.9916,4.982,4.9612,5.0213,5.0548,5.0788,0.0,0.0,0.0,1.5291,1.5093,1.5233,1.6241,1.6756,1.743,1.8508,2.0166,2.1844,2.3467,2.5741,2.7812,2.9451,3.0568,3.0821,2.9967,2.7632,2.6183,2.5944,2.4698,2.6465,3.1719,3.2946,3.4995,3.8075,3.8075,3.8524,3.9391,3.9391,3.9152,3.8721,3.8272,3.7734,3.7032,3.5489,3.344,3.1135,2.9774,2.7799,2.5477,0.0,0.0,0.0,0.0,0.0,0.0,0.0,0.0,0.0,0.0,0.0,0.0,0.0,0.0,0.0,0.0,0.0,0.0,0.0,0.0,0.0,0.0,0.0,0.0,0.0,0.0,0.0,0.0,0.0,0.0,0.0,0.0,0.0,0.0,0.0,4.3454,4.2753,4.4702,4.5379,4.3606,4.55,4.6921,4.7158,4.8545,4.9492,4.9713,5.0202,5.0473,5.0473,5.093,5.1201,5.1201,5.1708,5.1979,5.1979,5.2486,5.2723,5.2723,5.2723,5.2723,5.2723,5.2723,5.2723,5.2723,5.2723,5.2723,5.2655,5.1877,5.1573,5.1607,5.1877,5.2114,5.2401,0.0,0.0,1.5036,1.5276,1.4894,1.4839,1.5713,1.6913,1.7945,1.8608,2.0822,2.3157,2.5287,2.7158,2.91,3.1321,3.2153,3.1974,3.0672,2.874,2.6764,2.4814,2.6153,2.9338,3.4474,3.528,3.6879,3.9421,3.9451,3.9451,3.9451,3.9451,3.9421,3.9421,3.9421,3.9032,3.8409,3.7734,3.6357,3.4368,3.1719,3.0253,2.9338,0.0,0.0,0.0,0.0,0.0,0.0,0.0,0.0,0.0,0.0,0.0,0.0,0.0,0.0,0.0,0.0,0.0,0.0,0.0,0.0,0.0,0.0,0.0,0.0,0.0,0.0,0.0,0.0,0.0,0.0,0.0,0.0,0.0,4.2334,4.3521,4.4224,4.3589,4.679,4.8206,4.6041,4.78,4.9357,5.0083,5.015,5.0439,5.1167,5.1235,5.1235,5.1269,5.1302,5.1336,5.1336,5.2824,5.3585,5.3585,5.5023,5.5699,5.5699,5.5699,5.5699,5.5699,5.5699,5.5699,5.5699,5.5699,5.5699,5.5496,5.3281,5.2401,5.2503,5.3281,5.4025,5.4735,1.6305,1.6081,1.5949,1.6017,1.5814,1.6052,1.715,1.7621,1.8526,2.0397,2.2077,2.3862,2.5863,2.7602,2.96,3.202,3.266,3.2859,3.2691,2.9953,2.8068,2.7517,3.1958,3.51,3.6567,3.8212,3.9409,4.0127,4.0606,4.0846,4.0816,4.0337,4.0127,4.0098,3.9601,3.9302,3.9092,3.8943,3.8272,3.7152,3.4981,3.3155,3.1555,0.0,0.0,0.0,0.0,0.0,0.0,0.0,0.0,0.0,0.0,0.0,0.0,0.0,0.0,0.0,0.0,0.0,0.0,0.0,0.0,0.0,0.0,0.0,0.0,0.0,0.0,0.0,0.0,0.0,0.0,0.0,0.0,4.2012,4.1908,4.5236,4.7378,4.6554,4.8424,4.956,4.8951,4.9916,5.0694,5.0863,5.0897,5.0998,5.1201,5.1708,5.2266,5.2841,5.3382,5.3923,5.4448,5.4887,5.509,5.509,5.5496,5.5699,5.5699,5.5699,5.5699,5.5699,5.5699,5.5699,5.5699,5.5699,5.5699,5.5631,5.4989,5.4752,5.4786,5.5023,5.5225,5.5428,1.6494,1.6256,1.6107,1.6266,1.6035,1.6127,1.7002,1.7573,1.8644,2.0756,2.2351,2.4198,2.6628,2.8588,3.0359,3.1987,3.3077,3.3123,3.1748,2.9747,2.9475,3.142,3.504,3.7554,3.8631,4.0068,4.0816,4.0816,4.1224,4.1403,4.1403,4.1014,4.0816,4.0786,4.0127,3.981,3.978,3.9511,3.9182,3.8721,3.7567,3.5968,3.4083,3.311,3.2048,3.0925,2.9698,2.9235,2.9116,2.8291,0.0,0.0,0.0,0.0,0.0,0.0,0.0,0.0,0.0,0.0,0.0,0.0,0.0,0.0,0.0,0.0,0.0,0.0,0.0,0.0,0.0,0.0,0.0,0.0,4.1685,4.2946,4.2802,4.5702,4.8017,4.8577,4.9156,4.9785,5.0509,5.093,5.1336,5.1641,5.1641,5.1945,5.2604,5.3044,5.3619,5.438,5.4837,5.5277,5.5699,5.6003,5.6139,5.6139,5.6461,5.663,5.663,5.663,5.663,0.0,5.663,5.663,5.663,5.663,5.663,0.0,0.0,0.0,0.0,0.0,5.6139,5.6206,1.6586,1.6162,1.5911,1.6329,1.5961,1.5753,1.6154,1.7254,1.8687,2.0463,2.2164,2.4374,2.7462,2.9521,3.0928,3.155,3.3248,3.2958,2.9808,2.951,3.1243,3.525,3.628,3.7876,4.0241,4.0975,4.1379,4.1523,4.1583,4.1613,4.1613,4.1553,4.1523,4.1493,4.0816,4.0516,4.0457,3.978,3.9511,3.9511,3.9421,3.8332,3.6583,3.5386,3.4877,3.4578,3.2811,3.2168,3.1899,3.0179,0.0,0.0,0.0,0.0,0.0,0.0,0.0,0.0,0.0,0.0,0.0,0.0,0.0,0.0,0.0,0.0,0.0,0.0,0.0,0.0,0.0,0.0,0.0,0.0,4.3001,4.4811,4.462,4.5559,4.7164,4.9604,4.9327,4.9576,5.1154,5.1472,5.1794,5.2337,5.2572,5.323,5.4478,0.0,0.0,0.0,0.0,5.5868,5.5936,5.6596,5.6934,5.6934,5.7577,5.79,5.79,5.79,5.79,5.79,5.79,5.79,5.79,5.7983,5.8051,5.7983,5.6528,5.5936,5.6037,5.6799,5.707,0.0,1.7053,1.6718,1.6505,1.7031,1.6664,1.6473,1.6989,1.8078,1.9609,2.1668,2.3098,2.5035,2.8026,2.8533,2.9441,3.1429,3.2448,3.2861,3.2671,3.4109,3.4935,3.4865,3.7058,3.8745,3.973,4.0407,4.1243,4.2201,4.2701,4.2921,4.2921,4.2421,4.2201,4.2171,4.1493,4.1224,4.1164,4.0487,4.0217,4.0157,3.9601,3.8841,3.8003,3.7751,3.7315,3.6806,3.6417,3.6251,3.6191,3.5802,3.4715,3.3442,3.3231,3.1941,0.0,0.0,0.0,0.0,0.0,0.0,0.0,0.0,0.0,0.0,0.0,0.0,0.0,0.0,0.0,0.0,0.0,0.0,0.0,4.1761,4.3957,4.5669,4.6183,4.6466,4.7133,4.8479,4.9693,5.0837,5.1964,5.3213,5.3632,5.2834,5.4181,5.4757,5.4162,5.4971,0.0,5.6562,5.6596,5.6867,5.7476,5.7611,5.7697,5.7697,0.0,0.0,5.79,5.79,5.79,5.79,5.79,5.79,5.7967,5.8558,5.9133,5.9539,5.8051,5.7476,5.7543,5.8321,5.8573,5.8675,1.6858,1.6667,1.6586,1.6858,1.6667,1.6597,1.6869,1.7881,1.9423,2.1758,2.3034,2.486,2.7819,2.8185,2.8465,2.9078,2.9384,3.0672,3.3347,3.4899,3.6003,3.6659,3.9149,4.0402,4.0115,4.1324,4.1948,4.2017,4.2291,4.2447,4.2417,4.2144,4.2017,4.1988,4.1302,4.1008,4.0979,4.0265,3.9844,3.9616,3.9806,3.9179,3.8157,3.8722,3.8691,3.8344,3.8033,3.7913,3.7853,3.7524,3.6746,3.5938,3.5938,3.4831,3.311,0.0,0.0,0.0,0.0,0.0,0.0,0.0,0.0,0.0,0.0,0.0,0.0,0.0,0.0,3.8369,0.0,0.0,4.1906,4.3593,4.4786,4.5748,4.6397,4.6792,4.7634,4.936,4.9686,5.0547,5.2405,5.363,5.3813,5.2675,5.4522,5.5373,5.459,5.5652,5.6765,5.7881,5.7897,5.8254,5.8998,5.8998,5.8998,5.8998,5.8998,5.8998,5.8998,5.8998,5.8998,5.8998,5.8998,5.8998,5.9032,5.9404,5.9776,6.0047,5.9268,5.8998,5.9032,5.9404,5.9573,5.9607,1.65,1.65,1.65,1.65,1.65,1.6543,1.6625,1.7587,1.9121,2.1464,2.2702,2.4439,2.7151,2.7547,2.7454,2.7016,2.7154,2.9168,3.36,3.4801,3.6285,3.846,4.036,4.1087,4.0489,4.1665,4.207,4.1587,4.1378,4.1274,4.1274,4.1274,4.1274,4.1245,4.0718,4.0592,4.074,3.9845,3.9341,3.9217,3.9938,3.9385,3.8265,3.9365,3.9631,3.9331,3.8781,3.8571,3.8512,3.7956,3.7776,3.7776,3.7776,3.7088,3.5832,3.3708,3.308,0.0,0.0,0.0,0.0,0.0,0.0,0.0,0.0,0.0,3.702,3.8951,3.9467,4.019,4.2371,4.2872,4.3518,4.5228,4.5603,4.5933,4.66,4.7279,4.8435,5.0528,4.9844,5.0133,5.2547,5.3644,5.3655,5.2293,5.4557,5.564,5.4906,5.607,5.7379,5.8814,5.8848,5.9264,6.008,6.0114,6.0114,6.0114,6.0114,6.0114,6.0114,6.0114,6.0114,6.0114,6.0114,6.0182,6.0317,6.0317,6.0419,6.0554,6.0554,6.0554,6.052,6.0385,6.0317,6.0351,1.65,1.65,1.65,1.65,1.65,1.6646,1.7136,1.8224,1.9622,2.1399,2.2656,2.4103,2.5911,2.5609,2.6006,2.7783,2.9236,3.1544,3.5031,3.6275,3.7176,3.7965,3.7806,3.8401,3.9926,3.9129,3.964,4.1587,4.0597,4.008,4.008,4.008,4.008,4.008,4.0025,4.0527,4.1381,3.9683,3.9521,4.0366,3.987,3.9571,3.9533,4.0717,4.0427,3.9391,3.9302,3.9302,3.9272,3.9212,3.9182,3.9182,3.9182,3.9092,3.8464,3.5892,3.5144,3.4488,3.1356,3.1959,0.0,3.6554,3.7591,3.8827,0.0,0.0,4.1093,4.2466,4.3216,4.3707,4.4018,4.4558,4.5258,4.6052,4.6689,4.7309,4.7967,4.8648,4.9488,5.0662,5.0661,5.1059,5.2257,5.3942,5.4109,5.2022,5.5084,5.6157,5.4134,5.562,5.7103,5.8327,5.8401,5.8946,6.008,6.0114,6.0114,6.0114,6.0114,6.0114,6.0114,6.0114,6.0114,6.0114,6.0114,6.052,6.1163,6.1163,6.1535,6.2164,6.2164,6.2164,6.2042,6.14,6.1163,6.1264,1.65,1.65,1.65,1.65,1.65,1.6667,1.7219,1.798,1.9308,2.149,2.2478,2.3687,2.5533,2.478,2.439,2.5011,2.7296,3.0135,3.3525,3.5637,3.7079,3.7868,3.8417,3.8785,3.885,3.905,3.9293,3.9574,3.9094,3.885,3.885,3.885,3.885,3.885,3.885,3.9514,4.0504,3.9038,3.8912,3.9633,3.9318,3.9017,3.8851,3.9942,4.0446,4.0457,3.966,3.8883,0.0,3.9152,3.9122,3.902,4.0187,3.9768,3.8542,3.7045,3.6357,3.6118,3.6237,3.6302,0.0,0.0,3.9934,4.0522,4.1877,4.178,4.187,4.3539,4.4087,4.4536,4.5313,4.5672,4.6232,0.0,4.7698,4.8139,4.8798,4.9434,5.0005,5.0395,5.0795,5.1303,5.1945,5.3482,5.3726,5.2154,5.4988,5.6123,5.4566,5.5743,5.6947,5.7925,5.8632,5.944,6.0371,6.1108,6.1434,6.1434,6.1434,6.1434,6.1434,6.1434,6.1434,6.1434,6.1434,6.1637,6.1941,6.1941,6.211,6.24,6.24,6.24,6.2367,6.2042,6.1941,6.1975,1.65,1.65,1.65,1.65,1.65,1.6721,1.7425,1.8017,1.921,2.1545,2.2335,2.3242,2.4657,2.3766,2.3021,2.2864,2.5398,2.838,3.161,3.4369,3.6343,3.7407,3.8428,3.8671,3.8107,3.8649,3.8649,3.8107,3.7792,3.7632,3.7632,3.7632,3.7632,3.7632,3.7632,3.8289,3.9316,3.7949,3.7913,3.8743,3.8536,3.8318,3.8221,3.9426,3.9984,3.9976,3.9152,3.8225,3.7434,3.7686,3.7584,3.7571,3.9038,3.8619,3.7494,3.7015,3.6447,3.6404,3.8482,0.0,0.0,4.0685,4.1534,4.1953,4.2162,4.2211,4.2641,4.4257,4.4715,4.5134,4.6121,4.66,4.7189,4.8139,4.8596,4.8985,4.9486,5.0069,5.0524,5.0727,5.1176,5.1653,5.2137,5.3242,5.3492,5.2552,5.4868,5.5857,5.4774,5.5931,5.7058,5.7968,5.9174,6.0204,6.1078,6.1971,6.24,6.24,6.24,6.24,6.24,6.24,6.24,6.24,6.24,6.24,6.24,6.24,6.24,6.24,6.24,6.24,6.24,6.24,6.24,6.24,1.65,1.65,1.65,1.65,1.65,1.6869,1.7903,1.863,1.9711,2.1466,2.2303,2.2733,2.2793,2.2165,2.201,2.2637,2.4741,2.7183,2.991,3.2772,3.4973,3.6296,3.6445,3.7013,3.8085,3.7034,3.701,3.8107,3.6987,3.6452,3.6452,3.6452,3.6452,3.6452,3.6452,3.708,3.8058,3.631,3.6567,3.8073,3.7563,3.7669,3.8295,3.9921,3.9032,3.6893,3.7292,3.7417,3.7015,3.4532,3.4099,3.4607,3.4683,3.5116,3.5579,3.5579,3.507,3.4727,3.5459,3.6985,3.8739,4.0098,4.1844,4.3429,4.4057,4.4207,4.4416,4.5125,4.5813,4.6241,4.63,4.7369,4.8259,4.8289,4.9321,5.0159,5.0166,5.0757,5.1415,5.2067,5.2157,5.245,0.0,5.3613,5.3707,5.3206,5.4867,5.5432,5.4261,5.5998,5.7512,5.8735,5.9957,6.114,6.2322,6.2381,6.24,6.24,6.24,6.24,6.24,6.24,6.24,6.24,6.24,6.24,6.24,6.24,6.24,6.24,6.24,6.24,6.24,6.24,6.24,6.24,1.65,1.65,1.65,1.65,1.65,1.6869,1.7988,1.8707,1.9588,2.1002,2.2056,0.0,0.0,0.0,0.0,0.0,2.4285,2.7076,2.9567,3.1864,3.3997,3.5966,3.5878,3.6168,3.6941,3.6617,3.6593,3.6964,3.6593,3.6405,3.6405,3.6405,3.6405,3.6405,3.6405,3.6829,3.7482,3.6085,3.6112,3.6946,3.597,3.6573,3.8036,3.8206,3.7806,3.6903,0.0,3.3858,3.3424,3.2991,3.3006,3.3395,3.4741,3.4412,3.3499,3.3499,3.4277,3.5579,3.7567,3.8901,4.0247,4.2462,4.3459,4.4147,4.4825,4.4975,4.5155,4.5822,4.5813,4.5762,4.6211,4.7018,4.7788,4.8229,4.9351,5.0368,5.0817,5.1415,5.1947,5.2187,5.2576,0.0,0.0,0.0,0.0,5.3857,5.4827,5.5269,5.4875,5.5455,5.5992,5.6402,5.7574,5.8396,5.8803,5.961,6.0,6.0032,6.0828,6.1635,6.24,6.24,6.24,6.24,6.24,6.24,6.24,6.24,6.24,6.24,6.24,6.24,6.24,6.24,6.24,6.24,1.6873,1.6988,1.7113,1.7113,1.6937,0.0,0.0,0.0,0.0,0.0,0.0,0.0,0.0,0.0,0.0,0.0,0.0,2.5869,2.7524,3.0065,3.2332,3.4145,3.4243,3.4663,3.5524,3.5299,3.5399,3.5852,3.5932,3.6083,3.6287,3.6368,3.6281,3.6081,3.6081,3.609,3.6019,3.5243,3.5545,3.6383,3.4877,3.5473,3.7139,3.6234,3.5399,0.0,3.1961,3.0508,2.982,3.0239,3.0552,3.1061,3.2826,3.3155,3.2916,3.3155,3.4622,3.6716,3.9092,4.0427,4.1643,4.3778,4.4496,4.4825,4.5514,4.5663,4.5873,4.651,4.5933,4.5424,4.5852,4.6711,4.7469,4.8028,4.9615,5.1016,5.1682,5.2136,5.2517,5.2863,5.3294,5.3803,0.0,0.0,0.0,5.4551,5.497,5.5179,5.5179,5.5626,5.5844,5.5844,5.7015,5.7644,5.7644,5.8857,5.9653,6.0118,6.087,6.1656,6.24,6.24,6.24,6.24,6.24,6.24,6.24,6.24,6.24,6.24,6.24,6.24,6.24,6.24,6.24,6.24,1.7537,1.7864,1.8204,0.0,0.0,0.0,0.0,0.0,0.0,0.0,0.0,0.0,0.0,0.0,0.0,0.0,0.0,0.0,2.408,2.7571,3.0111,3.1093,3.1639,3.258,3.3935,3.337,3.3633,3.4839,3.5042,3.5424,3.5996,3.6177,3.5993,3.542,3.542,3.4838,3.3852,3.3852,3.4778,3.6066,3.4164,3.4293,3.5539,3.4104,3.1972,2.9683,2.8841,2.7692,2.6554,2.6584,2.7165,2.8094,2.9458,3.1644,3.3784,3.4458,3.6044,3.8003,3.9978,4.1493,4.278,4.4077,4.4885,4.5514,4.6181,4.636,4.651,4.704,4.6112,4.5155,0.0,0.0,4.7322,4.768,5.0036,5.203,5.274,5.2863,5.3224,0.0,0.0,0.0,0.0,0.0,0.0,5.5179,0.0,5.5179,5.5179,5.6305,5.692,5.692,5.8016,5.861,5.861,5.974,6.0933,6.211,6.211,6.2169,6.2322,6.2322,6.2341,6.24,6.24,6.24,6.24,6.24,6.24,6.24,6.24,6.24,6.24,6.24,6.24,6.24,0.0,0.0,0.0,0.0,0.0,0.0,0.0,0.0,0.0,0.0,0.0,0.0,0.0,0.0,0.0,0.0,0.0,0.0,2.3751,2.6259,2.8444,3.0103,3.0969,3.1983,3.3215,3.3598,3.3889,3.4227,3.4283,3.4382,3.4543,3.4607,3.454,3.436,3.436,3.398,3.3298,3.3298,3.3024,3.2568,3.2081,3.2295,3.2812,3.1952,3.0809,2.9476,2.8289,2.7003,2.5932,2.6422,2.8667,3.1569,3.3425,3.4801,3.5865,3.6477,3.8063,3.9978,4.1463,4.284,4.4137,4.5463,4.5912,4.6211,4.6869,4.707,4.6681,4.5343,4.4436,4.3419,0.0,0.0,0.0,4.659,4.974,0.0,5.3,5.3519,0.0,5.4156,0.0,5.4999,5.5179,5.5179,0.0,0.0,5.5179,5.5179,5.5179,5.5476,5.5675,5.5675,5.5967,5.614,5.614,5.6396,5.7181,5.8374,5.8374,5.9314,6.1057,6.1057,6.1574,6.24,6.24,6.24,6.24,6.24,6.24,6.24,6.24,6.24,6.24,6.24,6.24,6.24,0.0,0.0,0.0,0.0,0.0,0.0,0.0,0.0,0.0,0.0,0.0,0.0,0.0,0.0,0.0,0.0,0.0,0.0,0.0,2.4772,2.6667,2.8304,2.8895,2.9913,3.1471,3.1302,3.1759,3.2897,3.2416,3.2579,3.3437,3.3211,3.2989,3.2763,3.2763,3.2309,3.1527,3.1782,3.1791,0.0,0.0,3.1083,3.1591,3.0352,2.938,2.8603,2.7555,2.759,2.8384,2.9624,3.1928,3.4442,3.5579,3.6567,3.7511,3.8452,3.9918,4.1553,4.287,4.4197,4.5343,4.6121,4.651,4.66,4.6112,4.5992,4.5424,4.3449,4.2282,4.1294,4.0187,4.288,0.0,0.0,0.0,0.0,5.3793,5.4194,5.4486,0.0,5.497,0.0,5.5179,5.5179,5.5179,0.0,5.5179,5.5179,5.5179,5.5179,5.5179,5.5179,5.5179,5.5451,5.5962,5.5986,5.659,5.7784,5.7784,5.8519,5.9805,6.0353,6.0974,6.1656,0.0,6.24,6.24,6.24,6.24,6.24,6.24,6.24,6.24,6.24,6.24,6.2468,0.0,0.0,0.0,0.0,0.0,0.0,0.0,0.0,0.0,2.0037,1.9936,1.9836,0.0,0.0,0.0,0.0,0.0,0.0,0.0,0.0,2.5244,2.6435,2.6644,2.7602,2.9428,2.841,2.8949,3.1122,3.0117,3.0456,3.2004,3.1627,3.1172,3.0722,3.0722,3.0168,2.9286,2.9744,3.0552,3.1399,3.0093,3.0148,3.0793,0.0,2.8111,2.7525,2.6944,2.8786,3.1809,3.3903,3.5685,3.7045,3.7315,3.8153,3.929,4.0546,4.1733,4.293,4.4227,4.5403,4.633,4.642,4.6869,4.677,4.4745,4.4296,4.3688,4.1463,4.0068,3.9212,3.9032,4.2278,4.5193,4.5862,0.0,5.3913,5.4652,5.4752,5.4888,5.5155,5.5179,5.5179,5.5179,5.5179,5.5179,5.5179,5.5179,5.5179,5.5179,5.5179,5.5179,5.5179,5.5179,5.5695,5.6752,5.6752,5.73,5.8314,5.8314,5.8405,5.861,5.9631,6.031,6.0682,0.0,0.0,6.24,6.24,6.24,6.24,6.24,6.2448,6.257,6.257,6.2618,6.2787,0.0,0.0,0.0,0.0,0.0,0.0,0.0,0.0,0.0,0.0,2.0665,1.9987,0.0,0.0,0.0,0.0,0.0,0.0,0.0,0.0,0.0,2.5752,2.6824,2.7854,2.8757,2.9099,2.9189,2.9116,2.8898,2.8699,2.8462,2.8406,2.8296,2.8221,2.8221,2.8117,2.7937,2.8042,2.8178,2.835,2.8086,2.8118,2.8231,2.7914,0.0,0.0,2.7465,2.9175,3.1899,3.4472,3.7285,4.0008,4.1605,4.2263,4.2622,4.3399,4.3808,4.4257,4.5583,4.6121,4.642,4.701,4.7219,4.677,4.4745,4.4296,0.0,3.9667,3.8721,3.8242,3.7195,4.0426,4.3879,4.5907,4.9918,5.3362,5.4882,5.509,5.5135,0.0,5.5179,5.5179,5.5179,5.5179,0.0,0.0,0.0,5.5179,5.5179,5.5179,5.5179,5.5179,5.5179,5.5305,5.5501,5.5501,5.5626,5.5819,5.5819,5.6354,5.7316,5.7527,5.8713,6.0607,0.0,0.0,6.24,6.24,6.24,6.24,6.24,6.2753,6.3308,6.3308,6.37,6.4241,0.0,0.0,0.0,0.0,0.0,0.0,0.0,2.1527,2.2255,2.3462,2.3332,2.2834,2.2027,2.1192,2.0965,0.0,0.0,0.0,0.0,0.0,0.0,2.6093,2.6734,2.7393,2.8051,2.8051,2.8231,2.8607,0.0,2.7572,2.7585,2.7255,2.6884,2.6554,2.6554,2.6554,2.6554,2.6554,2.6764,2.7076,2.7076,2.7285,2.7547,0.0,0.0,0.0,2.7863,2.9804,3.2273,3.3903,3.7105,4.0756,4.2681,4.329,4.3409,4.4087,4.4556,4.5035,4.6031,4.654,4.6899,4.7219,4.7309,4.6501,4.3479,4.2791,4.1654,3.7704,3.6896,3.6686,3.6088,3.9694,4.3088,4.4088,4.8943,5.2795,5.353,5.4521,5.5179,5.5179,5.5179,5.5179,5.5179,5.5179,0.0,0.0,0.0,5.5179,5.5179,5.5179,5.5179,5.5179,5.5179,5.5179,5.5179,5.5179,5.5179,5.5179,5.5179,5.5501,5.6085,5.6704,5.7644,5.878,6.0043,0.0,6.15,6.213,6.24,6.2434,6.2821,6.3193,6.3545,6.3917,6.4309,6.4647,0.0,0.0,0.0,0.0,0.0,0.0,0.0,2.302,2.4,2.5165,2.5881,2.5647,2.4006,2.2633,2.2093,0.0,0.0,0.0,0.0,0.0,0.0,0.0,0.0,0.0,0.0,0.0,0.0,0.0,2.7123,0.0,0.0,0.0,0.0,0.0,0.0,2.5304,2.5154,2.5154,2.5644,0.0,0.0,2.6845,0.0,0.0,0.0,0.0,0.0,3.004,3.2243,3.3335,3.6237,3.9709,4.1814,4.2771,4.325,4.3878,4.4556,4.5304,4.6241,4.6899,4.7309,4.7309,4.7429,4.6441,4.2331,4.1523,4.0445,3.6357,3.5519,3.5628,3.611,3.9568,4.2585,4.3278,4.8276,5.2158,5.2443,5.4019,5.5095,5.52,5.5179,0.0,5.5179,5.5179,0.0,0.0,0.0,0.0,5.5179,5.5179,5.5179,5.5179,5.5179,5.5179,5.5179,5.5179,5.5179,5.5179,5.5179,5.5179,5.5259,5.6335,5.7112,5.7723,5.98,0.0,0.0,6.2482,6.2854,6.2922,6.3531,6.3815,6.4018,6.4613,6.4952,6.5155,0.0,0.0,0.0,0.0,0.0,0.0,0.0,2.2783,2.4082,2.6733,2.6719,2.64,2.6214,2.4255,2.3043,0.0,0.0,0.0,0.0,0.0,0.0,0.0,0.0,0.0,0.0,0.0,0.0,0.0,0.0,0.0,0.0,0.0,0.0,0.0,0.0,0.0,0.0,2.3789,0.0,0.0,0.0,0.0,0.0,0.0,0.0,0.0,0.0,2.9342,3.1061,3.356,3.5116,3.6417,3.8943,4.0995,4.2601,4.322,4.3878,4.4805,4.6711,4.7249,4.7309,4.7309,4.7758,4.7031,4.2451,4.1852,4.1014,3.6447,3.5519,3.611,3.8064,3.9976,4.2428,4.599,4.8905,5.1327,5.3217,5.4191,5.4874,5.5155,0.0,0.0,5.5179,5.5179,0.0,0.0,0.0,0.0,0.0,5.5179,5.5179,5.5179,5.5179,5.5179,5.5179,5.5179,5.5179,5.5179,5.5179,5.5179,5.5209,5.596,5.7512,5.9681,0.0,0.0,0.0,6.4336,6.441,6.441,6.4478,6.4918,6.5514,6.5581,6.6,6.6588,0.0,0.0,0.0,0.0,0.0,0.0,2.2975,2.3709,2.5045,2.7893,2.8308,2.8108,2.7515,2.6475,2.5489,2.4664,0.0,0.0,0.0,0.0,0.0,0.0,0.0,0.0,0.0,0.0,2.7465,2.7195,0.0,0.0,0.0,0.0,0.0,0.0,0.0,0.0,0.0,0.0,0.0,0.0,0.0,0.0,0.0,0.0,0.0,0.0,0.0,0.0,3.0133,3.2482,3.4292,3.5609,3.6237,3.808,4.0445,4.2651,4.3489,4.4237,4.6629,4.7309,4.7399,4.7788,4.7189,4.5714,4.271,4.1283,3.9619,3.6207,3.5519,3.5873,3.7155,3.8289,4.0101,4.335,4.6064,4.8505,5.0623,5.2371,5.3645,5.4159,5.4466,0.0,0.0,0.0,0.0,0.0,0.0,0.0,0.0,5.5803,5.5803,5.5803,5.6137,5.6346,5.6346,5.6346,5.6346,5.6346,5.6346,5.6346,5.6346,5.6641,5.7293,5.8288,0.0,0.0,0.0,6.3161,6.3927,6.4647,6.5087,6.5425,6.5751,6.6203,6.6542,6.6791,0.0,0.0,0.0,0.0,0.0,2.069,2.3311,2.4331,2.5656,2.8124,2.8876,2.8987,2.8342,2.7556,2.6879,2.6343,2.5938,0.0,0.0,0.0,0.0,0.0,0.0,0.0,0.0,0.0,2.7914,2.7914,2.8094,2.7854,0.0,0.0,0.0,0.0,0.0,0.0,0.0,0.0,0.0,0.0,0.0,0.0,0.0,0.0,0.0,0.0,0.0,0.0,0.0,0.0,0.0,3.516,3.4877,3.6074,3.8153,4.1246,4.2562,4.3549,4.6052,4.713,4.7698,4.8177,4.7091,4.5274,4.295,4.1014,3.8883,3.6088,3.5519,3.578,3.669,3.7472,3.8868,4.1442,4.4307,4.6884,4.8876,5.0899,5.2461,5.3265,0.0,5.3653,0.0,0.0,0.0,0.0,0.0,0.0,0.0,5.6372,5.6462,5.6462,5.6881,5.7094,5.7094,5.7094,5.7094,5.7094,5.7094,5.7094,5.7094,5.7304,5.7599,5.8036,0.0,0.0,0.0,6.2435,6.3551,6.4724,6.5249,6.5674,6.6102,6.6609,6.6791,6.6791,0.0,0.0,0.0,0.0,0.0,0.0,2.2769,2.4294,2.5694,2.7132,2.8006,2.8564,2.8692,2.7024,2.6595,2.8225,2.7229,0.0,0.0,0.0,0.0,0.0,0.0,0.0,0.0,0.0,2.8577,2.8577,2.9249,2.9249,2.8577,2.8577,0.0,0.0,0.0,0.0,0.0,0.0,0.0,0.0,0.0,0.0,0.0,0.0,0.0,0.0,0.0,0.0,0.0,0.0,0.0,0.0,0.0,3.5519,3.6058,3.8673,4.0846,4.286,4.4786,4.677,4.8289,4.8319,4.7788,4.6411,4.3159,4.1373,3.9469,3.6178,3.5519,3.5945,3.7419,3.8228,3.9436,4.1742,4.4625,4.7224,4.9018,5.0402,5.1627,5.2661,0.0,5.1768,0.0,0.0,0.0,0.0,0.0,0.0,0.0,5.6791,5.7094,5.7094,5.7094,5.7094,5.7094,5.7094,5.7094,5.7094,5.7094,5.7094,5.7124,5.7786,5.8815,0.0,0.0,0.0,0.0,6.2996,6.3756,6.4914,6.4914,6.569,6.6791,6.6791,6.6791,6.6791,0.0,0.0,0.0,0.0,0.0,0.0,0.0,2.239,2.3378,2.5343,2.6259,2.7038,2.7871,2.7623,2.7621,2.8168,2.7161,0.0,0.0,0.0,0.0,0.0,0.0,0.0,0.0,2.8261,2.8816,2.9279,2.9907,3.0103,2.9894,2.9488,2.883,2.7919,0.0,0.0,0.0,0.0,0.0,0.0,0.0,0.0,0.0,0.0,0.0,0.0,0.0,0.0,0.0,0.0,0.0,0.0,0.0,0.0,0.0,3.7045,3.8811,4.0696,4.2211,4.3439,4.4267,4.4267,4.306,4.1634,4.0576,3.899,3.7315,3.5818,3.5519,3.578,3.6723,3.6681,3.783,4.1938,4.2991,4.4551,4.7978,4.9847,5.1139,5.1942,5.3152,5.4102,0.0,0.0,0.0,0.0,0.0,0.0,0.0,5.7423,5.7786,5.7786,5.8231,5.8471,5.8471,5.8471,5.8471,5.8471,5.8471,5.8471,5.8471,5.871,0.0,0.0,0.0,0.0,0.0,6.1621,6.2414,6.3694,6.4574,6.5148,6.5603,6.6482,6.6791,6.6791,0.0,0.0,0.0,0.0,0.0,0.0,0.0,2.1824,2.2851,2.4402,2.5485,2.6654,2.8078,2.7802,2.7793,2.8607,2.758,0.0,0.0,0.0,0.0,0.0,0.0,0.0,2.7585,2.8261,2.9026,2.9937,3.0582,3.1017,3.124,3.0881,3.0073,2.8949,2.8111,2.7452,0.0,0.0,0.0,0.0,0.0,0.0,2.9405,0.0,0.0,0.0,0.0,0.0,0.0,0.0,0.0,0.0,0.0,0.0,0.0,0.0,3.7165,3.8661,4.0217,4.1493,4.241,4.241,4.1074,3.972,3.9451,3.7913,3.6314,3.5639,3.5519,3.5639,3.6058,3.5998,3.6964,4.0248,4.1339,4.3158,4.7088,4.897,5.0328,5.1383,0.0,0.0,0.0,0.0,0.0,0.0,0.0,0.0,0.0,0.0,5.8205,5.8474,5.889,5.9099,5.9099,5.9099,5.9099,5.9099,5.9099,5.9099,5.9099,5.9099,0.0,0.0,0.0,0.0,0.0,6.0276,6.135,6.31,6.3849,6.4756,6.5712,6.6503,6.6791,6.6791,0.0,0.0,0.0,0.0,0.0,0.0,0.0,2.2306,2.3695,2.4194,2.55,2.7087,2.8914,2.7589,2.7347,2.9285,0.0,0.0,0.0,0.0,0.0,0.0,0.0,0.0,2.7585,2.8291,2.9295,3.0582,3.1271,3.1989,3.2632,3.2572,3.1539,2.9668,2.9608,2.8873,2.7585,0.0,0.0,0.0,0.0,2.816,0.0,0.0,0.0,0.0,0.0,0.0,0.0,0.0,0.0,0.0,0.0,0.0,0.0,0.0,0.0,0.0,0.0,4.0535,4.1961,4.1931,4.0984,3.9888,3.9272,3.7734,0.0,3.5639,3.5519,3.5519,3.5579,3.6058,3.678,3.758,3.9986,4.3015,4.6544,4.8172,4.9607,0.0,5.2516,0.0,0.0,0.0,0.0,0.0,0.0,0.0,0.0,0.0,5.8444,5.9069,5.9099,5.9099,5.9099,5.9099,5.9099,5.9099,5.9099,5.9099,5.9099,5.9099,0.0,0.0,0.0,0.0,0.0,5.9099,6.0593,6.2884,6.298,6.4483,6.6686,6.677,6.6791,6.6791,0.0,0.0,0.0,0.0,0.0,0.0,0.0,0.0,0.0,0.0,2.5333,2.6653,2.7102,2.7274,2.7527,0.0,0.0,0.0,0.0,0.0,0.0,0.0,0.0,0.0,2.7585,2.8753,2.9983,3.1271,3.2452,3.3365,3.4009,3.353,3.2198,3.0253,2.9817,2.8873,2.7585,2.7585,0.0,0.0,2.7593,2.789,0.0,0.0,0.0,0.0,3.0163,3.1214,0.0,0.0,0.0,0.0,0.0,0.0,0.0,0.0,3.5609,3.5818,3.6281,0.0,3.7751,3.7255,3.6896,3.6626,0.0,3.6058,3.5699,3.5533,3.5519,3.5669,3.6178,3.6387,3.7419,4.0243,4.1133,4.3054,4.7557,5.0465,5.2292,5.2684,5.3892,0.0,0.0,0.0,0.0,0.0,0.0,0.0,0.0,0.0,5.8949,5.9099,5.9099,5.9099,5.9099,5.9099,5.9099,5.9099,5.9099,5.9099,5.9099,5.9099,0.0,0.0,0.0,0.0,5.9099,5.9099,6.0049,6.1571,6.2585,6.3975,6.547,6.6461,6.6791,6.6791,0.0,0.0,0.0,0.0,0.0,0.0,0.0,0.0,0.0,0.0,0.0,2.6256,2.6945,2.7357,0.0,0.0,0.0,0.0,0.0,0.0,0.0,0.0,0.0,2.7585,2.7585,2.862,2.9924,3.1511,3.2542,3.3694,3.4937,3.4278,3.2886,3.0897,2.9368,2.8274,2.759,2.7499,2.802,2.8778,2.7396,0.0,0.0,0.0,0.0,0.0,3.0163,3.1247,0.0,3.2856,3.3649,3.4503,0.0,0.0,0.0,0.0,3.525,3.5519,3.5519,3.5759,3.5938,3.5579,3.5519,3.5519,3.5519,3.5519,3.5519,3.5519,3.5519,3.5609,3.5968,3.7511,3.9048,4.0043,4.2658,4.5671,4.8875,5.1044,5.2516,5.3139,5.3857,0.0,0.0,0.0,0.0,0.0,0.0,0.0,0.0,0.0,5.9099,5.9099,5.9099,5.9099,5.9099,5.9099,5.9099,5.9099,5.9099,5.9099,5.9099,5.9099,0.0,0.0,0.0,0.0,5.9099,5.9099,6.0202,6.1995,6.2706,6.4137,6.5877,6.6546,6.6791,6.6791,0.0,0.0,0.0,0.0,0.0,0.0,0.0,0.0,0.0,0.0,0.0,0.0,0.0,0.0,0.0,0.0,0.0,0.0,0.0,0.0,0.0,0.0,2.7585,2.7705,2.7914,2.847,2.9714,3.166,3.2422,3.3694,3.534,3.4967,3.3634,3.1391,2.886,2.7599,2.7412,2.7137,2.7802,2.8891,2.7244,0.0,0.0,0.0,0.0,0.0,0.0,0.0,0.0,3.3036,3.3769,3.4458,3.4248,0.0,0.0,0.0,0.0,0.0,3.531,3.5639,3.5878,3.5579,3.5519,3.5519,3.5519,3.5519,3.5519,3.5519,3.5519,3.5729,3.6417,3.8978,4.071,3.9926,4.475,4.9051,5.0331,5.1265,5.2157,5.3109,0.0,0.0,0.0,0.0,0.0,0.0,0.0,0.0,0.0,0.0,0.0,5.9099,5.9099,5.9099,5.9099,5.9099,5.9099,5.9099,5.9099,5.9099,5.9099,5.9099,5.9099,0.0,0.0,0.0,5.9099,5.9099,6.0515,6.2706,6.2932,6.4437,6.6525,6.6728,6.6791,6.6791,0.0,0.0,0.0,0.0,0.0,0.0,0.0,0.0,0.0,0.0,0.0,0.0,0.0,0.0,0.0,0.0,0.0,0.0,0.0,0.0,0.0,2.7585,2.7585,2.8124,2.9249,2.9398,3.0402,3.2362,3.3574,3.4338,3.4667,3.5715,3.4502,3.1422,2.924,2.7666,2.6644,2.5976,2.5986,2.6443,2.6125,0.0,0.0,0.0,0.0,0.0,0.0,0.0,0.0,3.1959,3.3006,3.4308,3.3155,0.0,0.0,0.0,0.0,0.0,3.4488,3.6284,3.7554,3.5908,3.5519,3.5519,3.5519,3.5519,3.5519,3.5519,3.5519,3.6686,4.0625,3.9966,4.0462,4.5393,0.0,5.0571,0.0,0.0,5.4221,0.0,0.0,0.0,0.0,0.0,0.0,0.0,0.0,0.0,0.0,0.0,0.0,5.9099,5.9099,5.9099,5.9099,5.9099,5.9099,5.9099,5.9099,5.9099,5.9099,5.9099,5.9099,0.0,0.0,5.9099,5.9099,5.9099,5.997,6.142,6.2561,6.3905,6.5304,6.6418,6.6791,6.6791,0.0,0.0,0.0,0.0,0.0,0.0,0.0,0.0,0.0,0.0,0.0,0.0,0.0,0.0,0.0,0.0,0.0,0.0,0.0,0.0,2.7914,2.8663,2.8321,2.859,2.9578,2.9907,3.124,3.359,3.4562,3.537,3.6028,3.4462,3.2544,3.0265,2.7854,2.6454,2.5892,2.5841,2.6118,2.6622,0.0,0.0,0.0,0.0,0.0,0.0,0.0,0.0,0.0,0.0,3.2362,3.3305,3.2691,0.0,0.0,0.0,0.0,0.0,3.3889,3.5086,3.6493,3.7404,3.8943,4.0367,4.0696,4.0786,4.0397,3.896,3.8691,3.9457,4.1931,4.314,4.5719,5.1773,0.0,5.0902,5.2498,0.0,0.0,0.0,0.0,0.0,0.0,0.0,0.0,0.0,0.0,0.0,0.0,0.0,0.0,0.0,5.9099,5.9099,5.9099,5.9099,5.9099,5.9099,5.9099,5.9099,5.9099,5.9099,5.9099,5.9099,0.0,5.9099,5.9099,5.9099,6.0281,6.2144,6.2755,6.4207,6.5985,6.6567,6.6791,6.6791,0.0,0.0,0.0,0.0,0.0,0.0,0.0,0.0,0.0,0.0,0.0,0.0,0.0,0.0,0.0,0.0,0.0,0.0,0.0,2.7585,2.8124,2.9309,2.9026,2.9368,3.0476,3.0821,3.2198,3.4727,3.5549,3.633,3.6988,3.3349,3.0791,2.9212,2.6703,2.552,2.5411,2.5603,2.6274,2.7218,0.0,0.0,0.0,0.0,0.0,0.0,0.0,0.0,0.0,0.0,0.0,0.0,0.0,0.0,0.0,3.2841,3.2841,3.3305,3.3455,3.4338,3.5865,3.8673,4.0827,4.2791,4.4825,4.4706,4.3838,4.2761,4.2571,4.284,4.3848,4.6732,5.0391,5.479,5.2911,5.1535,0.0,0.0,0.0,0.0,0.0,0.0,0.0,0.0,0.0,0.0,0.0,0.0,0.0,0.0,0.0,0.0,5.9099,5.9099,5.9099,5.9099,5.9099,5.9099,5.9099,5.9099,5.9099,5.9099,5.9099,5.9099,5.9099,5.9099,5.9099,5.9099,6.0463,6.2561,6.2884,6.4584,6.6791,6.6791,6.6791,6.6791,0.0,0.0,0.0,0.0,0.0,0.0,0.0,0.0,0.0,0.0,0.0,0.0,0.0,0.0,0.0,0.0,0.0,0.0,0.0,2.7585,2.7902,2.8637,2.9219,3.0686,3.3155,3.2647,3.3349,3.5429,3.664,3.6872,3.6052,3.3508,3.1155,2.8927,2.7001,2.588,2.5356,2.452,2.5341,2.7128,2.6149,0.0,0.0,0.0,0.0,0.0,0.0,0.0,0.0,0.0,0.0,0.0,0.0,0.0,3.3425,3.2691,3.2542,3.2691,3.3335,3.531,3.7554,3.9032,3.7746,3.7734,4.3898,4.294,4.1743,4.5224,4.5942,4.651,4.8438,5.0002,5.0936,5.0727,5.1977,0.0,0.0,0.0,0.0,0.0,0.0,0.0,0.0,0.0,0.0,0.0,0.0,0.0,0.0,0.0,0.0,0.0,0.0,5.9099,5.9099,5.9099,5.9099,5.9099,5.9099,5.9099,5.9099,5.9099,5.9099,5.9099,5.9099,5.9099,5.9099,5.9099,5.9917,6.1269,6.2512,6.4584,6.6791,6.6791,6.6791,6.6791,0.0,0.0,0.0,0.0,0.0,0.0,0.0,0.0,0.0,0.0,0.0,0.0,0.0,0.0,0.0,0.0,0.0,0.0,0.0,2.6986,2.7662,2.9159,2.9458,3.0432,3.2213,3.3245,3.4711,3.6669,3.7584,3.7411,3.6224,3.2729,3.0173,2.8432,2.5557,2.4363,2.4536,2.4777,2.5706,2.7085,2.7804,2.8046,0.0,0.0,0.0,0.0,0.0,0.0,0.0,0.0,3.0,3.0867,3.0867,3.1794,3.2826,3.2572,3.2213,3.2019,3.2691,3.54,3.8153,3.8661,3.896,4.0786,4.6929,4.7706,4.7339,4.8027,4.9464,5.0571,0.0,5.2905,5.4401,5.2911,5.3683,0.0,0.0,0.0,0.0,0.0,0.0,0.0,0.0,0.0,0.0,0.0,0.0,0.0,0.0,0.0,0.0,0.0,0.0,5.9099,5.9099,5.9099,5.9099,5.9099,5.9099,5.9099,5.9099,5.9099,5.9099,5.9099,5.9099,5.9099,5.9099,5.9099,6.0333,6.2439,6.4551,6.5942,6.6791,6.6791,6.6791,6.6791,0.0,0.0,0.0,0.0,0.0,0.0,0.0,0.0,0.0,0.0,0.0,0.0,0.0,0.0,0.0,0.0,0.0,0.0,2.6285,2.6482,2.7303,2.8889,2.9368,3.0193,3.1466,3.3455,3.5146,3.6477,3.704,3.6754,3.5625,3.1927,2.9557,2.8236,2.5591,2.4591,2.4888,2.5635,2.6492,2.7436,2.8612,2.8742,0.0,0.0,0.0,0.0,0.0,0.0,0.0,0.0,2.9325,3.0253,3.0432,3.1405,3.2512,3.2512,3.305,3.3768,3.4247,3.6507,3.896,4.0008,4.0834,4.302,4.9112,5.0219,5.0391,5.1791,5.269,5.3025,5.2546,0.0,0.0,0.0,0.0,0.0,0.0,0.0,0.0,0.0,0.0,0.0,0.0,0.0,0.0,0.0,0.0,0.0,0.0,0.0,0.0,0.0,0.0,5.9099,5.9099,5.9099,5.9099,5.9099,5.9099,5.9099,5.9099,5.9099,5.9099,5.9099,5.9099,5.9099,5.9099,5.9099,6.0645,6.322,6.536,6.6461,6.6791,6.6791,6.6791,6.6791,0.0,0.0,0.0,0.0,0.0,0.0,0.0,0.0,2.5668,2.7008,2.7896,0.0,0.0,0.0,0.0,0.0,0.0,0.0,2.5633,2.6213,2.6884,2.7555,2.8873,3.0193,3.1451,3.3425,3.4474,3.4518,3.4818,3.4635,3.3921,3.1241,2.9459,2.8449,2.7646,2.706,2.6722,2.7051,2.7634,2.8297,2.8069,2.8253,2.8575,0.0,0.0,0.0,0.0,0.0,0.0,0.0,2.9039,2.9698,3.0313,3.142,3.2482,3.2512,3.528,3.835,3.835,3.8901,4.0199,4.3459,4.288,4.3229,4.971,4.9202,4.9404,5.6619,5.5508,5.3648,5.4965,5.3054,0.0,0.0,0.0,0.0,0.0,0.0,0.0,0.0,0.0,0.0,0.0,0.0,0.0,0.0,0.0,0.0,0.0,0.0,0.0,0.0,0.0,0.0,5.9099,5.9099,5.9099,5.9099,5.9099,5.9099,5.9099,5.9099,5.9099,5.9099,5.9099,5.9099,5.9099,5.9126,6.0671,6.3148,6.4414,6.569,6.6791,6.6791,6.6791,6.6791,0.0,0.0,0.0,0.0,0.0,0.0,0.0,0.0,2.4387,2.6257,2.637,0.0,0.0,0.0,0.0,0.0,0.0,0.0,2.5573,2.5794,2.6183,2.6854,2.862,2.9548,2.9461,3.0911,3.3081,3.5925,3.453,3.3471,3.2659,2.9832,2.8422,2.8243,2.7397,2.6752,2.6314,2.7082,2.7725,2.8236,2.8205,2.8913,2.9811,0.0,0.0,0.0,0.0,0.0,0.0,0.0,0.0,0.0,2.9668,3.0747,3.1899,3.2362,3.332,3.4336,3.4831,3.8512,4.2102,4.1683,4.5304,4.9613,5.2037,5.1648,5.2157,5.7068,5.6615,5.5294,5.5209,0.0,0.0,0.0,0.0,0.0,0.0,0.0,0.0,0.0,0.0,0.0,0.0,0.0,0.0,0.0,0.0,0.0,0.0,0.0,0.0,0.0,0.0,0.0,5.9099,5.9099,5.9099,5.9099,5.9099,5.9099,5.9099,5.9099,5.9099,5.9099,5.9099,5.9099,5.9261,6.1076,6.2299,6.322,6.5404,6.6482,6.6791,6.6791,6.6791,6.6791,0.0,0.0,0.0,0.0,0.0,0.0,2.395,2.4007,2.4522,2.5997,2.5981,2.6296,0.0,0.0,0.0,2.6614,2.5854,2.5334,2.5202,2.5693,2.6183,2.6584,2.8261,2.9249,2.9355,3.0642,3.2228,3.4128,3.2452,3.1734,3.1872,2.9339,2.8714,2.9704,2.8768,2.8056,2.7575,2.7655,2.7703,2.7752,2.8182,2.8709,2.9217,0.0,0.0,0.0,0.0,0.0,0.0,0.0,0.0,0.0,2.9548,3.0462,3.1839,3.3589,3.4831,3.6237,3.9038,4.2331,4.5214,4.6403,4.9464,5.2725,5.47,5.5029,0.0,0.0,5.7274,5.6162,5.5987,0.0,0.0,0.0,0.0,0.0,0.0,0.0,0.0,0.0,0.0,0.0,0.0,0.0,0.0,0.0,0.0,0.0,0.0,0.0,0.0,0.0,0.0,0.0,5.9099,5.9099,5.9099,5.9099,5.9099,5.9099,5.9099,5.9099,5.9099,5.9099,5.9099,5.9099,5.9261,6.135,6.2512,6.322,6.5238,6.6342,6.6791,6.6791,6.6791,6.6791,0.0,0.0,0.0,0.0,0.0,0.0,2.4213,2.4882,2.5605,2.6213,2.6409,2.6772,0.0,0.0,0.0,2.6734,2.6644,2.6093,2.4874,2.5914,2.6644,2.6704,2.8038,2.9325,3.0462,3.1645,3.154,3.014,2.9272,2.9641,3.113,2.9209,2.9544,3.172,3.0815,3.0123,2.9568,2.8434,2.7594,2.7113,2.7969,2.7964,2.7658,2.8912,0.0,0.0,0.0,0.0,0.0,0.0,0.0,0.0,2.9847,3.0492,3.2019,3.513,3.7973,4.1324,4.6822,4.7938,4.8895,5.4456,5.4336,5.3773,5.7367,5.8653,5.9099,5.9039,0.0,5.6521,5.7004,0.0,0.0,0.0,0.0,0.0,0.0,0.0,0.0,0.0,0.0,0.0,0.0,0.0,0.0,0.0,0.0,0.0,0.0,0.0,0.0,0.0,0.0,0.0,5.9099,5.9099,5.9099,0.0,5.9099,5.9099,5.9099,5.9099,5.9099,5.9099,5.9099,5.918,5.9365,6.0635,6.197,6.3315,6.4574,6.5789,6.6791,6.6791,6.6791,6.6791,0.0,0.0,0.0,0.0,0.0,0.0,2.5576,2.5558,2.58,2.6903,2.6722,2.6772,2.7509,2.7585,0.0,2.7405,2.6884,2.6494,2.6183,2.6435,2.6824,2.7375,2.9129,3.0223,3.0492,3.0313,2.9317,2.7434,2.7582,2.8041,2.8726,2.7508,2.7781,2.9255,2.9062,2.874,2.8333,2.7823,2.7526,2.7397,2.7508,2.8167,2.9025,2.8121,2.8031,0.0,0.0,0.0,0.0,0.0,0.0,0.0,3.0193,3.0478,3.0957,3.2213,3.5174,3.8452,4.0266,4.5065,5.0129,5.2486,5.5359,5.7842,5.871,5.9009,5.8949,5.8414,5.7965,0.0,0.0,0.0,0.0,0.0,0.0,0.0,0.0,0.0,0.0,0.0,0.0,0.0,0.0,0.0,0.0,0.0,0.0,0.0,0.0,0.0,0.0,0.0,0.0,5.9099,5.9099,5.9099,5.9099,0.0,5.9099,5.9099,5.9099,5.9099,5.9099,5.9099,5.9099,5.9683,6.0686,6.202,6.3331,6.4619,6.5898,6.6546,6.6791,6.6791,6.6791,6.6791,0.0,0.0,0.0,0.0,0.0,0.0,0.0,0.0,2.6542,2.6874,2.6976,2.7178,2.7547,2.7585,0.0,0.0,2.7285,2.6944,2.6614,2.6884,2.7525,2.8513,3.0402,3.0844,2.9527,2.9245,2.7962,2.5584,2.5494,2.6049,2.7218,2.6417,2.7205,2.9211,2.8673,2.8336,2.8099,2.7511,2.7116,2.6904,2.6875,2.7522,2.8417,2.7685,2.7719,2.8111,2.8111,0.0,0.0,0.0,0.0,0.0,0.0,0.0,3.1375,3.332,3.513,3.7524,4.2331,4.6381,5.0189,5.4047,5.7094,5.9099,5.9099,5.9099,5.9009,5.865,0.0,0.0,0.0,0.0,0.0,0.0,0.0,0.0,0.0,0.0,0.0,0.0,0.0,0.0,0.0,0.0,0.0,0.0,0.0,0.0,0.0,0.0,0.0,0.0,5.9099,5.9099,5.9099,5.9099,5.9099,5.9099,5.9099,5.9099,5.9099,5.9099,5.9099,5.9099,5.9099,5.9811,6.1091,6.2439,6.3732,6.5036,6.6299,6.6791,6.6791,6.6791,6.6791,6.6791,0.0,0.0,0.0,0.0,0.0,0.0,0.0,0.0,0.0,2.6733,2.7229,2.7585,2.7585,2.7495,2.7435,0.0,0.0,0.0,2.6644,2.7345,2.8334,2.9562,3.115,3.0967,2.881,2.8434,2.7082,2.4678,2.3742,2.4332,2.6345,2.5842,2.7077,2.969,2.8605,2.8161,2.8183,2.7169,2.6511,2.6179,2.6381,2.6717,2.7209,2.7434,2.7558,2.7627,2.7735,2.8141,2.8727,2.9488,0.0,0.0,0.0,0.0,3.1914,3.4801,3.5639,3.7375,4.5145,4.8019,5.0331,5.6679,5.871,5.9099,5.9099,5.9099,5.9039,5.88,0.0,0.0,0.0,0.0,0.0,0.0,0.0,0.0,0.0,0.0,0.0,0.0,0.0,0.0,0.0,0.0,0.0,0.0,0.0,0.0,0.0,0.0,5.9099,5.9099,5.9099,5.9099,5.9099,5.9099,5.9099,5.9099,5.9099,5.9099,5.9099,5.9099,5.9099,5.9099,5.9099,5.9944,6.142,6.2536,6.3882,6.5326,6.6363,6.6791,6.6791,6.6791,6.6791,6.6791,0.0,0.0,0.0,0.0,0.0,0.0,0.0,0.0,0.0,0.0,2.7534,2.7585,2.7585,2.7063,2.6734,2.6734,2.6734,2.6704,2.6614,0.0,0.0,2.9562,2.9847,3.0076,3.0203,2.8027,2.6369,2.5355,2.3595,2.3894,2.6214,2.5807,2.6695,2.8654,2.7449,2.7364,2.8011,2.6382,2.5691,2.5747,2.634,2.6631,2.6765,2.7356,2.7599,2.7675,2.8261,2.8517,2.8786,2.9983,3.0432,0.0,0.0,0.0,0.0,3.1869,3.4157,3.6746,3.8512,4.4796,5.2133,5.7603,5.9039,5.9099,5.9099,0.0,5.877,0.0,0.0,0.0,0.0,0.0,0.0,0.0,0.0,0.0,0.0,0.0,0.0,0.0,0.0,0.0,0.0,0.0,0.0,0.0,0.0,0.0,0.0,5.9099,5.9099,5.9099,5.9099,5.9099,5.9099,5.9099,5.9099,5.9099,5.9099,5.9099,5.9099,5.9099,5.9099,5.9099,5.9099,6.0489,6.2731,6.2932,6.4391,6.6546,6.6749,6.6791,6.6791,6.6791,6.6791,6.6791,0.0,0.0,0.0,0.0,0.0,0.0,0.0,0.0,0.0,0.0,0.0,2.7585,2.7585,2.7003,2.6614,2.6614,2.6243,2.6183,2.6584,2.7482,2.8108,2.8402,2.8364,2.7926,2.7088,2.5674,2.4382,2.3262,2.2095,2.3156,2.6199,2.6012,2.7145,2.9279,2.8118,2.7407,2.7066,2.6384,2.5698,2.5078,2.5712,2.7554,2.9703,2.7741,2.8616,3.0656,2.871,2.8051,2.8231,2.9548,2.9997,3.0163,3.1182,0.0,0.0,0.0,3.2527,3.4965,4.0797,4.6958,5.2935,5.7872,5.9099,5.9099,5.9099,5.9099,5.883,0.0,0.0,0.0,0.0,0.0,0.0,0.0,0.0,0.0,0.0,0.0,0.0,0.0,0.0,0.0,0.0,0.0,0.0,0.0,0.0,0.0,5.9099,5.9099,5.9099,5.9099,5.9099,5.9099,5.9099,5.9099,5.9099,5.9099,5.9099,5.9099,5.9099,5.9099,5.9099,5.9153,5.9864,6.1249,6.3076,6.3756,6.5148,6.6791,6.6791,6.6791,6.6791,6.6791,6.6791,6.6791,0.0,0.0,0.0,0.0,0.0,0.0,0.0,0.0,0.0,0.0,0.0,2.7585,2.7585,0.0,0.0,0.0,2.5884,2.5872,2.6554,2.7189,2.7504,2.7501,2.7244,2.6408,2.4926,2.3872,2.2915,2.1977,2.1114,2.2677,2.6427,2.6237,2.7687,3.0355,2.9289,2.7981,2.6587,2.6591,2.6033,2.5193,2.6152,2.8923,3.2273,3.0088,3.1411,3.3983,3.0394,2.8869,2.8639,2.9171,2.9338,2.9548,3.0658,3.0658,0.0,0.0,0.0,3.3185,4.2113,4.6689,5.0331,5.6166,5.7603,5.7872,5.889,0.0,5.8919,0.0,0.0,0.0,0.0,0.0,0.0,0.0,0.0,0.0,0.0,0.0,0.0,0.0,0.0,0.0,0.0,0.0,0.0,0.0,0.0,0.0,5.9099,5.9099,5.9099,5.9099,5.9099,5.9099,5.9099,5.9099,5.9099,5.9099,5.9099,5.9099,5.9099,5.9099,5.9099,5.918,6.0458,6.1946,6.3576,6.4505,6.5646,6.6791,6.6791,6.6791,6.6791,6.6791,6.6791,6.6791,0.0,0.0,0.0,0.0,0.0,0.0,0.0,0.0,0.0,0.0,0.0,2.7585,2.7585,2.7003,2.6333,2.5693,2.5633,2.5872,2.6554,2.7218,2.7567,2.75,2.6872,0.0,2.6297,2.3891,2.2882,2.3287,2.1549,2.2883,2.7051,2.6399,2.8034,3.1492,3.0583,2.9175,2.7413,2.6823,2.6554,2.6653,2.854,3.0575,3.2795,3.5654,3.6883,3.6756,3.4131,3.2339,3.0949,2.9214,2.8637,2.8757,2.9488,2.9668,2.9638,0.0,0.0,0.0,3.8075,3.99,4.2233,5.1253,5.3528,5.4486,5.8261,0.0,0.0,0.0,0.0,0.0,0.0,0.0,0.0,0.0,0.0,0.0,0.0,0.0,0.0,0.0,0.0,0.0,0.0,0.0,0.0,0.0,0.0,0.0,5.9099,5.9099,5.9099,5.9099,5.9099,5.9099,5.9099,5.9099,5.9099,5.9099,5.9099,5.9099,5.9099,5.9099,5.9099,5.918,6.0458,6.2456,6.4801,6.4869,6.5646,6.6791,6.6791,6.6791,6.6791,6.6791,6.6791,6.6791,0.0,0.0,0.0,0.0,0.0,0.0,0.0,0.0,0.0,0.0,0.0,0.0,0.0,2.6614,2.5854,2.5633,2.5182,2.5175,2.5842,2.6069,2.618,2.6147,2.548,2.4685,2.3797,2.2538,2.2,2.2165,2.118,2.2522,2.6005,2.6104,2.7081,2.8714,2.8777,2.8699,2.8412,2.6633,2.6162,2.6864,3.0116,3.2857,3.5184,3.6763,3.916,0.0,0.0,0.0,0.0,3.2928,3.0549,2.7883,2.9043,2.8877,2.8357,2.8817,2.997,3.2153,3.6849,3.908,4.1444,4.7309,5.099,5.3588,5.497,5.7274,0.0,0.0,0.0,0.0,0.0,0.0,0.0,0.0,0.0,0.0,0.0,0.0,0.0,0.0,0.0,0.0,0.0,0.0,0.0,0.0,0.0,0.0,5.9099,5.9099,5.9099,5.9099,5.9099,5.9099,5.9099,5.9099,5.9099,5.9099,5.9099,5.9099,5.9099,5.9099,5.9549,6.038,6.1696,6.2803,6.3835,6.5448,6.6397,6.6791,6.6791,6.6791,6.6791,6.6791,6.6791,6.6791,0.0,0.0,0.0,0.0,0.0,0.0,0.0,0.0,0.0,2.7585,0.0,0.0,0.0,0.0,2.6183,2.5944,2.5258,2.5006,2.5462,2.5446,2.53,2.5049,2.4552,2.3759,2.2598,2.2046,2.1669,2.1507,2.1144,2.2135,2.4367,2.5123,2.5876,2.6582,2.6631,2.7196,2.802,0.0,0.0,2.7604,0.0,3.5004,3.6707,0.0,0.0,0.0,0.0,0.0,0.0,0.0,0.0,0.0,0.0,0.0,0.0,0.0,0.0,3.1525,3.4606,3.655,3.8871,4.3509,4.68,4.9726,5.2815,5.5388,0.0,0.0,0.0,0.0,0.0,0.0,0.0,0.0,0.0,0.0,0.0,0.0,0.0,0.0,0.0,0.0,0.0,0.0,0.0,0.0,0.0,0.0,5.9099,5.9099,5.9099,5.9099,5.9099,5.9099,5.9099,5.9099,5.9099,5.9099,5.9099,5.9099,5.9099,5.9099,5.9549,6.0458,6.2218,6.3236,6.3779,6.592,6.6791,6.6791,6.6791,6.6791,6.6791,6.6791,6.6791,6.6791,0.0,0.0,0.0,0.0,0.0,0.0,0.0,0.0,2.7645,2.7645,0.0,0.0,0.0,0.0,0.0,2.6673,2.5921,2.5485,2.5497,2.542,2.5063,2.4322,2.4293,2.3927,2.311,2.2583,2.2046,2.1507,2.1507,2.1744,2.2282,2.3427,2.4506,2.546,2.4431,2.473,2.6023,0.0,2.7463,2.8944,0.0,3.6845,3.727,0.0,0.0,0.0,4.2027,4.1071,0.0,0.0,0.0,0.0,0.0,0.0,0.0,0.0,0.0,2.9877,0.0,0.0,0.0,3.9727,0.0,0.0,5.1768,0.0,0.0,0.0,0.0,0.0,0.0,0.0,0.0,0.0,0.0,0.0,0.0,0.0,0.0,0.0,0.0,0.0,0.0,0.0,0.0,0.0,0.0,5.9099,5.9099,5.9099,5.9099,5.9099,5.9099,5.9099,5.9099,5.9099,5.9099,5.9099,5.9099,5.9099,5.9099,5.9099,5.9099,5.9261,6.1853,6.3685,6.4969,6.6256,6.6791,6.6791,6.6791,6.6791,6.6791,6.6791,6.6791,6.6791,0.0,0.0,0.0,0.0,0.0,2.9309,2.9309,2.877,2.85,0.0,0.0,0.0,2.8321,2.7671,2.7163,2.706,2.5834,2.5102,2.5201,2.4829,2.4509,2.4293,2.4293,2.3927,2.311,2.2583,2.2046,2.1507,2.1507,2.1382,2.1169,2.2272,2.2924,2.3226,2.3311,2.3346,2.3364,2.3674,0.0,0.0,3.3588,3.6203,0.0,0.0,0.0,0.0,0.0,4.5384,0.0,0.0,3.8866,3.1397,0.0,0.0,0.0,0.0,0.0,0.0,3.0027,0.0,0.0,0.0,0.0,0.0,0.0,0.0,0.0,0.0,0.0,0.0,0.0,0.0,0.0,0.0,0.0,0.0,0.0,0.0,0.0,0.0,0.0,0.0,0.0,0.0,0.0,0.0,5.9099,5.9099,5.9099,5.9099,5.9099,5.9099,5.9099,5.9099,5.9099,5.9099,5.9099,5.9099,5.9099,5.9099,5.9099,5.9099,5.9099,5.9261,6.1853,6.322,6.3718,6.5877,6.6791,6.6791,6.6791,6.6791,6.6791,6.6791,6.6791,6.6791,0.0,0.0,3.0807,3.0462,3.0402,3.0492,3.0761,3.0013,2.9535,0.0,0.0,0.0,2.9355,2.9129,2.8713,2.8131,2.6735,2.5676,2.5146,2.4283,2.3809,2.3809,2.3809,2.3588,2.3095,2.2794,2.2257,2.1507,2.1507,2.1105,2.0365,2.1443,2.1845,2.1658,2.2182,2.2257,2.1948,2.1581,0.0,0.0,3.4557,0.0,0.0,4.4824,4.7133,0.0,0.0,0.0,4.5258,4.8594,4.2501,0.0,0.0,0.0,0.0,0.0,0.0,3.0247,3.0364,3.1629,0.0,0.0,0.0,0.0,0.0,0.0,0.0,0.0,0.0,0.0,0.0,0.0,0.0,0.0,0.0,0.0,0.0,0.0,0.0,0.0,0.0,0.0,0.0,0.0,0.0,0.0,5.9099,5.9099,5.9099,5.9099,5.9099,5.9099,5.9099,5.9099,5.9099,5.9099,5.9099,5.9099,5.9099,5.9099,5.9099,5.9099,5.9099,5.9261,6.1853,6.3004,6.322,6.5746,6.6791,6.6791,6.6791,6.6791,6.6791,6.6791,6.6791,6.6791,0.0,0.0,3.154,3.16,3.16,3.1839,3.2512,3.1465,3.0672,0.0,3.0296,3.0177,3.0881,3.1143,3.0822,2.9603,2.8035,2.6523,2.5146,2.3815,2.3095,2.3095,2.3095,2.3095,2.3095,2.3095,2.2594,2.1583,2.1532,2.0966,2.0012,2.0904,2.108,2.073,2.113,2.1306,2.1256,2.0489,0.0,2.6585,3.5791,3.7879,0.0,0.0,4.5694,0.0,4.7008,4.7808,4.7805,5.2497,4.8689,0.0,0.0,0.0,0.0,0.0,2.929,3.1858,3.1664,3.2542,0.0,0.0,0.0,0.0,0.0,0.0,0.0,0.0,0.0,0.0,0.0,0.0,0.0,0.0,0.0,0.0,0.0,0.0,0.0,0.0,0.0,0.0,0.0,0.0,5.8264,5.8949,5.9069,5.9099,5.9099,5.9099,5.9099,5.9099,5.9099,5.9099,5.9099,5.9099,5.9099,5.9099,5.9099,5.9099,5.9099,5.9099,5.918,5.9446,6.1927,6.31,6.341,6.5811,6.6791,6.6791,6.6791,6.6791,6.6791,6.6791,6.6791,6.6791,3.0163,3.0867,3.166,3.2213,3.2303,3.2512,3.3215,3.2183,3.1704,3.2766,3.2347,3.2377,3.359,3.158,3.0291,3.0639,2.7754,2.5623,2.4906,2.3764,2.3095,2.3095,2.3095,2.3095,2.3095,2.3095,2.2794,2.2146,2.1694,2.1382,2.1155,2.0464,2.0326,2.0666,2.0301,2.0137,2.0238,2.1805,0.0,2.9412,3.0702,0.0,4.016,4.4967,4.7691,4.911,5.0434,4.9953,4.8586,0.0,4.735,4.6265,0.0,0.0,0.0,0.0,0.0,0.0,0.0,0.0,0.0,0.0,0.0,0.0,0.0,0.0,0.0,0.0,0.0,0.0,0.0,0.0,0.0,0.0,0.0,0.0,0.0,0.0,0.0,0.0,0.0,0.0,0.0,0.0,5.7573,5.8234,5.88,5.9099,5.9099,5.9099,5.9099,5.9099,5.9099,5.9099,5.9099,5.9099,5.9099,5.9099,5.9099,5.9099,5.9099,5.9099,5.9656,6.0712,6.2291,6.3568,6.4642,6.617,6.6791,6.6791,6.6791,6.6791,6.6791,6.6791,6.6791,6.6791,3.0432,3.1032,3.1809,3.2811,3.3006,3.3335,3.4352,3.3634,3.3245,3.3919,3.3709,3.3769,3.4444,3.2693,3.1364,3.1032,2.8389,2.6182,2.4899,2.4014,2.3396,2.312,2.3095,2.3246,2.3537,2.3246,2.297,2.2694,2.1895,2.1356,2.1094,2.0515,2.1446,2.3482,2.1245,2.1482,2.3467,0.0,2.3931,2.7525,3.1958,0.0,4.306,4.7404,5.0142,5.1764,5.2855,5.3199,5.2908,5.1279,4.8576,0.0,0.0,4.1212,3.8529,0.0,3.6307,3.8361,0.0,0.0,0.0,3.5326,0.0,0.0,0.0,0.0,0.0,0.0,0.0,0.0,0.0,0.0,0.0,0.0,0.0,0.0,0.0,0.0,0.0,0.0,0.0,0.0,0.0,0.0,5.6915,5.7573,5.7902,5.8261,5.859,5.8593,5.877,5.9099,5.9099,5.9099,5.9099,5.9099,5.9099,5.9099,5.9099,5.9099,5.9126,5.9758,6.0406,6.1116,6.3092,6.4322,6.5014,6.6278,6.6791,6.6791,6.6791,6.6791,6.6791,6.6791,6.6791,6.6791,3.0372,3.1032,3.1869,3.3095,3.3395,3.3903,3.513,3.4847,3.4503,3.4503,3.4937,3.5236,3.5236,3.471,3.391,3.2843,3.0836,2.8661,2.6295,2.5556,2.4969,2.4453,2.3583,2.371,2.4979,2.3735,2.3045,2.2945,2.197,2.1281,2.0842,2.0641,2.2326,2.5418,2.2929,0.0,0.0,0.0,0.0,2.7379,0.0,4.0111,4.2886,4.8238,5.074,5.1711,5.4194,5.5725,5.6447,5.5627,0.0,4.4778,4.7137,4.3907,0.0,0.0,0.0,0.0,0.0,0.0,0.0,0.0,0.0,3.6776,0.0,0.0,0.0,0.0,0.0,0.0,0.0,0.0,0.0,0.0,0.0,0.0,0.0,0.0,0.0,0.0,0.0,0.0,0.0,0.0,5.5713,5.6825,5.6436,5.6735,5.8025,5.8085,5.8414,5.9069,5.9099,5.9099,5.9099,5.9099,5.9099,5.9099,5.9099,5.9099,5.9153,6.0406,6.1142,6.1521,6.3896,6.5059,6.5326,6.6397,6.6791,6.6791,6.6791,6.6791,6.6791,6.6791,6.6791,6.6791,3.0253,3.1032,3.175,3.2482,3.3095,3.3769,3.4488,3.4563,3.4503,3.4503,3.6523,3.796,3.796,3.8227,0.0,0.0,0.0,0.0,3.1227,0.0,2.9419,2.922,2.5302,2.4828,2.8531,2.4978,2.2869,2.2383,2.1794,2.1482,2.1382,2.0376,2.0678,2.2186,2.4714,0.0,0.0,0.0,3.1177,0.0,3.8033,3.715,0.0,4.2504,4.6105,4.8175,5.3786,5.5311,5.4481,0.0,5.16,4.9475,0.0,4.4532,4.8088,3.8177,0.0,0.0,0.0,0.0,0.0,0.0,3.6836,0.0,0.0,0.0,0.0,0.0,0.0,0.0,0.0,0.0,0.0,0.0,0.0,0.0,0.0,0.0,0.0,0.0,0.0,0.0,0.0,0.0,0.0,5.6072,5.4127,5.4311,5.7905,5.8085,5.8414,5.9069,5.9099,5.9099,5.9099,5.9099,5.9099,5.9099,5.9099,5.9099,5.9153,6.0406,6.1646,6.2828,6.4266,6.5537,6.6588,6.6749,6.6791,6.6791,6.6791,6.6791,6.6791,6.6791,6.6791,6.6791,2.9817,3.0492,3.1017,3.1286,3.2228,3.3155,3.3829,3.4907,3.5506,3.5146,3.6374,3.7302,0.0,0.0,0.0,0.0,0.0,3.5197,0.0,0.0,3.0041,2.7556,2.53,2.4871,2.6615,2.4319,2.2995,2.2769,2.1594,2.1043,2.1018,2.0188,2.1769,2.5393,2.7049,0.0,3.0083,0.0,3.2855,0.0,0.0,0.0,0.0,4.5243,5.0831,5.3021,5.6493,5.7487,5.7012,0.0,5.2612,0.0,0.0,0.0,0.0,0.0,0.0,0.0,0.0,0.0,0.0,0.0,0.0,0.0,3.6626,0.0,3.5848,0.0,0.0,0.0,0.0,0.0,0.0,0.0,0.0,0.0,0.0,0.0,0.0,0.0,0.0,0.0,0.0,0.0,0.0,0.0,0.0,5.4012,5.6855,5.7334,5.7842,5.8504,5.8919,5.9099,5.9099,5.9099,5.9099,5.9099,5.9099,5.9499,6.0255,6.1546,6.2876,6.4184,6.5448,6.6299,6.6791,6.6791,6.6791,6.6791,6.6791,6.6791,6.6791,6.6791,6.6791,6.6791,2.8949,2.9698,3.0313,3.0462,3.1465,3.2572,3.362,3.5027,3.5835,0.0,0.0,0.0,3.7541,3.7364,0.0,0.0,0.0,3.8749,0.0,0.0,3.2643,3.0716,2.689,0.0,0.0,2.4759,2.297,2.2659,2.1331,2.0705,2.0691,2.0251,2.2347,2.6575,2.8253,3.1164,3.4889,0.0,0.0,3.5231,3.8353,3.9072,3.9344,4.8649,5.4064,5.6905,5.8495,5.8798,5.832,5.7387,5.2825,0.0,5.379,0.0,0.0,0.0,0.0,0.0,3.9888,0.0,0.0,0.0,0.0,0.0,0.0,0.0,0.0,0.0,0.0,0.0,0.0,0.0,0.0,0.0,0.0,0.0,0.0,0.0,0.0,0.0,0.0,0.0,0.0,0.0,0.0,0.0,0.0,0.0,5.6042,5.6611,5.7244,5.8055,5.8563,5.8919,5.9099,5.9099,5.9258,5.9629,5.9258,5.997,6.1571,6.2561,6.3718,6.4959,6.6256,6.6791,6.6791,6.6791,6.6791,6.6791,6.6791,6.6791,6.6791,6.6791,6.6791,6.6791,2.7645,2.871,2.9817,3.0402,3.1076,3.2213,3.4158,3.4518,0.0,0.0,0.0,0.0,0.0,0.0,0.0,0.0,0.0,4.8289,4.4822,0.0,3.9475,0.0,0.0,2.8277,0.0,2.7478,2.2583,2.1557,2.0993,2.0705,2.0705,2.0666,0.0,0.0,2.7573,3.0995,3.3355,3.7639,4.276,4.8075,4.9193,5.2165,5.5362,0.0,5.2081,5.6905,5.8495,0.0,0.0,5.3105,5.1858,0.0,0.0,0.0,0.0,0.0,0.0,0.0,0.0,0.0,0.0,3.7823,0.0,0.0,0.0,0.0,3.6267,0.0,0.0,0.0,0.0,0.0,0.0,0.0,0.0,0.0,0.0,0.0,0.0,0.0,0.0,0.0,0.0,0.0,0.0,0.0,0.0,0.0,5.5923,5.6222,5.6795,5.8055,5.8115,5.8444,5.9099,5.9099,5.9736,6.0912,5.9709,6.0437,6.2956,6.298,6.3718,6.4959,6.6256,6.6791,6.6791,6.6791,6.6791,6.6791,6.6791,6.6791,6.6791,6.6791,6.6791,6.6791,2.8248,2.865,2.8859,2.862,2.9834,3.1539,0.0,3.4967,0.0,0.0,0.0,0.0,0.0,0.0,4.5633,0.0,0.0,4.8001,4.5747,4.1517,0.0,0.0,0.0,2.8956,0.0,0.0,2.3672,2.2558,2.1683,2.1231,2.1231,2.1231,0.0,0.0,0.0,3.3347,0.0,0.0,0.0,0.0,0.0,5.0068,5.2512,0.0,0.0,5.6792,5.7328,5.786,0.0,5.701,5.4896,5.2941,5.4243,5.1962,4.9166,5.1009,5.093,0.0,0.0,0.0,4.9284,4.2651,0.0,0.0,0.0,0.0,0.0,0.0,0.0,0.0,0.0,0.0,0.0,0.0,0.0,0.0,0.0,0.0,0.0,0.0,0.0,0.0,0.0,0.0,0.0,0.0,0.0,0.0,0.0,5.6192,5.6402,5.6825,5.7636,5.8205,5.8444,5.97,6.0557,6.0989,6.1477,6.2585,6.4276,6.4276,6.4969,6.6192,6.661,6.6791,6.6791,6.6791,6.6791,6.6791,6.6791,6.6791,6.6791,6.6791,6.6791,6.6791,2.9009,2.8949,2.883,2.8393,2.9714,0.0,0.0,0.0,0.0,0.0,3.996,0.0,4.4347,0.0,4.6262,0.0,4.9075,4.8357,4.6046,4.3192,0.0,4.2217,3.5829,0.0,0.0,0.0,0.0,2.5983,2.3344,2.2071,2.2056,2.187,0.0,0.0,0.0,3.3611,3.9903,0.0,4.8009,0.0,0.0,5.2402,0.0,0.0,5.6072,0.0,0.0,5.8221,5.9099,5.9099,5.7393,5.5748,5.8291,5.5598,5.2007,5.4551,5.3803,5.1887,5.072,5.2247,0.0,4.63,4.5882,0.0,3.929,0.0,0.0,0.0,0.0,0.0,0.0,0.0,0.0,0.0,0.0,0.0,0.0,0.0,0.0,0.0,0.0,0.0,0.0,0.0,0.0,0.0,0.0,0.0,0.0,0.0,5.6192,5.6192,5.7004,5.7663,5.8085,5.9829,6.1025,6.1721,6.2585,6.3905,6.5559,6.5104,6.5603,6.6791,6.6791,6.6791,6.6791,6.6791,6.6791,6.6791,6.6791,6.6791,6.6791,6.6791,6.6791,6.6791,2.9703,2.9641,0.0,0.0,3.0687,0.0,0.0,0.0,3.658,0.0,4.0277,4.1983,4.5274,4.6741,4.8027,4.9366,5.0571,0.0,4.6492,4.5572,0.0,0.0,4.2503,4.1931,4.6137,0.0,0.0,0.0,2.5842,2.317,2.3145,2.2633,2.2633,0.0,2.5477,0.0,4.1248,4.3455,5.0088,5.9099,5.9099,5.8982,5.8644,5.7326,0.0,5.315,5.7476,5.9018,5.9099,5.9099,5.9099,5.9099,5.9099,5.9099,5.9099,5.9099,5.9099,5.8411,5.5299,5.4461,5.3354,4.8775,0.0,0.0,0.0,0.0,4.247,0.0,0.0,0.0,0.0,0.0,0.0,0.0,0.0,0.0,0.0,0.0,0.0,0.0,0.0,0.0,0.0,0.0,0.0,0.0,0.0,0.0,0.0,0.0,0.0,5.6132,5.6192,5.6765,5.7995,5.94,6.1063,6.294,6.3044,6.4391,6.677,6.5559,6.5646,6.6791,6.6791,6.6791,6.6791,6.6791,6.6791,6.6791,6.6791,6.6791,6.6791,6.6791,6.6791,6.6791,2.9493,3.0275,3.1017,0.0,3.1271,3.2108,0.0,0.0,0.0,0.0,4.4177,4.677,5.0062,5.0301,5.075,5.2091,5.2037,0.0,0.0,0.0,0.0,5.1435,4.5302,4.3364,4.6719,3.798,0.0,3.2389,0.0,2.4164,2.3778,2.3627,2.3386,2.3195,0.0,0.0,4.1248,4.3455,5.0088,5.9099,5.9099,5.7152,0.0,0.0,5.6025,5.3021,5.6165,5.8081,5.9099,5.9099,5.9099,5.9099,5.9099,5.9099,5.9099,5.9099,5.9099,5.8919,5.8082,5.7842,5.6974,5.3354,5.1828,5.0331,0.0,0.0,0.0,0.0,0.0,0.0,0.0,0.0,0.0,0.0,0.0,0.0,0.0,0.0,0.0,0.0,0.0,0.0,0.0,0.0,0.0,0.0,0.0,0.0,0.0,0.0,0.0,5.5384,5.5953,5.6372,5.6701,5.8935,6.0812,6.2252,6.3738,6.5238,6.6791,6.6461,6.6503,6.6791,6.6791,6.6791,6.6791,6.6791,6.6791,6.6791,6.6791,6.6791,6.6791,6.6791,6.6791,6.6791,3.0107,0.0,0.0,3.2751,0.0,0.0,3.5985,0.0,0.0,4.2801,4.5104,0.0,5.0182,5.1439,5.2366,5.3139,5.2869,0.0,0.0,0.0,0.0,5.1254,4.8898,4.8535,5.0537,4.3786,0.0,3.6287,0.0,0.0,2.4356,2.3838,2.3436,2.3195,0.0,3.0982,3.8939,4.5473,5.1439,5.6675,5.8411,0.0,0.0,5.8167,5.7586,5.5663,5.7214,5.8331,5.9099,5.9099,5.9099,5.9099,5.9099,5.9099,5.9099,5.9099,5.9099,5.9099,5.9099,5.9099,5.865,5.6795,5.5777,5.4371,5.1193,5.0152,4.9883,0.0,0.0,0.0,0.0,0.0,0.0,0.0,0.0,0.0,0.0,0.0,0.0,0.0,0.0,0.0,0.0,0.0,0.0,0.0,0.0,0.0,0.0,0.0,0.0,5.4922,5.5757,5.6444,5.6995,5.9594,6.1567,6.2788,6.4795,6.6127,6.6791,6.6791,6.6791,6.6791,6.6791,6.6791,6.6791,6.6791,6.6791,6.6791,6.6791,6.6791,6.6791,6.6791,6.6791,6.6791,0.0,0.0,0.0,0.0,0.0,0.0,0.0,3.8469,0.0,4.3429,0.0,4.701,4.8865,5.1552,5.3288,5.3468,0.0,5.2024,4.8975,5.1695,5.2321,4.9759,5.2639,5.461,5.5179,5.0929,0.0,0.0,0.0,0.0,2.4666,2.3672,2.3221,2.3336,0.0,0.0,0.0,4.8443,5.3498,0.0,5.7723,5.9099,5.9099,5.9099,5.9099,5.9099,5.9099,5.9099,5.9099,5.9099,5.9099,5.9099,5.9099,5.9099,5.9099,5.9099,5.9099,5.9099,5.9099,5.9099,5.9099,5.9099,5.9099,5.8201,5.4785,5.3977,5.3977,5.3977,5.1229,0.0,0.0,0.0,0.0,0.0,0.0,0.0,0.0,0.0,0.0,0.0,0.0,0.0,0.0,0.0,0.0,0.0,0.0,0.0,0.0,0.0,0.0,0.0,5.5888,0.0,5.7996,0.0,6.2409,6.3814,6.5572,6.6563,6.6791,6.6791,6.6791,6.6791,6.6791,6.6791,6.6791,6.6791,6.6791,6.6791,6.6791,6.6791,6.6791,6.6791,6.6791,6.6791,0.0,0.0,0.0,0.0,0.0,3.9989,4.2831,4.4496,4.5903,4.7249,4.9995,0.0,5.3084,5.3174,5.3648,5.473,5.4341,0.0,0.0,0.0,0.0,5.4087,5.4685,5.5059,5.5179,5.0536,4.5499,0.0,0.0,0.0,2.413,2.3929,2.3853,2.3935,2.5935,0.0,4.3646,5.0353,0.0,5.8141,5.883,5.9099,5.9099,5.9099,5.9099,5.9099,5.9099,5.9099,5.9099,5.9099,5.9099,5.9099,5.9099,5.9099,5.9099,5.9099,5.9099,5.9099,5.9099,5.9099,5.9099,5.9099,5.9099,5.8919,5.8231,5.8082,5.8082,5.8082,5.7513,5.6466,5.4606,0.0,0.0,0.0,0.0,0.0,0.0,0.0,0.0,0.0,0.0,0.0,0.0,0.0,0.0,0.0,0.0,0.0,0.0,0.0,0.0,0.0,0.0,0.0,0.0,0.0,0.0,6.3903,6.4167,6.5189,6.6791,6.6791,6.6791,6.6791,6.6791,6.6791,6.6791,6.6791,6.6791,6.6791,6.6791,6.6791,6.6791,6.6791,6.6791,6.6791,0.0,0.0,0.0,0.0,0.0,0.0,0.0,4.9164,0.0,4.9007,5.0451,5.1774,5.2103,5.3384,5.4516,5.5119,5.491,5.485,5.5179,5.5179,5.5179,5.5179,5.5179,0.0,5.5179,0.0,4.8015,4.0392,0.0,0.0,2.439,2.3813,2.3908,2.4853,2.9992,3.5859,0.0,0.0,0.0,5.6226,5.8261,5.9099,5.9099,5.9099,5.9099,5.9099,5.9099,5.9099,5.9099,5.9099,5.9099,5.9099,5.9099,5.9099,5.9099,5.9099,5.9099,5.9099,5.9099,5.9099,5.9099,5.9099,5.9099,5.9099,5.9099,5.9099,5.9099,5.9099,5.9099,5.7902,5.3947,4.9972,0.0,0.0,0.0,0.0,0.0,0.0,0.0,0.0,0.0,0.0,0.0,0.0,0.0,0.0,0.0,0.0,0.0,0.0,0.0,0.0,0.0,0.0,0.0,0.0,0.0,6.4249,6.4628,6.5508,6.6791,6.6791,6.6791,6.6791,6.6791,6.6791,6.6791,6.6791,6.6791,6.6791,6.6791,6.6791,6.6791,6.6791,6.6791,6.6791,0.0,3.4274,0.0,0.0,4.3127,0.0,0.0,5.2157,5.3264,5.0684,5.09,5.1265,5.1265,5.3623,5.5179,5.5179,5.5179,5.5179,5.5179,5.5179,5.5179,5.5179,5.5179,5.5179,5.5179,5.5179,5.0921,0.0,0.0,0.0,0.0,2.4549,0.0,0.0,0.0,0.0,0.0,0.0,5.3707,5.4725,5.7842,5.9099,5.9099,5.9099,5.9099,5.9099,5.9099,5.9099,5.9099,5.9099,5.9099,5.9099,5.9099,5.9099,5.9099,5.9099,5.9099,5.9099,5.9099,5.9099,5.9099,5.9099,5.9099,5.9099,5.9099,5.9099,5.9099,5.9099,5.9099,5.7902,5.3947,5.1349,0.0,0.0,0.0,0.0,0.0,0.0,0.0,0.0,0.0,0.0,0.0,0.0,0.0,0.0,0.0,0.0,0.0,0.0,0.0,0.0,0.0,5.8496,5.845,0.0,6.3533,0.0,6.5256,6.5933,6.6791,6.6791,6.6791,6.6791,6.6791,6.6791,6.6791,6.6791,6.6791,6.6791,6.6791,6.6791,6.6791,6.6791,6.6791,6.6791,0.0,0.0,0.0,0.0,0.0,0.0,0.0,5.2432,5.4102,5.3773,5.4311,5.473,5.473,5.4999,5.5179,5.5179,5.5179,5.5179,5.5179,5.5179,5.5179,5.5179,5.5179,5.5179,5.5179,5.5179,5.2362,0.0,0.0,0.0,0.0,0.0,0.0,0.0,0.0,0.0,0.0,5.2552,5.5294,5.859,5.8949,5.9099,5.9099,5.9099,5.9099,5.9099,5.9099,5.9099,5.9099,5.9099,5.9099,5.9099,5.9099,5.9099,5.9099,5.9099,5.9099,5.9099,5.9099,5.9099,5.9099,5.9099,5.9099,5.9099,5.9099,5.9099,5.9099,5.9099,5.9099,5.7902,5.3947,5.5807,5.6226,0.0,0.0,0.0,0.0,0.0,0.0,0.0,0.0,0.0,0.0,0.0,0.0,0.0,0.0,0.0,0.0,0.0,0.0,5.8121,0.0,5.7368,5.7359,6.1394,0.0,6.5581,6.4986,6.5459,6.6791,6.6791,6.6791,6.6791,6.6791,6.6791,6.6791,6.6791,6.6791,6.6791,6.6791,6.6791,6.6791,6.6791,6.6791,6.6791,0.0,0.0,0.0,0.0,0.0,0.0,0.0,5.4102,5.479,5.479,5.5029,5.5179,5.5179,5.5179,5.5179,5.5179,5.5179,5.5179,5.5179,5.5179,5.5179,5.5179,5.5179,5.5179,5.5179,5.5179,5.2921,0.0,0.0,0.0,0.0,0.0,0.0,0.0,0.0,4.8662,5.2396,5.5448,5.7663,5.9099,5.9099,5.9099,5.9099,5.9099,5.9099,5.9099,5.9099,5.9099,5.9099,5.9099,5.9099,5.9099,5.9099,5.9099,5.9099,5.9099,5.9099,5.9099,5.9099,5.9099,5.9099,5.9099,5.9099,5.9099,5.9099,5.9099,5.9099,5.9099,5.9099,5.862,5.7034,5.6077,5.5568,0.0,0.0,0.0,0.0,0.0,0.0,0.0,0.0,0.0,0.0,0.0,0.0,0.0,0.0,0.0,0.0,0.0,0.0,5.6244,0.0,5.9773,5.926,6.2514,6.4918,6.6339,6.5595,6.6034,6.7455,6.6994,6.6791,6.6791,6.6791,6.6791,6.6791,6.6791,6.6791,6.6791,6.6791,6.6791,6.6791,6.6791,6.6791,6.6791,4.4815,0.0,4.6483,0.0,5.122,5.2462,5.482,5.5179,5.5179,5.5179,5.5179,5.5179,5.5179,5.5179,5.5179,5.5179,5.5179,5.5179,5.5179,5.5179,5.5269,5.5504,5.5478,0.0,5.5748,5.5748,5.433,5.139,4.5724,0.0,0.0,0.0,0.0,0.0,5.0302,5.2965,5.4431,5.7723,5.9099,5.9099,5.9099,5.9099,5.9099,5.9099,5.9099,5.9099,5.9099,5.9099,5.9099,5.9099,5.9099,5.9099,5.9099,5.9099,5.9099,5.9099,5.9099,5.9099,5.9099,5.9099,5.9099,5.9099,5.9099,5.9099,5.9099,5.9099,5.9099,5.9099,5.9099,5.9099,5.9099,5.6825,5.5658,0.0,0.0,0.0,0.0,0.0,0.0,0.0,0.0,5.3646,0.0,0.0,0.0,0.0,0.0,0.0,0.0,0.0,0.0,0.0,0.0,0.0,0.0,0.0,6.5561,6.6791,6.6034,6.6474,6.7861,6.7151,6.6791,6.6791,6.6791,6.6791,6.6791,6.6791,6.6791,6.6791,6.6791,6.6791,6.6791,6.6791,6.6677,6.6474,4.762,4.8732,5.0095,5.4401,5.5119,5.5149,5.5179,5.5179,5.5179,5.5179,5.5179,5.5179,5.5179,5.5179,5.5179,5.5179,5.5179,5.5179,5.5179,5.5179,5.5504,0.0,0.0,5.6462,5.7064,5.7064,5.7064,5.7004,0.0,0.0,5.0598,4.6703,4.7448,5.2073,5.2187,5.473,5.9009,5.9069,5.9099,5.9099,5.9099,5.9099,5.9099,5.9099,5.9099,5.9099,5.9099,5.9099,5.9099,5.9099,5.9099,5.9099,5.9099,5.9099,5.9099,5.9099,5.9099,5.9099,5.9099,5.9099,5.9099,5.9099,5.9099,5.9099,5.9099,5.9099,5.9099,5.9099,5.9099,5.9099,5.9099,5.9069,5.8411,5.6551,0.0,0.0,0.0,0.0,0.0,0.0,4.9224,4.8702,5.4549,0.0,0.0,0.0,0.0,0.0,0.0,0.0,0.0,6.1144,6.126,0.0,6.0095,6.3802,6.6068,6.6791,6.6034,6.6474,6.7861,6.7151,6.6791,6.6791,6.6791,6.6791,6.6791,6.6791,6.6791,6.6791,6.6791,6.6791,6.6791,6.6791,6.6339,6.5717,5.1081,5.249,5.36,5.4949,5.5179,5.5329,5.5803,5.5893,5.6042,5.6436,5.6496,5.6316,5.5923,5.5448,5.5179,0.0,5.5179,5.5179,0.0,5.5623,5.5983,5.6192,5.6611,5.6885,5.7094,5.7094,5.7334,5.7782,0.0,0.0,0.0,5.0296,5.2526,5.7569,5.7124,5.7723,5.9099,5.9099,5.9099,5.9099,5.9099,5.9099,5.9099,5.9099,5.9099,5.9099,5.9099,5.9099,5.9099,5.9099,5.9099,5.9099,5.9099,5.9099,5.9099,5.9099,5.9099,5.9099,5.9099,5.9099,5.9099,5.9099,5.9099,5.9099,5.9099,5.9099,5.9099,5.9099,5.9099,5.9099,5.9099,5.9099,5.889,5.8261,0.0,0.0,0.0,0.0,0.0,0.0,0.0,5.7063,0.0,0.0,0.0,0.0,0.0,0.0,0.0,0.0,0.0,0.0,6.2076,0.0,6.3193,6.5358,6.7117,6.8368,6.7557,6.7726,6.8707,6.7895,6.7861,6.8301,6.7265,6.7096,6.7523,6.7015,6.6508,6.6034,6.6034,6.573,6.529,6.529,6.5155,6.4952,5.2724,5.4377,5.5593,5.5593,5.5748,5.6047,5.6492,5.6551,5.6671,5.7034,5.7094,5.6944,5.6581,5.6137,0.0,5.5239,5.5179,0.0,5.5564,5.5983,5.6402,5.6885,5.7274,5.7603,5.7842,0.0,0.0,5.8474,5.5586,5.4558,5.5381,5.5617,5.7301,6.0057,5.9668,5.9338,5.9099,5.9099,5.9099,5.9099,5.9099,5.9099,5.9099,5.9099,5.9099,5.9099,5.9099,5.9099,5.9099,5.9099,5.9099,5.9099,5.9099,5.9099,5.9099,5.9099,5.9099,5.9099,5.9099,5.9099,5.9099,5.9099,5.9099,5.9099,5.9099,5.9099,5.9099,5.9099,5.9099,5.9099,5.9099,5.9099,5.9099,5.9099,5.9099,5.9099,5.9099,0.0,0.0,0.0,0.0,0.0,0.0,5.9318,0.0,0.0,0.0,0.0,0.0,0.0,0.0,6.1211,6.4099,0.0,6.5405,6.6318,6.7569,6.9113,6.8876,6.8876,6.9079,6.8267,6.8166,6.8571,6.7354,6.6914,6.7049,6.6576,6.5967,6.5311,6.5311,6.5019,6.4613,6.4613,6.441,6.4208,5.2621,5.4629,0.0,0.0,5.6731,0.0,5.7154,5.7154,5.7184,5.7214,5.7244,5.7214,5.7184,5.7214,5.6735,5.5508,0.0,0.0,0.0,5.6432,5.7,5.8175,5.8234,0.0,5.9219,5.9189,5.9189,5.9249,6.0535,6.1166,6.1166,6.1822,6.1433,6.0234,6.0116,5.9727,5.9159,5.9129,5.9099,5.9099,5.9099,5.9099,5.9099,5.9099,5.9099,5.9099,5.9099,5.9099,5.9099,5.9099,5.9099,5.9129,5.9159,5.9129,5.9099,5.9099,5.9099,5.9099,5.9099,5.9099,5.9099,5.9099,5.9099,5.9099,5.9099,5.9099,5.9099,5.9099,5.9099,5.9099,5.9099,5.9099,5.9099,5.9099,5.9099,5.9099,5.9099,0.0,0.0,0.0,0.0,0.0,0.0,5.7528,6.0007,0.0,0.0,0.0,0.0,0.0,6.0047,6.6588,6.6791,6.6791,6.6791,6.6859,6.7603,6.9113,6.9857,6.9789,6.9079,6.8335,6.7996,6.7929,6.7129,6.644,6.5852,6.5818,6.5324,6.4681,6.4613,6.458,6.4512,6.4478,6.4005,6.3443,0.0,0.0,5.5501,5.6672,5.7004,5.7274,5.7786,5.7846,5.8052,5.856,5.862,5.8441,5.7905,5.8321,5.8291,5.7487,5.7397,5.7457,5.7663,5.859,5.9308,5.9608,5.9608,5.9937,6.0625,6.0116,6.0116,6.0655,6.1463,6.1852,6.1882,6.2032,6.1942,6.1583,6.0535,5.9997,5.9817,5.9308,5.9099,5.9099,5.9099,5.9099,5.9099,5.9099,5.9099,5.9099,5.9099,5.9099,5.9099,5.9099,5.9099,5.9189,5.9697,5.9518,5.9099,5.9099,5.9099,5.9099,5.9099,5.9099,5.9099,5.9099,5.9099,5.9099,5.9099,5.9099,5.9099,5.9099,5.9099,5.9099,5.9099,5.9099,5.9099,5.9099,5.9099,5.9099,5.9099,5.9099,0.0,0.0,5.8566,5.9388,6.0003,6.1888,6.2267,0.0,0.0,0.0,0.0,6.0182,6.1637,6.6622,6.6791,6.6791,6.6791,6.7354,6.8132,6.9113,6.9857,6.9789,6.9079,6.891,6.8808,6.8741,6.7387,6.7015,6.732,6.6779,6.6102,6.5358,6.4816,6.4275,6.368,6.3125,6.2821,6.2753,5.1699,5.3753,5.5708,5.7279,5.7812,5.8141,5.8504,5.8563,5.871,5.9069,5.9099,5.9069,5.9039,5.9338,5.9548,5.9461,5.8892,5.871,5.9009,5.9697,6.0236,6.0535,6.0565,6.0745,6.1076,6.0745,6.0894,6.1553,6.1912,6.2241,6.254,6.254,6.2391,6.2061,6.1014,6.0386,6.0084,5.9368,5.9099,5.9099,5.9099,5.9099,5.9099,5.9099,5.9099,5.9099,5.9099,5.9308,5.9548,5.9548,5.9757,6.0086,6.0446,6.0326,6.0027,6.0027,5.9578,5.9099,5.9099,5.9099,5.9099,5.9099,5.9099,5.9099,5.9099,5.9099,5.9099,5.9099,5.9099,5.9099,5.9099,5.9099,5.9099,5.9099,5.8351,5.8082,5.8979,5.8321,0.0,5.9009,5.9736,6.0614,6.1796,6.3212,6.35,6.2241,0.0,0.0,6.3159,6.3159,6.4275,6.6724,6.6791,6.6791,6.6791,6.7523,6.8132,6.8571,6.9316,6.9485,6.9079,6.8707,6.8538,6.8504,6.7299,6.6846,6.6846,6.6474,6.5865,6.5155,6.4749,6.414,6.3477,6.3429,6.3193,6.3024,5.19,5.4034,5.6013,5.7584,5.8548,5.9099,5.9099,5.9099,5.9099,5.9099,5.9189,5.9458,6.0054,6.0294,6.0625,6.1224,6.0296,5.9907,6.0356,6.0503,6.0805,6.1373,6.1313,6.1313,6.1403,6.1403,6.1672,6.2241,6.2241,6.254,6.3108,6.3108,6.2808,6.2211,6.1463,6.0775,6.0176,5.9428,5.9099,5.9099,5.9099,5.9099,5.9099,5.9099,5.9099,5.9129,5.9219,5.9608,6.0144,6.0206,6.0625,6.1134,6.1196,6.1166,6.1106,6.1196,6.0386,5.9398,5.9398,5.9398,5.9368,5.9279,5.9249,5.9219,5.9129,5.9099,5.9099,5.9099,5.9099,5.9099,5.9099,5.9099,5.889,5.8321,5.7304,5.703,5.8052,0.0,5.727,5.889,5.9099,6.0049,6.2439,6.2884,6.3975,6.632,6.6707,0.0,0.0,6.6791,6.6791,6.6791,6.6791,6.6859,6.696,6.7489,6.7793,6.7895,6.8605,6.8876,6.8741,6.8166,6.7827,6.7692,6.7062,6.644,6.5865,6.5865,6.5493,6.4918,6.4816,6.4377,6.3883,6.441,6.4208,6.3748,5.1077,5.3125,5.5099,5.6648,5.8105,5.9099,5.9099,5.9099,5.9099,5.9099,5.9578,5.9967,6.0114,6.1104,6.1822,6.1942,6.2271,6.2299,6.1822,6.2329,6.2689,6.2808,6.2241,6.2211,6.2778,6.2808,6.2838,6.2958,6.2958,6.3018,6.3108,6.3108,6.3048,6.2898,6.1642,6.1016,6.0864,5.9638,5.9099,5.9099,5.9099,5.9099,5.9099,5.9099,5.9099,5.9189,5.9727,5.9997,6.0176,6.0745,6.1014,6.1224,6.1762,6.1553,6.1196,6.1792,6.1403,6.0777,6.0777,6.0777,6.0655,6.0086,5.9937,5.9787,5.9219,5.9099,5.9099,5.9099,5.9099,5.9099,5.9099,5.9099,5.8022,5.464,5.6645,5.7573,5.4521,0.0,5.877,5.9069,5.9099,5.9683,6.1167,6.2341,6.3623,6.5081,6.6192,6.6791,6.6791,6.6791,6.6791,6.6791,6.6791,6.7117,6.7726,6.7218,6.7286,6.7895,6.803,6.776,6.7163,6.7658,6.7557,6.696,6.6859,6.6724,6.6643,6.6643,6.6576,6.6406,6.5764,6.5459,6.529,6.4783,6.4546,6.4546,5.2393,5.3716,5.5152,5.7552,5.8607,5.9099,5.9099,5.9099,5.9099,5.9099,5.9668,6.0236,6.0595,6.1523,6.2241,6.26,6.2928,6.2988,6.266,6.2928,6.3108,6.3108,6.2808,6.278,6.3108,6.3108,6.3108,6.3108,6.3108,6.3108,6.3108,6.3108,6.3108,6.3078,6.2061,6.1433,6.1046,6.0446,5.9757,5.9129,5.9488,5.9428,5.9129,5.9488,5.9638,5.9727,6.0386,6.0864,6.1224,6.1523,6.1882,6.2241,6.254,6.2421,6.2241,6.254,6.1912,6.1076,6.1076,6.1076,6.1044,6.0715,6.0625,6.0565,6.0266,5.9907,5.9638,5.9638,5.9338,5.9099,5.9099,5.9099,5.8501,5.6675,5.7004,0.0,0.0,5.7034,5.7932,5.8979,5.9709,6.064,6.1946,6.3259,6.4551,6.5833,6.6482,6.6791,6.6791,6.6791,6.6791,6.6791,6.6791,6.696,6.732,6.696,6.696,6.732,6.732,6.7151,6.6791,6.7151,6.7096,6.6791,6.6791,6.6791,6.6791,6.6791,6.6791,6.6757,6.644,6.6034,6.5717,6.5764,6.5527,6.529,5.2738,5.358,5.4712,5.7526,5.8303,5.8662,5.9045,5.9249,5.9338,5.9338,5.9907,6.0595,6.1253,6.1792,6.2361,6.3048,6.3108,6.3108,6.3108,6.3108,6.3108,6.3108,6.3108,6.3108,6.3108,6.3108,6.3108,6.3108,6.3108,6.3108,6.3108,6.3108,6.3108,6.3078,6.2391,6.1822,6.1343,6.1194,6.0535,5.9608,6.0116,6.0027,5.9638,6.0146,6.0326,6.0416,6.1104,6.1672,6.2121,6.2271,6.266,6.3108,6.3108,6.3108,6.3108,6.3108,6.2361,6.1553,6.1553,6.1553,6.1523,6.1373,6.1343,6.1313,6.1164,6.0715,6.0326,6.0326,5.9907,5.9518,5.9368,5.9338,5.8979,5.7902,0.0,0.0,0.0,5.724,5.745,5.8919,6.0198,6.1521,6.2884,6.4161,6.5448,6.6707,6.6791,6.6791,6.6791,6.6791,6.6791,6.6791,6.6791,6.6791,6.6791,6.6791,6.6791,6.6791,6.6791,6.6791,6.6791,6.6791,6.6791,6.6791,6.6791,6.6791,6.6791,6.6791,6.6791,6.6791,6.6791,6.644,6.6,6.6588,6.644,6.6034,4.9886,5.1142,5.2731,5.4446,5.5936,5.7384,5.8852,5.9608,6.0054,6.0054,6.0625,6.1283,6.1942,6.2061,6.2361,6.3048,6.3108,6.3108,6.3108,6.3108,6.3108,6.3108,6.3108,6.3108,6.3108,6.3108,6.3108,6.3108,6.3108,6.3108,6.3108,6.3108,6.3108,6.3078,6.2391,6.2061,6.2002,6.1373,6.1016,6.0956,6.1014,6.1014,6.0956,6.1014,6.1044,6.1134,6.1792,6.2061,6.2181,6.2838,6.3078,6.3108,6.3108,6.3108,6.3108,6.3108,6.3048,6.2958,6.2958,6.2958,6.2808,6.2181,6.2032,6.1852,6.1253,6.1046,6.1044,6.1044,6.1014,6.0775,6.0116,6.0054,5.8647,5.4336,0.0,0.0,5.4127,5.6675,5.8949,5.9099,6.0198,6.1521,6.2884,6.4161,6.5448,6.6707,6.6791,6.6791,6.6791,6.6791,6.6791,6.6791,6.6791,6.6791,6.6791,6.6791,6.6791,6.6791,6.6791,6.6791,6.6791,6.6791,6.6791,6.6791,6.6791,6.6791,6.6791,6.6791,6.6791,6.6791,6.6791,6.6757,6.6745,6.6757,6.6757,6.6745,5.0885,5.1585,5.2516,5.4119,5.5676,5.705,5.8078,5.8942,5.9787,6.0625,6.0954,6.1373,6.2032,6.245,6.2838,6.3078,6.3108,6.3108,6.3108,6.3108,6.3108,6.3108,6.3108,6.3108,6.3108,6.3108,6.3108,6.3108,6.3108,6.3108,6.3108,6.3108,6.3108,6.3108,6.2838,6.248,6.2121,6.2271,6.1852,6.1164,6.1553,6.1493,6.1136,6.1553,6.1732,6.1822,6.248,6.272,6.2778,6.3018,6.3108,6.3108,6.3108,6.3108,6.3108,6.3108,6.3108,6.3108,6.3108,6.3108,6.3048,6.278,6.272,6.2659,6.2391,6.2002,6.1732,6.1732,6.1403,6.1044,6.0775,6.0715,6.0418,5.949,0.0,6.068,6.0052,6.0858,6.1502,6.1502,6.2626,6.3638,6.4137,6.5304,6.6278,6.677,6.6791,6.6791,6.6791,6.6791,6.6791,6.6791,6.6791,6.6791,6.6791,6.6791,6.6791,6.6791,6.6791,6.6791,6.6791,6.6791,6.6791,6.6791,6.6791,6.6791,6.6791,6.6791,6.6791,6.6791,6.6791,6.6791,6.6791,6.6791,6.6791,6.6791,5.1016,5.1268,5.1741,5.3368,5.4947,5.6279,5.7254,5.8552,5.9727,6.0685,6.0984,6.1373,6.2032,6.251,6.2868,6.3078,6.3108,6.3108,6.3108,6.3108,6.3108,6.3108,6.3108,6.3108,6.3108,6.3108,6.3108,6.3108,6.3108,6.3108,6.3108,6.3108,6.3108,6.3108,6.3108,6.2839,6.2421,6.2898,6.257,6.1762,6.2211,6.2121,6.1792,6.2241,6.2391,6.245,6.2928,6.3108,6.3108,6.3108,6.3108,6.3108,6.3108,6.3108,6.3108,6.3108,6.3227,6.3407,6.3407,6.3528,6.3588,6.3197,6.3108,6.3108,6.3108,6.272,6.2391,6.2391,6.2061,6.1672,6.1463,6.1433,6.1649,6.2357,6.2404,6.269,6.3653,6.3712,6.3597,6.338,6.4463,6.5155,6.4924,6.605,6.6791,6.6791,6.6791,6.6791,6.6791,6.6791,6.6791,6.6791,6.6791,6.6791,6.6791,6.6791,6.6791,6.6791,6.6791,6.6791,6.6791,6.6791,6.6791,6.6791,6.6791,6.6791,6.6791,6.6791,6.6791,6.6791,6.6791,6.6791,6.6791,6.6791,6.6791,6.6791,4.9615,4.9615,5.011,5.171,5.3338,5.4946,5.648,5.8641,6.0114,6.0116,6.0715,6.1373,6.2032,6.2121,6.2361,6.3048,6.3108,6.3108,6.3108,6.3108,6.3108,6.3108,6.3108,6.3108,6.3108,6.3108,6.3108,6.3108,6.3108,6.3108,6.3108,6.3108,6.3108,6.3108,6.3108,6.3108,6.3108,6.3108,6.3108,6.3108,6.3108,6.3108,6.3108,6.3108,6.3108,6.3108,6.3108,6.3108,6.3108,6.3108,6.3108,6.3108,6.3108,6.3108,6.3108,6.3108,6.3528,6.4006,6.4006,6.4515,6.4695,6.3408,6.3108,6.3108,6.3108,6.3108,6.3108,6.3108,6.3108,6.2898,6.2211,6.212,6.191,6.1252,6.2276,6.3113,6.314,6.4355,6.4952,6.4214,6.5259,6.5738,6.5012,6.6084,6.6791,6.6825,6.6791,6.6791,6.6791,6.6791,6.6791,6.6791,6.6791,6.6791,6.6791,6.6791,6.6791,6.6791,6.6791,6.6791,6.6791,6.6791,6.6791,6.6791,6.6791,6.6791,6.6791,6.6791,6.6791,6.6791,6.6791,6.6791,6.6791,6.6791,6.6791,6.6791,5.0695,5.0444,5.0694,5.2282,5.4283,5.6201,5.7857,5.9612,6.1134,6.209,6.1972,6.2061,6.2748,6.2808,6.2898,6.3078,6.3108,6.3108,6.3108,6.3108,6.3108,6.3108,6.3108,6.3108,6.3108,6.3108,6.3108,6.3108,6.3108,6.3108,6.3108,6.3108,6.3108,6.3108,6.3108,6.3108,6.3108,6.3108,6.3108,6.3108,6.3108,6.3108,6.3108,6.3108,6.3108,6.3108,6.3108,6.3108,6.3108,6.3108,6.3108,6.3168,6.3588,6.3707,6.3827,6.4306,6.4545,6.4695,6.4695,6.4845,6.4904,6.4516,6.4455,6.4306,6.3827,6.3707,6.3588,6.3197,6.3108,6.3048,6.2838,6.357,6.4443,6.5244,6.527,6.587,6.7834,6.7161,6.6743,6.751,6.7948,6.8103,6.7868,6.7668,6.7827,6.8368,6.7895,6.7354,6.6825,6.6791,6.6791,6.6791,6.6791,6.6791,6.6791,6.6791,6.6791,6.6791,6.6791,6.6791,6.6791,6.6791,6.6791,6.6791,6.6791,6.6791,6.6791,6.6791,6.6791,6.6791,6.6791,6.6791,6.6791,6.6791,6.6791,6.6791,5.1222,5.0996,5.1278,5.2917,5.4855,5.6705,5.8087,5.9906,6.1313,6.185,6.2002,6.2241,6.266,6.2958,6.3108,6.3108,6.3108,6.3108,6.3108,6.3108,6.3108,6.3108,6.3108,6.3108,6.3108,6.3108,6.3108,6.3108,6.3108,6.3108,6.3108,6.3108,6.3108,6.3108,6.3108,6.3108,6.3108,6.3108,6.3108,6.3108,6.3108,6.3108,6.3108,6.3108,6.3108,6.3108,6.3108,6.3108,6.3108,6.3108,6.3257,6.3527,6.3887,6.4186,6.4485,6.4874,6.5174,6.5383,6.5383,6.5562,6.5802,6.5802,6.5383,6.4874,6.4515,6.4425,6.4216,6.3588,6.3438,6.3407,6.3138,6.3761,6.4758,6.6154,6.6485,6.7285,6.9503,6.9148,6.8895,6.9465,6.9553,6.9417,6.9147,6.8673,6.8436,6.8605,6.8166,6.759,6.6825,6.6791,6.6791,6.6791,6.6791,6.6791,6.6791,6.6791,6.6791,6.6791,6.6791,6.6791,6.6791,6.6791,6.6791,6.6791,6.6791,6.6791,6.6791,6.6791,6.6791,6.6791,6.6791,6.6791,6.6791,6.6791,6.6791,6.6791,5.1423,5.1398,5.1895,5.3559,5.5266,5.6703,5.7713,5.9819,6.1074,6.0446,6.1433,6.2181,6.2181,6.272,6.3108,6.3108,6.3108,6.3108,6.3108,6.3108,6.3108,6.3108,6.3108,6.3108,6.3108,6.3108,6.3108,6.3108,6.3108,6.3108,6.3108,6.3108,6.3108,6.3108,6.3108,6.3108,6.3108,6.3108,6.3108,6.3108,6.3108,6.3108,6.3108,6.3108,6.3108,6.3108,6.3108,6.3108,6.3108,6.3108,6.3467,6.3917,6.3977,6.4425,6.4934,6.5054,6.5503,6.6011,6.6071,6.655,6.6999,6.6999,6.6101,6.5144,6.5084,6.5084,6.4964,6.4392,6.43,6.4149,6.3632,6.3654,6.4132,6.5274,6.6516,6.7849,6.9217,7.0379,7.0906,7.0364,7.0319,7.0026,6.935,6.9316,6.8944,6.8064,6.8064,6.7793,6.7028,6.6994,6.6994,6.6994,6.6927,6.6893,6.6893,6.6825,6.6791,6.6791,6.6791,6.6791,6.6791,6.6791,6.6791,6.6791,6.6791,6.6791,6.6791,6.6791,6.6791,6.6791,6.6791,6.6791,6.6791,6.6791,6.6791,6.6791,5.2477,5.2226,5.2438,5.4059,5.6178,5.7958,5.8945,6.1144,6.26,6.2479,6.2718,6.2898,6.2898,6.3018,6.3108,6.3108,6.3108,6.3108,6.3108,6.3108,6.3108,6.3108,6.3108,6.3108,6.3108,6.3108,6.3108,6.3108,6.3108,6.3108,6.3108,6.3108,6.3108,6.3108,6.3108,6.3108,6.3108,6.3108,6.3108,6.3108,6.3108,6.3108,6.3108,6.3108,6.3108,6.3108,6.3108,6.3108,6.3108,6.3108,6.3197,6.3407,6.3857,6.4096,6.4425,6.5473,6.5892,6.6131,6.664,6.6879,6.6999,6.6999,6.6789,6.643,6.5922,6.5772,6.5921,6.6414,6.6517,6.6635,6.7099,6.8048,6.8647,6.8346,6.8577,6.9241,7.0643,7.017,7.0033,7.0963,7.1075,7.1007,7.0816,7.0816,7.0263,6.8944,6.935,6.9383,6.8639,6.8605,6.8605,6.8605,6.7996,6.7658,6.7658,6.7096,6.6791,6.6791,6.6791,6.6791,6.6791,6.6791,6.6791,6.6791,6.6791,6.6791,6.6791,6.6791,6.6791,6.6791,6.6791,6.6791,6.6791,6.6791,6.6791,6.6791,5.2845,5.2669,5.2996,5.4636,5.6638,5.8348,5.9375,6.1556,6.2988,6.266,6.2898,6.3108,6.3108,6.3108,6.3108,6.3108,6.3108,6.3108,6.3108,6.3108,6.3108,6.3108,6.3108,6.3108,6.3108,6.3108,6.3108,6.3108,6.3108,6.3108,6.3108,6.3108,6.3108,6.3108,6.3108,6.3108,6.3108,6.3108,6.3108,6.3108,6.3108,6.3108,6.3108,6.3108,6.3108,6.3108,6.3108,6.3108,6.3108,6.3108,6.3287,6.3558,6.3887,6.4216,6.4605,6.5323,6.5503,6.5652,6.634,6.652,6.661,6.6909,6.6999,6.6909,6.655,6.649,6.6493,6.6629,6.7196,6.7685,6.7764,6.8652,6.9449,6.968,6.9415,6.968,7.1098,7.0676,7.0482,7.1222,7.1289,7.1289,7.1289,7.1289,7.0816,6.9722,6.9958,6.9857,6.9147,6.9113,6.9113,6.9113,6.8335,6.7895,6.7895,6.7184,6.6791,6.6791,6.6791,6.6791,6.6791,6.6791,6.6791,6.6791,6.6791,6.6791,6.6791,6.6791,6.6791,6.6791,6.6791,6.6791,6.6791,6.6791,6.6791,6.6791,5.2895,5.2895,5.3325,5.4742,5.6402,5.7937,5.9068,6.1174,6.2551,6.2302,6.2748,6.3108,6.3108,6.3108,6.3108,6.3108,6.3108,6.3108,6.3108,6.3108,6.3108,6.3108,6.3108,6.3108,6.3108,6.3108,6.3108,6.3108,6.3108,6.3108,6.3108,6.3108,6.3108,6.3108,6.3108,6.3108,6.3108,6.3108,6.3108,6.3108,6.3108,6.3108,6.3108,6.3108,6.3108,6.3108,6.3108,6.3108,6.3108,6.3108,6.3408,6.3827,6.3827,6.4246,6.4695,6.4785,6.4815,6.4964,6.5652,6.5832,6.5981,6.652,6.6729,6.6819,6.6819,6.6909,6.6911,6.6613,6.7529,6.8287,6.8131,6.8585,6.936,7.0484,7.0148,7.0106,7.1154,7.1289,7.1289,7.1289,7.1289,7.1289,7.1289,7.1289,7.1075,7.0432,7.0398,7.0128,6.9519,6.9485,6.9485,6.9485,6.8707,6.8301,6.8301,6.7557,6.7096,6.7015,6.7015,6.6927,6.6791,6.6791,6.6791,6.6791,6.6791,6.6791,6.6791,6.6791,6.6791,6.6791,6.6791,6.6791,6.6791,6.6791,6.6791,6.6791,5.2895,5.2895,5.2964,5.3213,5.4608,5.6283,5.793,5.9723,6.1348,6.2785,6.3048,6.3108,6.3108,6.3108,6.3108,6.3108,6.3108,6.3108,6.3108,6.3108,6.3108,6.3108,6.3108,6.3108,6.3108,6.3108,6.3108,6.3108,6.3108,6.3108,6.3108,6.3108,6.3108,6.3108,6.3108,6.3108,6.3108,6.3108,6.3108,6.3108,6.3108,6.3108,6.3108,6.3108,6.3108,6.3108,6.3108,6.3108,6.3108,6.3108,6.3168,6.3227,6.3227,6.3287,6.3438,6.3977,6.4126,6.4276,6.4934,6.5144,6.5144,6.5233,6.5682,6.6131,6.6131,6.658,6.7336,6.8526,6.8933,6.9597,7.1357,7.1778,7.1903,7.2068,7.2007,7.1806,7.1368,7.1289,7.1289,7.1289,7.1289,7.1289,7.1289,7.1289,7.1255,7.1176,7.1154,7.1109,7.0985,7.0985,7.0985,7.0985,7.0263,6.9913,6.9913,6.9147,6.8436,6.776,6.776,6.7421,6.6791,6.6791,6.6791,6.6791,6.6791,6.6791,6.6791,6.6791,6.6791,6.6791,6.6791,6.6791,6.6791,6.6791,6.6791,6.6791,5.2895,5.2895,5.2895,5.2895,5.4299,5.601,5.7751,5.9413,6.1139,6.2875,6.3108,6.3108,6.3108,6.3108,6.3108,6.3108,6.3108,6.3108,6.3108,6.3108,6.3108,6.3108,6.3108,6.3108,6.3108,6.3108,6.3108,6.3108,6.3108,6.3108,6.3108,6.3108,6.3108,6.3108,6.3108,6.3108,6.3108,6.3108,6.3108,6.3108,6.3108,6.3108,6.3108,6.3108,6.3108,6.3108,6.3108,6.3108,6.3108,6.3108,6.3108,6.3108,6.3108,6.3108,6.3168,6.3437,6.3527,6.3617,6.4276,6.4455,6.4516,6.4904,6.5203,6.5443,6.5443,6.5652,6.6252,6.7667,6.9288,7.0715,7.1669,7.2488,7.3156,7.3553,7.2597,7.1819,7.1921,7.1582,7.1289,7.1289,7.1289,7.1289,7.1289,7.1289,7.1289,7.1289,7.1289,7.1289,7.1289,7.1289,7.1289,7.1289,7.0567,7.0217,7.0217,6.9451,6.891,6.8571,6.8098,6.7523,6.6791,6.6791,6.6791,6.6791,6.6791,6.6791,6.6791,6.6791,6.6791,6.6791,6.6791,6.6791,6.6791,6.6791,6.6791,6.6791]},{"header":{"parameterUnit":"m.s-1","parameterCategory":1,"la1":30.6,"la2":28.766,"lo1":-90.7593,"lo2":-88.6598,"dx":0.0162,"dy":0.0183,"nx":116,"ny":114,"refTime":"2023-01-07T18:00:00:Z","depth":0,"parameterNumber":3,"parameterNumberName":"V-component_of_WINDS"},"data":[0.0,0.0,0.0,0.0,0.0,0.0,0.0,0.0,0.0,0.0,0.0,0.0,0.0,0.0,0.0,0.0,0.0,0.0,0.0,0.0,0.0,0.0,0.0,0.0,0.0,0.0,0.0,0.0,0.0,0.0,0.0,0.0,0.0,0.0,0.0,0.0,0.0,0.0,0.0,0.0,0.0,0.0,0.0,0.0,0.0,0.0,0.0,0.0,0.0,0.0,0.0,0.0,0.0,0.0,0.0,0.0,0.0,0.0,0.0,0.0,0.0,0.0,0.0,0.0,0.0,0.0,0.0,0.0,0.0,0.0,0.0,0.0,0.0,0.0,0.0,0.0,0.0,0.0,0.0,0.0,0.0,0.0,0.0,0.0,0.0,0.0,0.0,0.0,0.0,0.0,0.0,0.0,0.0,0.0,0.0,0.0,0.0,0.0,0.0,0.0,0.0,0.0,0.0,0.0,0.0,0.0,0.0,0.0,0.0,0.0,0.0,0.0,0.0,0.0,0.0,0.0,0.0,0.0,0.0,0.0,0.0,0.0,0.0,0.0,0.0,0.0,0.0,0.0,0.0,0.0,0.0,0.0,0.0,0.0,0.0,0.0,0.0,0.0,0.0,0.0,0.0,0.0,0.0,0.0,0.0,0.0,0.0,0.0,0.0,0.0,0.0,0.0,0.0,0.0,0.0,0.0,0.0,0.0,0.0,0.0,0.0,0.0,0.0,0.0,0.0,0.0,0.0,0.0,0.0,0.0,0.0,0.0,0.0,0.0,0.0,0.0,0.0,0.0,0.0,0.0,0.0,0.0,0.0,0.0,0.0,0.0,0.0,0.0,0.0,0.0,0.0,0.0,0.0,0.0,0.0,0.0,0.0,0.0,0.0,0.0,0.0,0.0,0.0,0.0,0.0,0.0,0.0,0.0,0.0,0.0,0.0,0.0,0.0,0.0,0.0,0.0,0.0,0.0,0.0,0.0,0.0,0.0,0.0,0.0,0.0,0.0,0.0,0.0,0.0,0.0,0.0,0.0,0.0,0.0,0.0,0.0,0.0,0.0,0.0,0.0,0.0,0.0,0.0,0.0,0.0,0.0,0.0,0.0,0.0,0.0,0.0,0.0,0.0,0.0,0.0,0.0,0.0,0.0,0.0,0.0,0.0,0.0,0.0,0.0,0.0,0.0,0.0,0.0,0.0,0.0,0.0,0.0,0.0,0.0,0.0,0.0,0.0,0.0,0.0,0.0,0.0,0.0,0.0,0.0,0.0,0.0,0.0,0.0,0.0,0.0,0.0,0.0,0.0,0.0,0.0,0.0,0.0,0.0,0.0,0.0,0.0,0.0,0.0,0.0,0.0,0.0,0.0,0.0,0.0,0.0,0.0,0.0,0.0,0.0,0.0,0.0,0.0,0.0,0.0,0.0,0.0,0.0,0.0,0.0,0.0,0.0,0.0,0.0,0.0,0.0,0.0,0.0,0.0,0.0,0.0,0.0,0.0,0.0,0.0,0.0,0.0,0.0,0.0,0.0,0.0,0.0,0.0,0.0,0.0,0.0,0.0,0.0,0.0,0.0,0.0,0.0,0.0,0.0,0.0,0.0,0.0,0.0,0.0,0.0,0.0,0.0,0.0,0.0,0.0,0.0,0.0,0.0,0.0,0.0,0.0,0.0,0.0,0.0,0.0,0.0,0.0,0.0,0.0,0.0,0.0,0.0,0.0,0.0,0.0,0.0,0.0,0.0,0.0,0.0,0.0,0.0,0.0,0.0,0.0,0.0,0.0,0.0,0.0,0.0,0.0,0.0,0.0,0.0,0.0,0.0,0.0,0.0,0.0,0.0,0.0,0.0,0.0,0.0,0.0,0.0,0.0,0.0,0.0,0.0,0.0,0.0,0.0,0.0,0.0,0.0,0.0,0.0,0.0,0.0,0.0,0.0,0.0,0.0,0.0,0.0,0.0,0.0,0.0,0.0,0.0,0.0,0.0,0.0,0.0,0.0,0.0,0.0,0.0,0.0,0.0,0.0,0.0,0.0,0.0,0.0,0.0,0.0,0.0,0.0,0.0,0.0,0.0,0.0,0.0,0.0,0.0,0.0,0.0,0.0,0.0,0.0,0.0,0.0,0.0,0.0,0.0,0.0,0.0,0.0,0.0,0.0,0.0,0.0,0.0,0.0,0.0,0.0,0.0,0.0,0.0,0.0,0.0,0.0,0.0,0.0,0.0,0.0,0.0,0.0,0.0,0.0,0.0,0.0,0.0,0.0,0.0,0.0,0.0,0.0,0.0,0.0,0.0,0.0,0.0,0.0,0.0,0.0,0.0,0.0,0.0,0.0,0.0,0.0,0.0,0.0,0.0,0.0,0.0,0.0,0.0,0.0,0.0,0.0,0.0,0.0,0.0,0.0,0.0,0.0,0.0,0.0,0.0,0.0,0.0,0.0,0.0,0.0,0.0,0.0,0.0,0.0,0.0,0.0,0.0,0.0,0.0,0.0,0.0,0.0,0.0,0.0,0.0,0.0,0.0,0.0,0.0,0.0,0.0,0.0,0.0,0.0,0.0,0.0,0.0,0.0,0.0,0.0,0.0,0.0,0.0,0.0,0.0,0.0,0.0,0.0,0.0,0.0,0.0,0.0,0.0,0.0,0.0,0.0,0.0,0.0,0.0,0.0,0.0,0.0,0.0,0.0,0.0,0.0,0.0,0.0,0.0,0.0,0.0,0.0,0.0,0.0,0.0,0.0,0.0,0.0,0.0,0.0,0.0,0.0,0.0,0.0,0.0,0.0,0.0,0.0,0.0,0.0,0.0,0.0,0.0,0.0,0.0,0.0,0.0,0.0,0.0,0.0,0.0,0.0,0.0,0.0,0.0,0.0,0.0,0.0,0.0,0.0,0.0,0.0,0.0,0.0,0.0,0.0,0.0,0.0,0.0,0.0,0.0,0.0,0.0,0.0,0.0,0.0,0.0,0.0,0.0,0.0,0.0,0.0,0.0,0.0,0.0,0.0,0.0,0.0,0.0,0.0,0.0,0.0,0.0,0.0,0.0,0.0,0.0,0.0,0.0,0.0,0.0,0.0,0.0,0.0,0.0,0.0,0.0,0.0,0.0,0.0,0.0,0.0,0.0,0.0,0.0,0.0,0.0,0.0,0.0,0.0,0.0,0.0,0.0,0.0,0.0,0.0,0.0,0.0,0.0,0.0,0.0,0.0,0.0,0.0,0.0,0.0,0.0,0.0,0.0,0.0,0.0,0.0,0.0,0.0,0.0,0.0,0.0,0.0,0.0,0.0,0.0,0.0,0.0,0.0,0.0,0.0,0.0,0.0,0.0,0.0,0.0,0.0,0.0,0.0,0.0,0.0,0.0,0.0,0.0,0.0,0.0,0.0,0.0,0.0,0.0,0.0,0.0,0.0,0.0,0.0,0.0,0.0,0.0,0.0,0.0,0.0,0.0,0.0,0.0,0.0,0.0,0.0,0.0,0.0,0.0,0.0,0.0,0.0,0.0,0.0,0.0,0.0,0.0,0.0,0.0,0.0,0.0,0.0,0.0,0.0,0.0,0.0,0.0,0.0,0.0,0.0,0.0,0.0,0.0,0.0,0.0,0.0,0.0,0.0,0.0,0.0,0.0,0.0,0.0,0.0,0.0,0.0,0.0,0.0,0.0,0.0,0.0,0.0,0.0,0.0,0.0,0.0,0.0,0.0,0.0,0.0,0.0,0.0,0.0,0.0,0.0,0.0,0.0,0.0,0.0,0.0,0.0,0.0,0.0,0.0,0.0,0.0,0.0,0.0,0.0,0.0,0.0,0.0,0.0,0.0,0.0,0.0,0.0,0.0,0.0,0.0,0.0,0.0,0.0,0.0,0.0,0.0,0.0,0.0,0.0,0.0,0.0,0.0,0.0,0.0,0.0,0.0,0.0,0.0,0.0,0.0,0.0,0.0,0.0,0.0,0.0,0.0,0.0,0.0,0.0,0.0,0.0,0.0,0.0,0.0,0.0,0.0,0.0,0.0,0.0,0.0,0.0,0.0,0.0,0.0,0.0,0.0,0.0,0.0,0.0,0.0,0.0,0.0,0.0,0.0,0.0,0.0,0.0,0.0,0.0,0.0,0.0,0.0,0.0,0.0,0.0,0.0,0.0,0.0,0.0,0.0,0.0,0.0,0.0,0.0,0.0,0.0,0.0,0.0,0.0,0.0,0.0,0.0,0.0,0.0,0.0,0.0,0.0,0.0,0.0,0.0,0.0,0.0,0.0,0.0,0.0,0.0,0.0,0.0,0.0,0.0,0.0,0.0,0.0,0.0,0.0,0.0,0.0,0.0,0.0,0.0,0.0,0.0,0.0,0.0,0.0,0.0,0.0,0.0,0.0,0.0,0.0,0.0,0.0,0.0,0.0,0.0,0.0,0.0,0.0,0.0,0.0,0.0,0.0,0.0,0.0,0.0,0.0,0.0,0.0,0.0,0.0,0.0,0.0,0.0,0.0,0.0,0.0,0.0,0.0,0.0,0.0,0.0,0.0,0.0,0.0,0.0,0.0,0.0,0.0,0.0,0.0,0.0,0.0,0.0,0.0,0.0,0.0,0.0,0.0,0.0,0.0,0.0,0.0,0.0,0.0,0.0,0.0,0.0,0.0,0.0,0.0,0.0,0.0,0.0,0.0,0.0,0.0,0.0,0.0,0.0,0.0,0.0,0.0,0.0,0.0,0.0,0.0,0.0,0.0,0.0,0.0,0.0,0.0,0.0,0.0,0.0,0.0,0.0,0.0,0.0,0.0,0.0,0.0,0.0,0.0,0.0,0.0,0.0,0.0,0.0,0.0,0.0,0.0,0.0,0.0,0.0,0.0,0.0,0.0,0.0,0.0,0.0,0.0,0.0,0.0,0.0,0.0,0.0,0.0,0.0,0.0,0.0,0.0,0.0,0.0,0.0,0.0,0.0,0.0,0.0,0.0,0.0,0.0,0.0,0.0,0.0,0.0,0.0,0.0,0.0,0.0,0.0,0.0,0.0,0.0,0.0,0.0,0.0,0.0,0.0,0.0,0.0,0.0,0.0,0.0,0.0,0.0,0.0,0.0,0.0,0.0,0.0,0.0,0.0,0.0,0.0,0.0,0.0,0.0,0.0,0.0,0.0,0.0,0.0,0.0,0.0,0.0,0.0,0.0,0.0,0.0,0.0,0.0,0.0,0.0,0.0,0.0,0.0,0.0,0.0,0.0,0.0,0.0,0.0,0.0,0.0,0.0,0.0,0.0,0.0,0.0,0.0,0.0,0.0,0.0,0.0,0.0,0.0,0.0,0.0,0.0,0.0,0.0,0.0,0.0,0.0,0.0,0.0,0.0,0.0,0.0,0.0,0.0,0.0,0.0,0.0,0.0,0.0,0.0,0.0,0.0,0.0,0.0,0.0,0.0,0.0,0.0,0.0,0.0,0.0,0.0,0.0,0.0,0.0,0.0,0.0,0.0,0.0,0.0,0.0,0.0,0.0,0.0,0.0,0.0,0.0,0.0,0.0,0.0,0.0,0.0,0.0,0.0,0.0,0.0,0.0,0.0,0.0,0.0,0.0,0.0,0.0,0.0,0.0,0.0,0.0,0.0,0.0,0.0,0.0,0.0,0.0,0.0,0.0,0.0,0.0,0.0,0.0,0.0,0.0,0.0,0.0,0.0,0.0,0.0,0.0,0.0,0.0,0.0,0.0,0.0,0.0,0.0,0.0,0.0,0.0,0.0,0.0,0.0,0.0,0.0,0.0,0.0,0.0,0.0,0.0,0.0,0.0,0.0,0.0,0.0,0.0,0.0,0.0,0.0,0.0,0.0,0.0,0.0,0.0,0.0,0.0,0.0,0.0,0.0,0.0,0.0,0.0,0.0,0.0,0.0,0.0,0.0,0.0,0.0,0.0,0.0,0.0,0.0,0.0,0.0,0.0,0.0,0.0,0.0,0.0,0.0,0.0,0.0,0.0,0.0,0.0,0.0,0.0,0.0,0.0,0.0,0.0,0.0,0.0,0.0,0.0,0.0,0.0,0.0,0.0,0.0,0.0,0.0,0.0,0.0,0.0,0.0,0.0,0.0,0.0,0.0,0.0,0.0,0.0,0.0,0.0,2.1426,0.0,0.0,0.0,0.0,0.0,0.0,0.0,0.0,0.0,0.0,0.0,0.0,0.0,0.0,0.0,0.0,0.0,0.0,0.0,0.0,0.0,0.0,0.0,0.0,1.3643,1.3853,1.4425,1.4475,0.0,0.0,0.0,0.0,0.0,0.0,0.0,0.0,0.0,1.3442,1.4795,1.5081,1.6497,1.8957,1.8077,1.7107,1.604,0.0,0.0,0.0,0.0,0.0,0.0,0.0,0.0,0.0,0.0,0.0,0.0,0.0,0.0,0.0,0.0,0.0,0.0,0.0,0.0,0.0,0.0,0.0,0.0,0.0,0.0,0.0,0.0,0.0,0.0,0.0,0.0,0.0,0.0,0.0,0.0,0.0,0.0,0.0,0.0,0.0,0.0,0.0,0.0,0.0,0.0,0.0,0.0,0.0,0.0,0.0,0.0,0.0,0.0,0.0,0.0,0.0,0.0,0.0,0.0,0.0,0.0,0.0,0.0,0.0,0.0,0.0,0.0,0.0,0.0,0.0,2.2207,0.0,0.0,0.0,0.0,0.0,0.0,0.0,0.0,0.0,0.0,0.0,0.0,0.0,0.0,0.0,0.0,0.0,0.0,0.0,0.0,0.0,1.3559,1.4056,1.4182,1.4459,1.4984,1.5044,1.5044,1.5044,1.4551,0.0,0.0,0.0,0.0,1.4081,1.4283,1.516,1.6812,1.7978,1.9485,2.1295,2.1733,2.0715,1.8467,1.6694,0.0,0.0,0.0,0.0,0.0,0.0,0.0,0.0,0.0,0.0,0.0,0.0,0.0,0.0,0.0,0.0,0.0,0.0,0.0,0.0,0.0,0.0,0.0,0.0,0.0,0.0,0.0,0.0,0.0,0.0,0.0,0.0,0.0,0.0,0.0,0.0,0.0,0.0,0.0,0.0,0.0,0.0,0.0,0.0,0.0,0.0,0.0,0.0,0.0,0.0,0.0,0.0,0.0,0.0,0.0,0.0,0.0,0.0,0.0,0.0,0.0,0.0,0.0,0.0,2.4043,2.4085,2.4085,2.4824,2.6089,2.4691,2.4746,2.562,0.0,0.0,0.0,0.0,0.0,0.0,0.0,0.0,0.0,0.0,0.0,0.0,0.0,0.0,0.0,0.0,0.0,0.0,0.0,0.0,1.4006,1.4081,1.4525,1.5009,1.5552,1.5593,1.5593,1.5593,1.5085,0.0,0.0,0.0,1.4031,1.4116,1.5009,1.6306,1.7966,2.1443,2.3276,2.3567,2.3627,2.3477,2.3025,2.0893,1.995,1.9786,0.0,0.0,0.0,0.0,0.0,0.0,0.0,0.0,0.0,0.0,0.0,0.0,0.0,0.0,0.0,0.0,0.0,0.0,0.0,0.0,0.0,0.0,0.0,0.0,0.0,0.0,0.0,0.0,0.0,0.0,0.0,0.0,0.0,0.0,0.0,0.0,0.0,0.0,0.0,0.0,0.0,2.0742,2.0839,0.0,0.0,0.0,0.0,0.0,0.0,0.0,0.0,0.0,0.0,0.0,0.0,0.0,0.0,2.3714,2.4801,2.5562,2.5977,2.709,2.7617,2.7617,2.7617,2.7734,2.7949,2.7715,0.0,2.625,2.5445,0.0,0.0,0.0,0.0,0.0,0.0,0.0,0.0,0.0,0.0,0.0,0.0,0.0,0.0,0.0,0.0,0.0,0.0,0.0,0.0,0.0,1.5965,1.6633,1.7489,1.7827,1.7752,1.7149,1.6608,0.0,0.0,1.4702,1.4692,1.4984,1.6382,1.8832,2.2372,2.4723,2.6356,2.7268,2.7268,2.7092,2.6698,2.541,2.3467,2.1069,1.9786,0.0,0.0,0.0,0.0,0.0,0.0,0.0,0.0,0.0,0.0,0.0,0.0,0.0,0.0,0.0,0.0,0.0,0.0,0.0,0.0,0.0,0.0,0.0,0.0,0.0,0.0,0.0,0.0,0.0,0.0,0.0,0.0,0.0,0.0,0.0,0.0,0.0,0.0,0.0,1.9727,2.0566,2.084,2.0527,2.0117,0.0,0.0,0.0,0.0,0.0,0.0,0.0,0.0,0.0,2.4504,2.4844,2.5434,2.6309,2.6894,2.7266,2.7461,2.8027,2.8301,2.8301,2.8301,2.8301,2.8301,2.8301,2.7969,2.7383,2.6484,2.515,2.3602,0.0,0.0,0.0,0.0,0.0,1.9542,0.0,0.0,0.0,0.0,0.0,0.0,0.0,0.0,0.0,0.0,0.0,0.0,1.6619,1.7693,1.8618,1.9371,1.9811,1.9698,1.8882,1.8065,1.716,1.6181,1.5477,1.5361,1.5894,1.838,2.1845,2.6239,2.7386,2.8592,2.9804,2.9804,2.9553,2.9107,2.8725,2.6465,2.2914,2.1934,2.0728,1.9346,0.0,0.0,0.0,0.0,0.0,0.0,0.0,0.0,0.0,0.0,0.0,0.0,0.0,0.0,0.0,0.0,0.0,0.0,0.0,0.0,0.0,0.0,0.0,0.0,0.0,0.0,0.0,0.0,0.0,0.0,0.0,0.0,0.0,0.0,0.0,0.0,0.0,2.0547,2.1269,2.1387,2.1623,2.1388,0.0,0.0,0.0,0.0,0.0,0.0,2.3923,2.4277,2.5059,2.6323,2.6699,2.7324,2.8281,2.8398,2.8457,2.8457,2.8601,2.8613,2.8613,2.8613,2.8613,2.8613,2.8613,2.8613,2.8535,2.7363,2.6562,2.5952,2.5117,2.3831,2.2552,2.366,2.3262,2.2586,0.0,0.0,0.0,0.0,0.0,0.0,0.0,0.0,0.0,0.0,0.0,1.8045,1.7426,1.944,2.0765,2.0646,2.0641,2.0616,2.0566,1.907,1.7903,1.7348,1.6256,1.5919,1.645,2.1217,2.5109,2.7971,2.9101,2.9704,2.9804,2.9804,2.9779,2.9754,2.9748,2.8718,2.6884,2.4732,2.3436,2.2569,1.9422,0.0,0.0,0.0,0.0,0.0,0.0,0.0,0.0,0.0,0.0,0.0,0.0,0.0,0.0,0.0,0.0,0.0,0.0,0.0,0.0,0.0,0.0,0.0,0.0,0.0,0.0,0.0,0.0,0.0,0.0,0.0,0.0,0.0,0.0,0.0,0.0,0.0,0.0,2.3711,2.4359,0.0,0.0,0.0,0.0,2.3672,2.4102,2.4902,2.6152,2.6275,2.6836,2.8125,2.8184,2.8223,2.8301,2.8691,2.8859,2.8887,2.9324,2.954,2.954,2.954,2.954,2.954,2.954,2.954,2.9461,2.8555,2.7715,2.6967,2.735,2.6225,2.4659,2.7101,2.7267,2.6526,0.0,0.0,0.0,1.5697,1.4716,1.4037,1.3825,1.3946,1.4358,1.5044,1.6686,1.7945,1.8378,2.0474,2.2119,2.2768,2.3442,2.3718,2.3351,2.1443,2.0388,2.0539,1.8794,1.9246,2.2297,2.4833,2.7469,3.0206,3.0633,3.1205,3.1934,3.1934,3.1733,3.1336,3.0984,3.0306,2.9302,2.7444,2.5695,2.4048,2.2533,2.084,0.0,0.0,0.0,0.0,0.0,0.0,0.0,0.0,0.0,0.0,0.0,0.0,0.0,0.0,0.0,0.0,0.0,0.0,0.0,0.0,0.0,0.0,0.0,0.0,0.0,0.0,0.0,0.0,0.0,0.0,0.0,0.0,0.0,0.0,0.0,0.0,0.0,2.4258,2.4961,0.0,0.0,2.4883,2.5469,2.5469,2.6367,2.7109,2.7598,2.7871,2.8223,2.8672,2.8965,2.9149,2.9149,2.9285,2.9336,2.9336,2.952,2.9598,2.9598,2.9598,2.9598,2.9598,2.9598,2.9598,2.9579,2.9266,2.8973,2.8699,2.8855,2.8474,2.7891,2.8808,2.8854,2.8588,0.0,0.0,0.0,1.5697,1.4735,1.402,1.3825,1.4123,1.4838,1.616,1.8059,1.9582,2.0399,2.2724,2.4391,2.4822,2.5678,2.5862,2.5118,2.316,2.197,2.1769,2.0701,2.2182,2.6615,2.7645,2.9396,3.1984,3.1984,3.2361,3.309,3.309,3.2889,3.2491,3.2114,3.1662,3.1039,2.9779,2.8028,2.6096,2.4983,2.3326,2.1354,0.0,0.0,0.0,0.0,0.0,0.0,0.0,0.0,0.0,0.0,0.0,0.0,0.0,0.0,0.0,0.0,0.0,0.0,0.0,0.0,0.0,0.0,0.0,0.0,0.0,0.0,0.0,0.0,0.0,0.0,0.0,0.0,0.0,0.0,0.0,2.5821,2.4777,2.5776,2.6167,2.5176,2.6269,2.709,2.7226,2.8027,2.8574,2.8738,2.8984,2.9141,2.9141,2.9442,2.9598,2.9598,2.9891,3.0048,3.0048,3.0341,3.0478,3.0478,3.0478,3.0478,3.0478,3.0478,3.0478,3.0478,3.0478,3.0478,3.0439,2.9989,2.9813,2.9833,2.9989,3.0126,3.0254,0.0,0.0,1.7259,1.5767,1.4992,1.4268,1.342,1.4239,1.5617,1.7447,2.0776,2.3081,2.3401,2.6198,2.7615,2.6603,2.707,2.6919,2.5737,2.4089,2.2433,2.0867,2.1945,2.4591,2.8863,2.9603,3.0979,3.3115,3.314,3.314,3.314,3.314,3.3115,3.3115,3.3115,3.2788,3.2194,3.1662,3.0507,2.8806,2.6615,2.5385,2.4591,0.0,0.0,0.0,0.0,0.0,0.0,0.0,0.0,0.0,0.0,0.0,0.0,0.0,0.0,0.0,0.0,0.0,0.0,0.0,0.0,0.0,0.0,0.0,0.0,0.0,0.0,0.0,0.0,0.0,0.0,0.0,0.0,0.0,2.4875,2.6768,2.7634,2.5516,2.7082,2.7832,2.6582,2.7598,2.8496,2.8879,2.8918,2.9121,2.9579,2.9618,2.9618,2.9637,2.9657,2.9676,2.9676,3.0537,3.0937,3.0937,3.1807,3.2198,3.2198,3.2198,3.2198,3.2198,3.2198,3.2198,3.2198,3.2198,3.2198,3.2081,3.0762,3.0254,3.0312,3.0762,3.1191,3.1601,1.8328,1.8057,1.7598,1.6299,1.6005,1.5878,1.5629,1.5866,1.6902,1.9251,2.1111,2.2693,2.3986,2.6918,2.8336,2.7167,2.8579,2.8944,2.7523,2.5134,2.3552,2.3115,2.6816,2.9453,3.0683,3.2064,3.3068,3.3671,3.4073,3.4274,3.4248,3.3847,3.3671,3.3646,3.3266,3.3014,3.2839,3.2713,3.2114,3.114,2.9352,2.7821,2.6507,0.0,0.0,0.0,0.0,0.0,0.0,0.0,0.0,0.0,0.0,0.0,0.0,0.0,0.0,0.0,0.0,0.0,0.0,0.0,0.0,0.0,0.0,0.0,0.0,0.0,0.0,0.0,0.0,0.0,0.0,0.0,0.0,2.9009,2.8401,2.8301,2.8468,2.8844,2.8774,2.8613,2.8262,2.8855,2.9305,2.9403,2.9422,2.9481,2.9598,2.9891,3.0176,3.0508,3.082,3.1133,3.1475,3.1729,3.1846,3.1846,3.2081,3.2198,3.2198,3.2198,3.2198,3.2198,3.2198,3.2198,3.2198,3.2198,3.2198,3.2159,3.1788,3.1651,3.167,3.1807,3.1925,3.2042,1.8787,1.8476,1.8086,1.7198,1.6879,1.6682,1.6527,1.6495,1.7693,2.1007,2.223,2.3806,2.657,2.8588,2.9574,2.9214,2.9522,2.9176,2.7781,2.5378,2.4732,2.6364,2.9402,3.1512,3.2416,3.3621,3.4248,3.4248,3.4552,3.4703,3.4703,3.4377,3.4248,3.4223,3.3671,3.3442,3.3416,3.319,3.2914,3.2491,3.1557,3.0181,2.8599,2.7814,2.6892,2.5921,2.4892,2.4531,2.4431,2.3712,0.0,0.0,0.0,0.0,0.0,0.0,0.0,0.0,0.0,0.0,0.0,0.0,0.0,0.0,0.0,0.0,0.0,0.0,0.0,0.0,0.0,0.0,0.0,0.0,3.0216,3.1996,3.2769,3.1227,2.9895,2.9731,2.9756,2.9619,2.9235,2.9442,2.9676,2.9852,2.9852,3.0028,3.0371,3.0625,3.0957,3.1436,3.166,3.1914,3.2198,3.2374,3.2452,3.2452,3.2598,3.2695,3.2695,3.2695,3.2695,0.0,3.2695,3.2695,3.2695,3.2695,3.2695,0.0,0.0,0.0,0.0,0.0,3.2452,3.2492,1.9636,1.9176,1.8671,1.8255,1.7745,1.7248,1.6819,1.6772,1.8324,2.2627,2.3716,2.5713,2.9937,3.0737,3.1165,3.1757,3.0266,2.8713,2.7314,2.5653,2.6332,2.9941,3.0781,3.21,3.4142,3.4726,3.4914,3.4803,3.4853,3.4879,3.4879,3.4828,3.4803,3.4778,3.4248,3.3997,3.3947,3.3416,3.319,3.319,3.3115,3.2164,3.0663,2.9659,2.9233,2.8982,2.7562,2.7052,2.6826,2.5351,0.0,0.0,0.0,0.0,0.0,0.0,0.0,0.0,0.0,0.0,0.0,0.0,0.0,0.0,0.0,0.0,0.0,0.0,0.0,0.0,0.0,0.0,0.0,0.0,3.3407,3.5089,3.6822,3.4565,3.1925,2.9694,3.045,3.0791,2.9757,2.9755,3.0054,3.0598,3.0505,3.0849,3.1811,0.0,0.0,0.0,0.0,3.2296,3.2335,3.2676,3.2871,3.2871,3.3242,3.3386,3.3386,3.3386,3.3386,3.3386,3.3386,3.3386,3.3386,3.3476,3.3516,3.3476,3.2637,3.2335,3.2394,3.2793,3.2949,0.0,1.9127,1.9317,1.9346,1.8832,1.9002,1.9013,1.85,1.8436,1.9889,2.3907,2.4608,2.6324,3.0585,3.218,3.2626,3.1878,3.1852,3.0744,2.8089,2.8811,3.0069,3.1739,3.3624,3.5078,3.597,3.6502,3.6328,3.5332,3.583,3.6055,3.6055,3.5556,3.5332,3.5307,3.4778,3.4552,3.4502,3.3972,3.3746,3.3696,3.3266,3.2591,3.1888,3.1642,3.1311,3.0884,3.0557,3.0452,3.0401,3.0075,2.9,2.7782,2.7791,2.6654,0.0,0.0,0.0,0.0,0.0,0.0,0.0,0.0,0.0,0.0,0.0,0.0,0.0,0.0,0.0,0.0,0.0,0.0,0.0,3.2774,3.415,3.5321,3.6123,3.5695,3.4678,3.3047,3.2425,3.1574,3.0229,3.0723,3.171,3.3095,3.2314,3.2416,3.3844,3.2745,0.0,3.2656,3.2676,3.2832,3.3184,3.3262,3.3269,3.3269,0.0,0.0,3.3386,3.3386,3.3386,3.3386,3.3386,3.3386,3.3425,3.3809,3.4141,3.4375,3.3516,3.3184,3.3223,3.3672,3.386,3.3919,1.935,1.9515,1.9636,1.935,1.9515,1.9626,1.9341,1.8843,1.9852,2.3667,2.3697,2.5024,2.9283,2.9798,2.98,2.9752,2.9999,2.9588,2.8199,3.0171,3.2169,3.3887,3.498,3.5981,3.688,3.6884,3.6828,3.6808,3.7088,3.7266,3.724,3.6959,3.6808,3.6782,3.6261,3.6003,3.5977,3.5428,3.502,3.4628,3.381,3.3462,3.3389,3.2853,3.2466,3.221,3.1913,3.1813,3.1763,3.1486,3.0834,3.0156,3.0156,2.9227,2.7814,0.0,0.0,0.0,0.0,0.0,0.0,0.0,0.0,0.0,0.0,0.0,0.0,0.0,0.0,2.8133,0.0,0.0,3.3221,3.5301,3.6186,3.6798,3.7362,3.7681,3.6675,3.349,3.4188,3.4175,3.2232,3.2624,3.3667,3.528,3.3411,3.2985,3.4777,3.3356,3.2773,3.3418,3.3469,3.3633,3.4062,3.4062,3.4062,3.4062,3.4062,3.4062,3.4062,3.4062,3.4062,3.4062,3.4062,3.4062,3.4082,3.4297,3.4512,3.4668,3.4219,3.4062,3.4082,3.4297,3.4394,3.4414,1.9708,1.9708,1.9708,1.9708,1.9708,1.9672,1.9551,1.8798,1.9437,2.2767,2.2431,2.3446,2.7538,2.6806,2.6397,2.7342,2.8027,2.8445,2.8445,3.1403,3.4059,3.6022,3.638,3.6914,3.7798,3.7557,3.7632,3.8107,3.8334,3.8446,3.8446,3.8446,3.8446,3.842,3.8012,3.7688,3.7413,3.7115,3.6566,3.5779,3.4794,3.4654,3.491,3.3844,3.3291,3.304,3.2541,3.2365,3.2315,3.1884,3.1733,3.1733,3.1733,3.1155,3.01,2.8316,2.7788,0.0,0.0,0.0,0.0,0.0,0.0,0.0,0.0,0.0,2.7331,2.9119,2.9539,3.0526,3.3515,3.414,3.5083,3.7741,3.8266,3.8542,3.9145,3.9672,3.8441,3.4202,3.6131,3.6928,3.4697,3.4588,3.5429,3.7343,3.4756,3.4054,3.6299,3.4994,3.4349,3.4687,3.4707,3.4692,3.4687,3.4707,3.4707,3.4707,3.4707,3.4707,3.4707,3.4707,3.4707,3.4707,3.4707,3.4746,3.4824,3.4824,3.4883,3.4961,3.4961,3.4961,3.4941,3.4863,3.4824,3.4844,1.9708,1.9708,1.9708,1.9708,1.9708,1.9533,1.9052,1.8893,1.96,2.1799,2.1975,2.3175,2.6511,2.626,2.5977,2.6336,2.9045,3.0428,2.9656,3.4012,3.7014,3.7883,3.9407,4.0027,3.9623,4.0519,4.0074,3.8107,3.9161,3.9689,3.9689,3.9689,3.9689,3.9689,3.9634,3.9008,3.8043,3.8532,3.8082,3.7069,3.6454,3.626,3.6186,3.4968,3.3922,3.309,3.3014,3.3014,3.2989,3.2939,3.2914,3.2914,3.2914,3.2839,3.2311,3.015,2.9522,2.8907,2.6136,2.5707,0.0,2.8399,2.8199,2.8894,0.0,0.0,3.2359,3.489,3.5823,3.627,3.6691,3.7141,3.7766,3.8642,3.922,3.9697,4.0249,4.0775,4.0434,3.8568,3.8698,3.8301,3.6718,3.5703,3.6368,3.9424,3.7506,3.7523,4.0516,3.9674,3.8426,3.698,3.6937,3.6211,3.4687,3.4707,3.4707,3.4707,3.4707,3.4707,3.4707,3.4707,3.4707,3.4707,3.4707,3.4941,3.5312,3.5312,3.5527,3.5845,3.5845,3.5845,3.582,3.5449,3.5312,3.5371,1.9708,1.9708,1.9708,1.9708,1.9708,1.9515,1.8977,1.864,1.8974,2.0482,2.0395,2.1095,2.3422,2.2856,2.2472,2.2893,2.7118,2.9356,2.8412,3.4792,3.848,3.82,3.9522,4.0471,4.0894,4.0703,4.0468,4.0139,4.0661,4.0894,4.0894,4.0894,4.0894,4.0894,4.0894,4.0253,3.92,4.0117,3.964,3.819,3.801,3.776,3.7313,3.6201,3.5043,3.3947,3.3316,3.2663,0.0,3.2889,3.2864,3.2742,3.3721,3.337,3.234,3.1085,3.0507,3.0306,3.0407,3.0025,0.0,0.0,3.2122,3.245,3.4867,3.4556,3.4324,3.6412,3.7034,3.7411,3.8065,3.8366,3.8793,0.0,4.0023,4.0349,4.0901,4.148,4.1588,4.0991,4.1179,4.0671,3.8878,3.8768,3.9755,4.2046,3.9951,3.9572,4.1822,4.0639,3.969,3.9163,3.8167,3.7413,3.695,3.595,3.5469,3.5469,3.5469,3.5469,3.5469,3.5469,3.5469,3.5469,3.5469,3.5586,3.5762,3.5762,3.5859,3.5982,3.5982,3.5982,3.5962,3.582,3.5762,3.5781,1.9708,1.9708,1.9708,1.9708,1.9708,1.947,1.8788,1.8495,1.8571,1.9272,1.9139,1.9459,2.069,2.0231,2.0078,2.0609,2.526,2.8133,2.7997,3.5013,3.9016,3.8652,4.0055,4.1063,4.1587,4.1085,4.1085,4.1587,4.1926,4.207,4.207,4.207,4.207,4.207,4.207,4.142,4.0447,4.1414,4.0969,3.9641,3.9515,3.9292,3.8894,3.7332,3.5805,3.4332,3.3071,3.211,3.1411,3.1658,3.1537,3.1491,3.2721,3.2369,3.1461,3.106,3.0583,3.0512,3.229,0.0,0.0,3.4101,3.4851,3.5203,3.5378,3.538,3.578,3.7136,3.7562,3.7914,3.8743,3.9145,3.9597,4.0349,4.0777,4.1103,4.1478,4.206,4.2489,4.2612,4.2989,4.2722,4.1379,4.1364,4.2122,4.3901,4.2006,4.1473,4.3083,4.1766,4.0887,4.0684,3.8981,3.8032,3.7888,3.664,3.5982,3.5982,3.5982,3.5982,3.5982,3.5982,3.5982,3.5982,3.5982,3.5982,3.5982,3.5982,3.5982,3.5982,3.5982,3.5982,3.5982,3.5982,3.5982,3.5982,1.9708,1.9708,1.9708,1.9708,1.9708,1.9341,1.8278,1.8549,1.8725,1.8293,1.8694,1.9033,1.9083,1.9632,2.0213,2.0743,2.4313,2.7451,2.9585,3.5028,3.8629,3.9697,4.1971,4.2719,4.1608,4.2649,4.267,4.1587,4.269,4.325,4.325,4.325,4.325,4.325,4.325,4.2609,4.1579,4.2139,4.202,4.1459,4.0814,4.0929,4.1201,3.8342,3.5923,3.3806,3.2062,3.1432,3.106,2.8976,2.858,2.9007,2.9038,2.9434,2.9854,2.9854,2.9428,2.9107,2.9754,3.1035,3.247,3.3646,3.515,3.6482,3.7009,3.7135,3.7311,3.7864,3.8442,3.8843,3.8894,3.9747,4.0449,4.0474,4.1431,4.2135,4.2187,4.2637,4.319,4.3689,4.3765,4.3962,0.0,4.2598,4.2291,4.4398,4.3595,4.3699,4.5329,4.4244,4.2848,4.1223,3.9497,3.7788,3.6118,3.6016,3.5982,3.5982,3.5982,3.5982,3.5982,3.5982,3.5982,3.5982,3.5982,3.5982,3.5982,3.5982,3.5982,3.5982,3.5982,3.5982,3.5982,3.5982,3.5982,3.5982,1.9708,1.9708,1.9708,1.9708,1.9708,1.9599,1.9332,1.9078,1.8854,1.8765,1.9578,0.0,0.0,0.0,0.0,0.0,2.4713,2.684,2.7632,3.3468,3.7142,3.7653,4.0911,4.2723,4.273,4.311,4.313,4.271,4.313,4.329,4.329,4.329,4.329,4.329,4.329,4.2413,4.0994,4.1972,4.1588,4.032,4.0881,4.0396,3.913,3.7751,3.5178,3.1974,0.0,2.8442,2.8108,2.7713,2.7695,2.8021,2.9151,2.8875,2.814,2.814,2.8793,2.9854,3.1557,3.2641,3.3771,3.5629,3.6507,3.7085,3.7613,3.7739,3.7889,3.8492,3.8442,3.8441,3.8818,3.9497,4.0099,4.0424,4.1456,4.2311,4.2688,4.319,4.3589,4.379,4.4116,0.0,0.0,0.0,0.0,4.5141,4.5196,4.5459,4.5995,4.5663,4.519,4.4614,4.2895,4.1702,4.1126,4.0018,3.9431,3.9453,3.8287,3.7126,3.5982,3.5982,3.5982,3.5982,3.5982,3.5982,3.5982,3.5982,3.5982,3.5982,3.5982,3.5982,3.5982,3.5982,3.5982,3.5982,2.0109,2.0268,2.0417,2.0417,2.0208,0.0,0.0,0.0,0.0,0.0,0.0,0.0,0.0,0.0,0.0,0.0,0.0,2.5728,2.655,3.0862,3.3885,3.5013,3.7657,3.9482,4.0285,4.0119,4.0187,4.0568,4.1381,4.1922,4.2159,4.2912,4.319,4.3,4.3,4.207,4.0578,4.1356,4.089,3.9618,3.9814,3.8967,3.7383,3.5801,3.3119,0.0,2.7116,2.5628,2.505,2.5402,2.5636,2.6063,2.7544,2.7821,2.762,2.7821,2.9051,3.0809,3.2839,3.3922,3.4904,3.6734,3.7337,3.7613,3.8191,3.8316,3.8492,3.907,3.8542,3.8115,3.8517,3.9195,3.9567,3.9197,4.0402,4.1589,4.2132,4.2502,4.3147,4.4259,4.4719,4.5146,0.0,0.0,0.0,4.5773,4.6125,4.6301,4.6301,4.5702,4.5373,4.5373,4.37,4.2801,4.2801,4.1117,3.9953,3.9322,3.8221,3.7092,3.5982,3.5982,3.5982,3.5982,3.5982,3.5982,3.5982,3.5982,3.5982,3.5982,3.5982,3.5982,3.5982,3.5982,3.5982,3.5982,2.0877,2.1266,2.1695,0.0,0.0,0.0,0.0,0.0,0.0,0.0,0.0,0.0,0.0,0.0,0.0,0.0,0.0,0.0,2.6307,2.7451,2.9269,3.1988,3.2764,3.3701,3.4836,3.4405,3.4639,3.5646,3.7825,3.917,3.9759,4.1893,4.2564,4.2025,4.2025,4.1289,4.0077,4.0077,3.9744,3.9059,3.757,3.6654,3.5889,3.2612,2.9978,2.7679,2.4934,2.3211,2.2257,2.2282,2.2744,2.3521,2.4691,2.6523,2.8348,2.8881,3.0211,3.1888,3.3545,3.4778,3.5857,3.6985,3.7663,3.8191,3.8793,3.8944,3.907,3.9471,3.8693,3.7889,0.0,0.0,3.9009,3.7126,3.8742,4.0377,4.0928,4.1024,4.2147,0.0,0.0,0.0,0.0,0.0,0.0,4.6301,0.0,4.6301,4.6301,4.4737,4.3824,4.3824,4.2296,4.1469,4.1469,3.9823,3.8121,3.6403,3.6403,3.6302,3.6118,3.6118,3.6084,3.5982,3.5982,3.5982,3.5982,3.5982,3.5982,3.5982,3.5982,3.5982,3.5982,3.5982,3.5982,3.5982,0.0,0.0,0.0,0.0,0.0,0.0,0.0,0.0,0.0,0.0,0.0,0.0,0.0,0.0,0.0,0.0,0.0,0.0,2.4143,2.5497,2.717,2.9165,3.1343,3.3083,3.4283,3.4565,3.4826,3.5097,3.5695,3.6033,3.6203,3.6788,3.6958,3.6806,3.6806,3.6359,3.5552,3.5552,3.4952,3.3984,3.3585,3.2614,3.1307,3.0057,2.7955,2.5454,2.3896,2.2633,2.1784,2.2171,2.4054,2.649,2.8047,2.9202,3.0061,3.0608,3.1938,3.3545,3.4753,3.5907,3.7036,3.819,3.8567,3.8818,3.9371,3.9496,3.917,3.809,3.7287,3.6433,0.0,0.0,0.0,3.8363,4.0866,0.0,4.3544,4.402,0.0,4.5392,0.0,4.615,4.6301,4.6301,0.0,0.0,4.6301,4.6301,4.6301,4.5883,4.5641,4.5641,4.522,4.5006,4.5006,4.4559,4.3482,4.1734,4.1734,4.0386,3.7921,3.7921,3.7227,3.5982,3.5982,3.5982,3.5982,3.5982,3.5982,3.5982,3.5982,3.5982,3.5982,3.5982,3.5982,3.5982,0.0,0.0,0.0,0.0,0.0,0.0,0.0,0.0,0.0,0.0,0.0,0.0,0.0,0.0,0.0,0.0,0.0,0.0,0.0,2.3151,2.409,2.5541,2.7092,2.8573,2.9996,2.9834,3.0204,3.1218,3.1717,3.2331,3.3074,3.3796,3.4012,3.3742,3.3742,3.3202,3.2328,3.2625,3.2069,0.0,0.0,2.9497,2.8196,2.712,2.5624,2.3948,2.307,2.315,2.3844,2.4858,2.6791,2.89,2.9854,3.0683,3.1441,3.2265,3.3495,3.4828,3.5932,3.7086,3.809,3.8743,3.907,3.9145,3.8693,3.8592,3.8115,3.6458,3.5479,3.465,3.3721,3.5981,0.0,0.0,0.0,0.0,4.3561,4.3934,4.4566,0.0,4.6125,0.0,4.6301,4.6301,4.6301,0.0,4.6301,4.6301,4.6301,4.6301,4.6301,4.6301,4.6301,4.5914,4.5165,4.5135,4.4312,4.2612,4.2612,4.1597,3.9725,3.896,3.8055,3.7092,0.0,3.5982,3.5982,3.5982,3.5982,3.5982,3.5982,3.5982,3.5982,3.5982,3.5982,3.6021,0.0,0.0,0.0,0.0,0.0,0.0,0.0,0.0,0.0,2.3879,2.3759,2.364,0.0,0.0,0.0,0.0,0.0,0.0,0.0,0.0,2.1206,2.2157,2.2332,2.3135,2.4666,2.3813,2.4264,2.6172,2.7148,2.8339,2.9714,3.1182,3.1582,3.1093,3.1093,3.0432,2.9382,2.9972,2.96,2.8584,2.7696,2.682,2.5896,0.0,2.3562,2.3045,2.2583,2.4155,2.6751,2.8448,2.991,3.1085,3.1311,3.2014,3.2968,3.4022,3.4979,3.5983,3.7111,3.814,3.8919,3.8994,3.9371,3.9245,3.7587,3.721,3.6659,3.4753,3.3621,3.2939,3.2788,3.524,3.6924,3.571,0.0,4.1838,4.2795,4.2921,4.3757,4.6025,4.6301,4.6301,4.6301,4.6301,4.6301,4.6301,4.6301,4.6301,4.6301,4.6301,4.6301,4.6301,4.6301,4.5555,4.4041,4.4041,4.3326,4.1884,4.1884,4.1756,4.1469,3.9986,3.9026,3.8519,0.0,0.0,3.5982,3.5982,3.5982,3.5982,3.5982,3.6055,3.6079,3.6079,3.6152,3.625,0.0,0.0,0.0,0.0,0.0,0.0,0.0,0.0,0.0,0.0,2.4627,2.3819,0.0,0.0,0.0,0.0,0.0,0.0,0.0,0.0,0.0,2.1633,2.2483,2.3321,2.413,2.439,2.4465,2.4431,2.4627,2.462,2.4416,2.472,2.4787,2.4695,2.4695,2.4576,2.4366,2.4484,2.4387,2.4187,2.4014,2.3856,2.3662,2.3371,0.0,0.0,2.2995,2.4481,2.6826,2.8925,3.1286,3.3571,3.4949,3.5502,3.5803,3.6457,3.6759,3.7136,3.8291,3.8743,3.8994,3.9446,3.9622,3.9245,3.7587,3.721,0.0,3.3248,3.2491,3.2089,3.121,3.2445,3.463,3.7717,3.984,4.2161,4.5191,4.5615,4.5805,0.0,4.6301,4.6301,4.6301,4.6301,0.0,0.0,0.0,4.6301,4.6301,4.6301,4.6301,4.6301,4.6301,4.615,4.5853,4.5853,4.5702,4.5403,4.5403,4.4675,4.324,4.2958,4.1255,3.8564,0.0,0.0,3.5982,3.5982,3.5982,3.5982,3.5982,3.623,3.6597,3.6597,3.6777,3.709,0.0,0.0,0.0,0.0,0.0,0.0,0.0,2.4764,2.5321,2.7838,2.687,2.6008,2.6135,2.5255,2.4629,0.0,0.0,0.0,0.0,0.0,0.0,2.1895,2.2408,2.296,2.3512,2.3512,2.3662,2.4004,0.0,2.311,2.3095,2.2819,2.2533,2.2257,2.2257,2.2257,2.2257,2.2257,2.2433,2.2669,2.2669,2.2844,2.314,0.0,0.0,0.0,2.3614,2.5008,2.711,2.8448,3.1135,3.4198,3.5854,3.6405,3.6505,3.7034,3.7387,3.7789,3.8668,3.9095,3.9396,3.9622,3.9697,3.9019,3.6483,3.5906,3.4951,3.1637,3.0959,3.0783,3.0281,3.1609,3.374,3.6668,3.9369,4.1995,4.4619,4.5748,4.6301,4.6301,4.6301,4.6301,4.6301,4.6301,0.0,0.0,0.0,4.6301,4.6301,4.6301,4.6301,4.6301,4.6301,4.6301,4.6301,4.6301,4.6301,4.6301,4.6301,4.5853,4.5013,4.4103,4.2801,4.1158,3.9366,0.0,3.7273,3.6369,3.5982,3.6001,3.6269,3.6484,3.6734,3.6949,3.7129,3.7324,0.0,0.0,0.0,0.0,0.0,0.0,0.0,2.6105,2.6801,2.9825,2.9414,2.8735,2.8452,2.7003,2.5669,0.0,0.0,0.0,0.0,0.0,0.0,0.0,0.0,0.0,0.0,0.0,0.0,0.0,2.2734,0.0,0.0,0.0,0.0,0.0,0.0,2.1256,2.113,2.113,2.1518,0.0,0.0,2.2701,0.0,0.0,0.0,0.0,0.0,2.5515,2.7085,2.7971,3.0407,3.3319,3.5125,3.5929,3.6331,3.6859,3.7387,3.8015,3.8843,3.9396,3.9697,3.9697,3.9798,3.8969,3.5481,3.4803,3.39,3.0507,2.9804,2.9796,2.9766,3.0949,3.2603,3.4696,3.7506,4.034,4.2991,4.458,4.567,4.6215,4.6301,0.0,4.6301,4.6301,0.0,0.0,0.0,0.0,4.6301,4.6301,4.6301,4.6301,4.6301,4.6301,4.6301,4.6301,4.6301,4.6301,4.6301,4.6301,4.6266,4.5012,4.4022,4.3153,4.0574,0.0,0.0,3.685,3.6289,3.6328,3.668,3.689,3.7007,3.7305,3.75,3.7617,0.0,0.0,0.0,0.0,0.0,0.0,0.0,2.7031,2.8541,3.1824,3.1632,3.1185,3.1137,2.8906,2.6861,0.0,0.0,0.0,0.0,0.0,0.0,0.0,0.0,0.0,0.0,0.0,0.0,0.0,0.0,0.0,0.0,0.0,0.0,0.0,0.0,0.0,0.0,1.9962,0.0,0.0,0.0,0.0,0.0,0.0,0.0,0.0,0.0,2.5845,2.6063,2.8129,2.9434,3.0557,3.2713,3.4399,3.5707,3.6306,3.6859,3.7637,3.9195,3.9647,3.9697,3.9697,4.0074,3.942,3.5581,3.5079,3.4377,3.0583,2.9804,2.9766,2.9639,2.9178,2.9847,3.2994,3.3533,3.5524,4.1205,4.2434,4.3649,4.6025,0.0,0.0,4.6301,4.6301,0.0,0.0,0.0,0.0,0.0,4.6301,4.6301,4.6301,4.6301,4.6301,4.6301,4.6301,4.6301,4.6301,4.6301,4.6301,4.6326,4.6645,4.5035,4.1983,0.0,0.0,0.0,3.7238,3.7187,3.7187,3.7226,3.748,3.7777,3.7816,3.8105,3.8493,0.0,0.0,0.0,0.0,0.0,0.0,2.738,2.7214,2.8433,3.3095,3.2637,3.2086,3.2646,3.0658,2.8246,2.5652,0.0,0.0,0.0,0.0,0.0,0.0,0.0,0.0,0.0,0.0,2.2995,2.2769,0.0,0.0,0.0,0.0,0.0,0.0,0.0,0.0,0.0,0.0,0.0,0.0,0.0,0.0,0.0,0.0,0.0,0.0,0.0,0.0,2.6543,2.7589,2.8775,2.988,3.0407,3.1918,3.39,3.5828,3.6532,3.716,3.917,3.9697,3.9772,4.0099,3.9597,3.8316,3.5759,3.4603,3.3244,3.0382,2.9804,2.9868,3.0154,2.9347,2.9471,3.2041,3.2555,3.3767,3.7118,3.9869,4.2054,4.3418,4.4898,0.0,0.0,0.0,0.0,0.0,0.0,0.0,0.0,4.6772,4.6772,4.6772,4.7104,4.728,4.728,4.728,4.728,4.728,4.728,4.728,4.728,4.7475,4.681,4.5438,0.0,0.0,0.0,3.942,3.8317,3.7324,3.7578,3.7773,3.7913,3.8223,3.8418,3.8611,0.0,0.0,0.0,0.0,0.0,2.4657,2.7812,2.7291,2.8307,3.3258,3.271,3.2088,3.2711,3.101,2.8667,2.5803,2.5268,0.0,0.0,0.0,0.0,0.0,0.0,0.0,0.0,0.0,2.3371,2.3371,2.3521,2.3321,0.0,0.0,0.0,0.0,0.0,0.0,0.0,0.0,0.0,0.0,0.0,0.0,0.0,0.0,0.0,0.0,0.0,0.0,0.0,0.0,0.0,2.9503,2.9233,3.0236,3.2014,3.4648,3.5753,3.6582,3.8642,3.9546,4.0023,4.0425,3.9471,3.799,3.5959,3.4377,3.2663,3.0281,2.9804,2.9857,3.0044,2.9507,2.9489,3.0876,3.1385,3.2335,3.4463,3.7535,4.0073,4.1335,0.0,4.502,0.0,0.0,0.0,0.0,0.0,0.0,0.0,4.7249,4.7324,4.7324,4.7676,4.7908,4.7908,4.7908,4.7908,4.7908,4.7908,4.7908,4.7908,4.8083,4.7851,4.7259,0.0,0.0,0.0,4.1767,4.0195,3.8507,3.8771,3.8588,3.8164,3.8457,3.8611,3.8611,0.0,0.0,0.0,0.0,0.0,0.0,2.7195,2.7429,2.8536,3.205,3.1759,3.1206,3.1141,2.9491,2.7751,2.6034,2.4924,0.0,0.0,0.0,0.0,0.0,0.0,0.0,0.0,0.0,2.3979,2.3979,2.4515,2.4515,2.3979,2.3979,0.0,0.0,0.0,0.0,0.0,0.0,0.0,0.0,0.0,0.0,0.0,0.0,0.0,0.0,0.0,0.0,0.0,0.0,0.0,0.0,0.0,2.9804,3.0256,3.2487,3.4274,3.5884,3.7538,3.9245,4.0474,4.0499,4.0099,3.8944,3.6135,3.4678,3.3119,3.0357,2.9804,2.9598,2.894,2.9234,2.9515,2.9262,2.9397,3.0704,3.4124,3.5621,3.7466,4.0454,0.0,4.3438,0.0,0.0,0.0,0.0,0.0,0.0,0.0,4.76,4.7908,4.7908,4.7908,4.7908,4.7908,4.7908,4.7908,4.7908,4.7908,4.7908,4.7933,4.8542,4.7787,0.0,0.0,0.0,0.0,4.4059,4.2953,4.1255,4.1255,4.0157,3.8611,3.8611,3.8611,3.8611,0.0,0.0,0.0,0.0,0.0,0.0,0.0,2.6186,2.7191,3.0135,2.9811,2.9636,3.0516,2.8387,2.6674,2.6153,2.4998,0.0,0.0,0.0,0.0,0.0,0.0,0.0,0.0,2.3687,2.418,2.454,2.5067,2.5259,2.5084,2.4716,2.4164,2.3427,0.0,0.0,0.0,0.0,0.0,0.0,0.0,0.0,0.0,0.0,0.0,0.0,0.0,0.0,0.0,0.0,0.0,0.0,0.0,0.0,0.0,3.1085,3.2566,3.4148,3.538,3.6409,3.7063,3.7063,3.6132,3.4974,3.4048,3.2717,3.1311,3.0055,2.9804,2.9857,3.0004,2.987,3.0125,3.1388,3.1342,3.1851,3.3907,3.6591,3.8843,4.0172,4.3234,4.5397,0.0,0.0,0.0,0.0,0.0,0.0,0.0,4.8184,4.8542,4.8542,4.8862,4.9063,4.9063,4.9063,4.9063,4.9063,4.9063,4.9063,4.9063,4.9264,0.0,0.0,0.0,0.0,0.0,4.5962,4.488,4.3114,4.1785,4.0957,4.03,3.9063,3.8611,3.8611,0.0,0.0,0.0,0.0,0.0,0.0,0.0,2.5384,2.6201,2.8165,2.7934,2.7965,2.8981,2.6936,2.5523,2.5673,2.4535,0.0,0.0,0.0,0.0,0.0,0.0,0.0,2.3095,2.3687,2.4356,2.5093,2.5661,2.6055,2.6214,2.5912,2.5234,2.4264,2.3562,2.301,0.0,0.0,0.0,0.0,0.0,0.0,2.6886,0.0,0.0,0.0,0.0,0.0,0.0,0.0,0.0,0.0,0.0,0.0,0.0,0.0,3.1185,3.2441,3.3746,3.4778,3.5508,3.5508,3.4427,3.3366,3.314,3.1813,3.0437,2.9905,2.9804,2.9905,3.0256,3.0206,3.0572,3.1979,3.2044,3.2559,3.4408,3.6985,3.932,4.101,0.0,0.0,0.0,0.0,0.0,0.0,0.0,0.0,0.0,0.0,4.8894,4.912,4.9414,4.959,4.959,4.959,4.959,4.959,4.959,4.959,4.959,4.959,0.0,0.0,0.0,0.0,0.0,4.7839,4.6388,4.3978,4.2814,4.1503,4.0121,3.9027,3.8611,3.8611,0.0,0.0,0.0,0.0,0.0,0.0,0.0,2.491,2.5493,2.6202,2.6148,2.6215,2.667,2.5225,2.4328,2.4655,0.0,0.0,0.0,0.0,0.0,0.0,0.0,0.0,2.3095,2.3712,2.4582,2.5661,2.6298,2.6901,2.7412,2.7361,2.6465,2.4867,2.4816,2.4173,2.3095,0.0,0.0,0.0,0.0,2.7016,0.0,0.0,0.0,0.0,0.0,0.0,0.0,0.0,0.0,0.0,0.0,0.0,0.0,0.0,0.0,0.0,0.0,3.3975,3.5132,3.5107,3.4352,3.347,3.2989,3.1662,0.0,2.9905,2.9804,2.9804,2.9854,3.0256,3.0794,3.1359,3.1807,3.3006,3.5593,3.7257,3.9415,0.0,4.4066,0.0,0.0,0.0,0.0,0.0,0.0,0.0,0.0,0.0,4.9095,4.9565,4.959,4.959,4.959,4.959,4.959,4.959,4.959,4.959,4.959,4.959,0.0,0.0,0.0,0.0,0.0,4.959,4.75,4.4288,4.415,4.1925,3.8793,3.8647,3.8611,3.8611,0.0,0.0,0.0,0.0,0.0,0.0,0.0,0.0,0.0,0.0,2.4544,2.48,2.4889,2.3997,2.3406,0.0,0.0,0.0,0.0,0.0,0.0,0.0,0.0,0.0,2.3095,2.4073,2.5159,2.6298,2.7261,2.7996,2.8505,2.8104,2.7017,2.5385,2.4992,2.4173,2.3095,2.3095,0.0,0.0,2.6647,2.7739,0.0,0.0,0.0,0.0,2.7851,2.7738,0.0,0.0,0.0,0.0,0.0,0.0,0.0,0.0,2.988,3.0055,3.0477,0.0,3.1642,3.126,3.0959,3.0733,0.0,3.0256,2.9955,2.9849,2.9804,2.993,3.0357,3.0532,3.088,3.1797,3.3124,3.4787,3.703,4.0593,4.3298,4.4109,4.5221,0.0,0.0,0.0,0.0,0.0,0.0,0.0,0.0,0.0,4.9464,4.959,4.959,4.959,4.959,4.959,4.959,4.959,4.959,4.959,4.959,4.959,0.0,0.0,0.0,0.0,4.959,4.959,4.8248,4.603,4.4641,4.2696,4.0514,3.91,3.8611,3.8611,0.0,0.0,0.0,0.0,0.0,0.0,0.0,0.0,0.0,0.0,0.0,2.4538,2.3839,2.3365,0.0,0.0,0.0,0.0,0.0,0.0,0.0,0.0,0.0,2.3095,2.3095,2.3988,2.5109,2.6499,2.7336,2.8273,2.9283,2.8731,2.7595,2.5954,2.4616,2.3672,2.315,2.3799,2.4627,2.5657,2.7515,0.0,0.0,0.0,0.0,0.0,2.7851,2.7524,0.0,2.757,2.8204,2.8888,0.0,0.0,0.0,0.0,2.9578,2.9804,2.9804,3.0005,3.0156,2.9854,2.9804,2.9804,2.9804,2.9804,2.9804,2.9804,2.9804,2.988,3.0181,3.1441,3.2404,3.2174,3.5087,3.7942,3.9578,4.2171,4.4066,4.4539,4.5141,0.0,0.0,0.0,0.0,0.0,0.0,0.0,0.0,0.0,4.959,4.959,4.959,4.959,4.959,4.959,4.959,4.959,4.959,4.959,4.959,4.959,0.0,0.0,0.0,0.0,4.959,4.959,4.7994,4.5457,4.4471,4.2452,3.9926,3.8955,3.8611,3.8611,0.0,0.0,0.0,0.0,0.0,0.0,0.0,0.0,0.0,0.0,0.0,0.0,0.0,0.0,0.0,0.0,0.0,0.0,0.0,0.0,0.0,0.0,2.3095,2.3195,2.3371,2.3863,2.4933,2.6625,2.7236,2.8273,2.9654,2.9308,2.8222,2.6399,2.4432,2.3442,2.336,2.4677,2.5281,2.5589,2.8212,0.0,0.0,0.0,0.0,0.0,0.0,0.0,0.0,2.772,2.8304,2.8881,2.8706,0.0,0.0,0.0,0.0,0.0,2.9628,2.9905,3.0105,2.9854,2.9804,2.9804,2.9804,2.9804,2.9804,2.9804,2.9804,2.998,3.0557,3.267,3.4009,3.3059,3.7094,4.0841,4.2233,4.3065,4.3765,4.4514,0.0,0.0,0.0,0.0,0.0,0.0,0.0,0.0,0.0,0.0,0.0,4.959,4.959,4.959,4.959,4.959,4.959,4.959,4.959,4.959,4.959,4.959,4.959,0.0,0.0,0.0,4.959,4.959,4.7599,4.4471,4.4219,4.1996,3.8991,3.872,3.8611,3.8611,0.0,0.0,0.0,0.0,0.0,0.0,0.0,0.0,0.0,0.0,0.0,0.0,0.0,0.0,0.0,0.0,0.0,0.0,0.0,0.0,0.0,2.3095,2.3095,2.3547,2.4515,2.4641,2.5511,2.7185,2.8172,2.8781,2.9057,2.9935,2.895,2.6483,2.5784,2.4966,2.4175,2.5003,2.6328,2.7896,2.8354,0.0,0.0,0.0,0.0,0.0,0.0,0.0,0.0,2.6876,2.7695,2.8756,2.7821,0.0,0.0,0.0,0.0,0.0,2.8907,3.0412,3.1512,3.0131,2.9804,2.9804,2.9804,2.9804,2.9804,2.9804,2.9804,3.0783,3.4051,3.3498,3.3391,3.5865,0.0,4.0587,0.0,0.0,4.5497,0.0,0.0,0.0,0.0,0.0,0.0,0.0,0.0,0.0,0.0,0.0,0.0,4.959,4.959,4.959,4.959,4.959,4.959,4.959,4.959,4.959,4.959,4.959,4.959,0.0,0.0,4.959,4.959,4.959,4.8347,4.6231,4.4676,4.2801,4.0708,3.9172,3.8611,3.8611,0.0,0.0,0.0,0.0,0.0,0.0,0.0,0.0,0.0,0.0,0.0,0.0,0.0,0.0,0.0,0.0,0.0,0.0,0.0,0.0,2.3371,2.3998,2.3738,2.3963,2.4791,2.5067,2.6214,2.8154,2.9001,2.9679,3.0231,2.9661,2.8415,2.6571,2.5917,2.5352,2.4922,2.5645,2.6636,2.778,0.0,0.0,0.0,0.0,0.0,0.0,0.0,0.0,0.0,0.0,2.7185,2.7946,2.7462,0.0,0.0,0.0,0.0,0.0,2.8405,2.9408,3.0588,3.1386,3.2713,3.3872,3.4148,3.4223,3.3897,3.2692,3.2466,3.3072,3.5107,3.6158,3.8066,4.2206,0.0,4.1728,4.3905,0.0,0.0,0.0,0.0,0.0,0.0,0.0,0.0,0.0,0.0,0.0,0.0,0.0,0.0,0.0,4.959,4.959,4.959,4.959,4.959,4.959,4.959,4.959,4.959,4.959,4.959,4.959,0.0,4.959,4.959,4.959,4.7896,4.5254,4.4402,4.2347,3.9746,3.8918,3.8611,3.8611,0.0,0.0,0.0,0.0,0.0,0.0,0.0,0.0,0.0,0.0,0.0,0.0,0.0,0.0,0.0,0.0,0.0,0.0,0.0,2.3095,2.3547,2.4566,2.4356,2.4616,2.5544,2.5862,2.7017,2.9107,2.9829,3.0721,3.1696,2.957,2.8091,2.7211,2.6384,2.58,2.5467,2.6484,2.703,2.7307,0.0,0.0,0.0,0.0,0.0,0.0,0.0,0.0,0.0,0.0,0.0,0.0,0.0,0.0,0.0,2.7587,2.7587,2.7946,2.8072,2.8781,3.0061,3.2487,3.4296,3.5906,3.7613,3.7513,3.6784,3.5881,3.5682,3.5907,3.6712,3.9169,4.2283,4.5974,4.4446,4.3291,0.0,0.0,0.0,0.0,0.0,0.0,0.0,0.0,0.0,0.0,0.0,0.0,0.0,0.0,0.0,0.0,4.959,4.959,4.959,4.959,4.959,4.959,4.959,4.959,4.959,4.959,4.959,4.959,4.959,4.959,4.959,4.959,4.7665,4.4676,4.4288,4.1841,3.8611,3.8611,3.8611,3.8611,0.0,0.0,0.0,0.0,0.0,0.0,0.0,0.0,0.0,0.0,0.0,0.0,0.0,0.0,0.0,0.0,0.0,0.0,0.0,2.3095,2.3386,2.4029,2.449,2.572,2.7821,2.7394,2.8015,2.9729,3.0778,3.1771,3.264,3.027,2.9021,2.8801,2.8174,2.6976,2.5522,2.7594,2.7959,2.7396,2.9491,0.0,0.0,0.0,0.0,0.0,0.0,0.0,0.0,0.0,0.0,0.0,0.0,0.0,2.8047,2.7462,2.7336,2.7462,2.7971,2.9628,3.1512,3.2788,3.1708,3.1662,3.6835,3.6031,3.5027,3.7989,3.8592,3.907,4.06,4.1957,4.2788,4.2612,4.3614,0.0,0.0,0.0,0.0,0.0,0.0,0.0,0.0,0.0,0.0,0.0,0.0,0.0,0.0,0.0,0.0,0.0,0.0,4.959,4.959,4.959,4.959,4.959,4.959,4.959,4.959,4.959,4.959,4.959,4.959,4.959,4.959,4.959,4.8412,4.6432,4.4744,4.1841,3.8611,3.8611,3.8611,3.8611,0.0,0.0,0.0,0.0,0.0,0.0,0.0,0.0,0.0,0.0,0.0,0.0,0.0,0.0,0.0,0.0,0.0,0.0,0.0,2.2594,2.3185,2.444,2.4691,2.5536,2.706,2.7896,2.9126,3.0803,3.1537,3.1741,3.1385,3.0023,2.8979,2.8247,2.7921,2.7628,2.737,2.6833,2.7356,2.8418,2.7382,2.747,0.0,0.0,0.0,0.0,0.0,0.0,0.0,0.0,2.5201,2.5929,2.5929,2.6708,2.7544,2.7361,2.706,2.6927,2.7462,2.9704,3.2014,3.2441,3.2692,3.4223,3.9421,4.0075,3.9722,4.03,4.1505,4.2434,0.0,4.4392,4.5648,4.4446,4.5045,0.0,0.0,0.0,0.0,0.0,0.0,0.0,0.0,0.0,0.0,0.0,0.0,0.0,0.0,0.0,0.0,0.0,0.0,4.959,4.959,4.959,4.959,4.959,4.959,4.959,4.959,4.959,4.959,4.959,4.959,4.959,4.959,4.959,4.783,4.4846,4.182,3.9818,3.8611,3.8611,3.8611,3.8611,0.0,0.0,0.0,0.0,0.0,0.0,0.0,0.0,0.0,0.0,0.0,0.0,0.0,0.0,0.0,0.0,0.0,0.0,2.2031,2.2221,2.2884,2.4214,2.4616,2.5335,2.6491,2.8072,2.9459,3.0608,3.1635,3.1669,3.0764,2.9969,2.9332,2.8827,2.7836,2.7948,2.8726,2.6778,2.6871,2.8133,2.6536,2.628,0.0,0.0,0.0,0.0,0.0,0.0,0.0,0.0,2.4607,2.5385,2.5536,2.6381,2.7311,2.7311,2.7763,2.8366,2.8768,3.0633,3.2692,3.3571,3.4226,3.6058,4.1255,4.2185,4.2283,4.341,4.4163,4.4493,4.4091,0.0,0.0,0.0,0.0,0.0,0.0,0.0,0.0,0.0,0.0,0.0,0.0,0.0,0.0,0.0,0.0,0.0,0.0,0.0,0.0,0.0,0.0,4.959,4.959,4.959,4.959,4.959,4.959,4.959,4.959,4.959,4.959,4.959,4.959,4.959,4.959,4.959,4.7434,4.3806,4.0693,3.91,3.8611,3.8611,3.8611,3.8611,0.0,0.0,0.0,0.0,0.0,0.0,0.0,0.0,2.7285,2.7185,2.6443,0.0,0.0,0.0,0.0,0.0,0.0,0.0,2.1532,2.1995,2.2533,2.307,2.4173,2.5335,2.6449,2.8047,2.8863,2.8932,3.0974,3.1702,3.1151,3.0235,3.0307,3.1046,2.8256,2.79,2.929,2.7799,2.6773,2.6244,2.7614,2.652,2.4164,0.0,0.0,0.0,0.0,0.0,0.0,0.0,2.434,2.4892,2.5435,2.6364,2.7286,2.7311,2.9603,3.2144,3.2144,3.2641,3.3768,3.6507,3.5981,3.6234,4.1758,4.1331,4.1455,4.7562,4.6577,4.4966,4.607,4.4518,0.0,0.0,0.0,0.0,0.0,0.0,0.0,0.0,0.0,0.0,0.0,0.0,0.0,0.0,0.0,0.0,0.0,0.0,0.0,0.0,0.0,0.0,4.959,4.959,4.959,4.959,4.959,4.959,4.959,4.959,4.959,4.959,4.959,4.959,4.959,4.9558,4.7401,4.391,4.2031,4.0157,3.8611,3.8611,3.8611,3.8611,0.0,0.0,0.0,0.0,0.0,0.0,0.0,0.0,2.7294,2.6719,2.5999,0.0,0.0,0.0,0.0,0.0,0.0,0.0,2.1482,2.1644,2.197,2.2508,2.3988,2.4766,2.4748,2.5937,2.7727,3.0111,3.0416,3.037,2.9926,2.9995,2.9625,2.8929,2.8714,2.8625,2.8498,2.6556,2.6396,2.7387,2.6912,2.6091,2.5181,0.0,0.0,0.0,0.0,0.0,0.0,0.0,0.0,0.0,2.4867,2.5829,2.6826,2.7185,2.7989,2.8844,2.9227,3.2315,3.5328,3.4977,3.8015,4.163,4.3664,4.3338,4.3765,4.7939,4.7506,4.6346,4.6326,0.0,0.0,0.0,0.0,0.0,0.0,0.0,0.0,0.0,0.0,0.0,0.0,0.0,0.0,0.0,0.0,0.0,0.0,0.0,0.0,0.0,0.0,0.0,4.959,4.959,4.959,4.959,4.959,4.959,4.959,4.959,4.959,4.959,4.959,4.959,4.9396,4.6813,4.5107,4.3806,4.0621,3.9063,3.8611,3.8611,3.8611,3.8611,0.0,0.0,0.0,0.0,0.0,0.0,2.8448,2.7525,2.6644,2.6426,2.5559,2.4495,0.0,0.0,0.0,2.2307,2.1694,2.1281,2.1194,2.1583,2.197,2.2282,2.3687,2.4515,2.4632,2.5711,2.7042,2.8605,2.9284,2.9143,2.8291,2.9823,2.9832,2.8622,2.9563,2.9597,2.8868,2.7088,2.687,2.7601,2.6482,2.5793,2.5454,0.0,0.0,0.0,0.0,0.0,0.0,0.0,0.0,0.0,2.4766,2.5561,2.6776,2.8216,2.9227,3.0407,3.2721,3.5481,3.7939,3.8893,4.1505,4.4242,4.5899,4.6175,0.0,0.0,4.8058,4.7074,4.6979,0.0,0.0,0.0,0.0,0.0,0.0,0.0,0.0,0.0,0.0,0.0,0.0,0.0,0.0,0.0,0.0,0.0,0.0,0.0,0.0,0.0,0.0,0.0,4.959,4.959,4.959,4.959,4.959,4.959,4.959,4.959,4.959,4.959,4.959,4.959,4.9396,4.6388,4.4744,4.3806,4.0814,3.9225,3.8611,3.8611,3.8611,3.8611,0.0,0.0,0.0,0.0,0.0,0.0,2.8225,2.6683,2.5605,2.6213,2.5116,2.3974,0.0,0.0,0.0,2.2408,2.2332,2.1895,2.0918,2.1744,2.2332,2.2383,2.3527,2.4607,2.5561,2.6582,2.6524,2.5459,2.7717,2.8066,2.6705,2.9788,3.066,2.9676,3.0614,3.0587,2.9762,2.8465,2.7594,2.7025,2.6195,2.5568,2.515,2.4912,0.0,0.0,0.0,0.0,0.0,0.0,0.0,0.0,2.5017,2.5586,2.6927,2.9478,3.1863,3.4675,3.9245,4.0224,4.1028,4.5643,4.5543,4.5121,4.819,4.927,4.959,4.954,0.0,4.7375,4.7832,0.0,0.0,0.0,0.0,0.0,0.0,0.0,0.0,0.0,0.0,0.0,0.0,0.0,0.0,0.0,0.0,0.0,0.0,0.0,0.0,0.0,0.0,0.0,4.959,4.959,4.959,0.0,4.959,4.959,4.959,4.959,4.959,4.959,4.959,4.9493,4.921,4.732,4.5491,4.3668,4.1785,4.0069,3.8611,3.8611,3.8611,3.8611,0.0,0.0,0.0,0.0,0.0,0.0,2.6834,2.6036,2.5409,2.5447,2.4783,2.3974,2.3185,2.3095,0.0,2.2945,2.2533,2.2207,2.197,2.2157,2.2483,2.292,2.4415,2.536,2.5586,2.5435,2.5039,2.4405,2.6433,2.7586,2.7892,3.0318,3.1228,3.0828,3.1064,3.0186,2.8457,2.6577,2.5696,2.5548,2.5428,2.5168,2.49,2.5044,2.4556,0.0,0.0,0.0,0.0,0.0,0.0,0.0,2.5335,2.5603,2.6005,2.706,2.9547,3.2265,3.3749,3.7814,4.211,4.4041,4.6451,4.8535,4.9264,4.9515,4.9464,4.9069,4.8693,0.0,0.0,0.0,0.0,0.0,0.0,0.0,0.0,0.0,0.0,0.0,0.0,0.0,0.0,0.0,0.0,0.0,0.0,0.0,0.0,0.0,0.0,0.0,0.0,4.959,4.959,4.959,4.959,0.0,4.959,4.959,4.959,4.959,4.959,4.959,4.959,4.8763,4.7254,4.5423,4.3577,4.1714,3.989,3.8955,3.8611,3.8611,3.8611,3.8611,0.0,0.0,0.0,0.0,0.0,0.0,0.0,0.0,2.4402,2.4734,2.4156,2.3573,2.314,2.3095,0.0,0.0,2.2844,2.2583,2.2307,2.2533,2.3045,2.3873,2.5511,2.6198,2.5752,2.5422,2.4929,2.4226,2.5605,2.6594,2.7307,2.9827,3.0851,3.0547,3.1052,2.9762,2.7135,2.6451,2.562,2.4816,2.542,2.5413,2.5004,2.512,2.4497,2.3562,2.3562,0.0,0.0,0.0,0.0,0.0,0.0,0.0,2.6356,2.7989,2.9478,3.1486,3.5481,3.8919,4.216,4.5401,4.7908,4.959,4.959,4.959,4.9515,4.9213,0.0,0.0,0.0,0.0,0.0,0.0,0.0,0.0,0.0,0.0,0.0,0.0,0.0,0.0,0.0,0.0,0.0,0.0,0.0,0.0,0.0,0.0,0.0,0.0,4.959,4.959,4.959,4.959,4.959,4.959,4.959,4.959,4.959,4.959,4.959,4.959,4.959,4.8542,4.6665,4.4846,4.2988,4.1134,3.9297,3.8611,3.8611,3.8611,3.8611,3.8611,0.0,0.0,0.0,0.0,0.0,0.0,0.0,0.0,0.0,2.4018,2.3514,2.3095,2.3095,2.302,2.297,0.0,0.0,0.0,2.2332,2.2895,2.3722,2.475,2.6138,2.6536,2.5856,2.5631,2.5199,2.4543,2.5074,2.5753,2.6576,2.9241,3.0338,3.0081,3.0742,2.9226,2.6137,2.6467,2.5574,2.3989,2.5089,2.5188,2.4715,2.4756,2.4088,2.3105,2.3221,2.3587,2.4104,2.4716,0.0,0.0,0.0,0.0,2.6809,2.9202,2.9905,3.1361,3.784,4.0248,4.2233,4.7612,4.9264,4.959,4.959,4.959,4.954,4.9339,0.0,0.0,0.0,0.0,0.0,0.0,0.0,0.0,0.0,0.0,0.0,0.0,0.0,0.0,0.0,0.0,0.0,0.0,0.0,0.0,0.0,0.0,4.959,4.959,4.959,4.959,4.959,4.959,4.959,4.959,4.959,4.959,4.959,4.959,4.959,4.959,4.959,4.8379,4.6231,4.471,4.2836,4.0672,3.9188,3.8611,3.8611,3.8611,3.8611,3.8611,0.0,0.0,0.0,0.0,0.0,0.0,0.0,0.0,0.0,0.0,2.3155,2.3095,2.3095,2.2684,2.2408,2.2408,2.2408,2.2383,2.2307,0.0,0.0,2.475,2.5017,2.5292,2.5625,2.4796,2.4589,2.508,2.4783,2.5735,2.7897,2.9687,3.0675,3.0964,3.0054,2.8367,2.6092,2.4575,2.3132,2.1941,2.2571,2.2771,2.2734,2.3184,2.3261,2.317,2.3687,2.3929,2.4155,2.5159,2.5536,0.0,0.0,0.0,0.0,2.6801,2.8693,3.0834,3.2315,3.7588,4.3793,4.8335,4.954,4.959,4.959,0.0,4.9314,0.0,0.0,0.0,0.0,0.0,0.0,0.0,0.0,0.0,0.0,0.0,0.0,0.0,0.0,0.0,0.0,0.0,0.0,0.0,0.0,0.0,0.0,4.959,4.959,4.959,4.959,4.959,4.959,4.959,4.959,4.959,4.959,4.959,4.959,4.959,4.959,4.959,4.959,4.7632,4.4436,4.4219,4.2066,3.8955,3.8683,3.8611,3.8611,3.8611,3.8611,3.8611,0.0,0.0,0.0,0.0,0.0,0.0,0.0,0.0,0.0,0.0,0.0,2.3095,2.3095,2.2633,2.2307,2.2307,2.202,2.197,2.2282,2.3758,2.4705,2.4962,2.5651,2.6013,2.5988,2.5202,2.5001,2.5414,2.4837,2.5774,2.8126,2.8826,2.9591,3.0319,2.8395,2.667,2.5102,2.3471,2.2119,2.116,2.2401,2.3795,2.5007,2.4115,2.4657,2.5695,2.4064,2.3512,2.3662,2.4766,2.5143,2.531,2.6223,0.0,0.0,0.0,2.7354,2.9371,3.4271,3.9446,4.4418,4.856,4.959,4.959,4.959,4.959,4.9364,0.0,0.0,0.0,0.0,0.0,0.0,0.0,0.0,0.0,0.0,0.0,0.0,0.0,0.0,0.0,0.0,0.0,0.0,0.0,0.0,0.0,4.959,4.959,4.959,4.959,4.959,4.959,4.959,4.959,4.959,4.959,4.959,4.959,4.959,4.959,4.959,4.9525,4.8477,4.6522,4.4013,4.2953,4.0957,3.8611,3.8611,3.8611,3.8611,3.8611,3.8611,3.8611,0.0,0.0,0.0,0.0,0.0,0.0,0.0,0.0,0.0,0.0,0.0,2.3095,2.3095,0.0,0.0,0.0,2.1719,2.1733,2.2257,2.3739,2.4738,2.509,2.5882,2.6293,2.6266,2.5488,2.5255,2.5562,2.4913,2.5886,2.834,2.8197,2.8923,3.019,2.7643,2.578,2.4469,2.2938,2.1845,2.1327,2.3729,2.573,2.7291,2.7121,2.8221,2.9379,2.5702,2.4602,2.4868,2.4668,2.4591,2.4766,2.5753,2.5753,0.0,0.0,0.0,2.7907,3.5376,3.922,4.2233,4.7129,4.8335,4.856,4.9414,0.0,4.9439,0.0,0.0,0.0,0.0,0.0,0.0,0.0,0.0,0.0,0.0,0.0,0.0,0.0,0.0,0.0,0.0,0.0,0.0,0.0,0.0,0.0,4.959,4.959,4.959,4.959,4.959,4.959,4.959,4.959,4.959,4.959,4.959,4.959,4.959,4.959,4.959,4.9493,4.7608,4.5524,4.3288,4.189,4.0228,3.8611,3.8611,3.8611,3.8611,3.8611,3.8611,3.8611,0.0,0.0,0.0,0.0,0.0,0.0,0.0,0.0,0.0,0.0,0.0,2.3095,2.3095,2.2633,2.2096,2.1583,2.1532,2.1733,2.2257,2.2864,2.378,2.5034,2.4678,0.0,2.6183,2.5094,2.4862,2.5497,2.4899,2.6121,2.904,2.8527,2.951,3.1595,2.8832,2.6675,2.4955,2.3087,2.2257,2.2564,2.6614,2.7864,2.7824,3.2671,3.462,3.4126,2.9507,2.8706,2.9241,2.5339,2.4029,2.413,2.4716,2.4867,2.4842,0.0,0.0,0.0,3.1984,3.3517,3.5477,4.2958,4.4865,4.5668,4.8887,0.0,0.0,0.0,0.0,0.0,0.0,0.0,0.0,0.0,0.0,0.0,0.0,0.0,0.0,0.0,0.0,0.0,0.0,0.0,0.0,0.0,0.0,0.0,4.959,4.959,4.959,4.959,4.959,4.959,4.959,4.959,4.959,4.959,4.959,4.959,4.959,4.959,4.959,4.9493,4.7608,4.4755,4.1432,4.1326,4.0228,3.8611,3.8611,3.8611,3.8611,3.8611,3.8611,3.8611,0.0,0.0,0.0,0.0,0.0,0.0,0.0,0.0,0.0,0.0,0.0,0.0,0.0,2.2307,2.1694,2.1532,2.1939,2.242,2.2963,2.3993,2.479,2.5277,2.5564,2.5956,2.6458,2.5644,2.5336,2.5555,2.4908,2.571,2.7826,2.8054,2.8851,2.9995,2.862,2.7413,2.6235,2.3954,2.2717,2.2617,2.6266,2.9358,3.1854,3.249,3.526,0.0,0.0,0.0,0.0,2.9454,2.7718,2.6058,2.6122,2.5604,2.4895,2.4422,2.5175,2.701,3.0954,3.2792,3.4776,3.9697,4.2785,4.4916,4.6125,4.8058,0.0,0.0,0.0,0.0,0.0,0.0,0.0,0.0,0.0,0.0,0.0,0.0,0.0,0.0,0.0,0.0,0.0,0.0,0.0,0.0,0.0,0.0,4.959,4.959,4.959,4.959,4.959,4.959,4.959,4.959,4.959,4.959,4.959,4.959,4.959,4.959,4.8925,4.7707,4.5862,4.4334,4.2905,4.055,3.9208,3.8611,3.8611,3.8611,3.8611,3.8611,3.8611,3.8611,0.0,0.0,0.0,0.0,0.0,0.0,0.0,0.0,0.0,2.3095,0.0,0.0,0.0,0.0,2.197,2.1769,2.2444,2.3014,2.3383,2.4653,2.5522,2.5769,2.6243,2.6649,2.6931,2.6273,2.5824,2.5603,2.5143,2.5632,2.6944,2.784,2.8739,2.9523,2.8684,2.804,2.7385,0.0,0.0,2.3916,0.0,3.1587,3.3197,0.0,0.0,0.0,0.0,0.0,0.0,0.0,0.0,0.0,0.0,0.0,0.0,0.0,0.0,2.6482,2.907,3.0703,3.2616,3.6508,3.927,4.1679,4.4317,4.6476,0.0,0.0,0.0,0.0,0.0,0.0,0.0,0.0,0.0,0.0,0.0,0.0,0.0,0.0,0.0,0.0,0.0,0.0,0.0,0.0,0.0,0.0,4.959,4.959,4.959,4.959,4.959,4.959,4.959,4.959,4.959,4.959,4.959,4.959,4.959,4.959,4.8925,4.7608,4.5152,4.3715,4.2918,3.9854,3.8611,3.8611,3.8611,3.8611,3.8611,3.8611,3.8611,3.8611,0.0,0.0,0.0,0.0,0.0,0.0,0.0,0.0,2.3145,2.3145,0.0,0.0,0.0,0.0,0.0,2.248,2.311,2.3532,2.3518,2.4736,2.5756,2.6456,2.6483,2.6867,2.7572,2.6944,2.6273,2.5603,2.5603,2.5914,2.6584,2.7919,2.9205,3.0342,2.9116,2.8449,2.8182,0.0,2.6725,2.658,0.0,3.4547,3.1726,0.0,0.0,0.0,3.6856,3.7224,0.0,0.0,0.0,0.0,0.0,0.0,0.0,0.0,0.0,2.5042,0.0,0.0,0.0,3.3298,0.0,0.0,4.3438,0.0,0.0,0.0,0.0,0.0,0.0,0.0,0.0,0.0,0.0,0.0,0.0,0.0,0.0,0.0,0.0,0.0,0.0,0.0,0.0,0.0,0.0,4.959,4.959,4.959,4.959,4.959,4.959,4.959,4.959,4.959,4.959,4.959,4.959,4.959,4.959,4.959,4.959,4.9396,4.5716,4.3057,4.1241,3.9369,3.8611,3.8611,3.8611,3.8611,3.8611,3.8611,3.8611,3.8611,0.0,0.0,0.0,0.0,0.0,2.4566,2.4566,2.4114,2.3888,0.0,0.0,0.0,2.3738,2.4374,2.5054,2.5792,2.6203,2.6423,2.6382,2.625,2.6283,2.6483,2.6483,2.6867,2.7572,2.6944,2.6273,2.5603,2.5603,2.5453,2.5173,2.6542,2.732,2.7679,2.7812,2.7578,2.6996,2.5779,0.0,0.0,3.0879,3.443,0.0,0.0,0.0,0.0,0.0,4.2229,0.0,0.0,3.8361,3.305,0.0,0.0,0.0,0.0,0.0,0.0,2.5168,0.0,0.0,0.0,0.0,0.0,0.0,0.0,0.0,0.0,0.0,0.0,0.0,0.0,0.0,0.0,0.0,0.0,0.0,0.0,0.0,0.0,0.0,0.0,0.0,0.0,0.0,0.0,4.959,4.959,4.959,4.959,4.959,4.959,4.959,4.959,4.959,4.959,4.959,4.959,4.959,4.959,4.959,4.959,4.959,4.9396,4.5716,4.3806,4.3079,3.9926,3.8611,3.8611,3.8611,3.8611,3.8611,3.8611,3.8611,3.8611,0.0,0.0,2.5879,2.5561,2.5511,2.5586,2.5812,2.5184,2.4782,0.0,0.0,0.0,2.4632,2.5377,2.6196,2.6989,2.7235,2.7384,2.7502,2.7177,2.6971,2.6971,2.6971,2.7165,2.7585,2.7225,2.6554,2.5603,2.5603,2.5124,2.4216,2.5555,2.6033,2.5782,2.6465,2.6554,2.6099,2.4717,0.0,0.0,3.219,0.0,0.0,4.076,4.3617,0.0,0.0,0.0,4.225,4.4626,4.0731,0.0,0.0,0.0,0.0,0.0,0.0,2.6294,2.5677,2.654,0.0,0.0,0.0,0.0,0.0,0.0,0.0,0.0,0.0,0.0,0.0,0.0,0.0,0.0,0.0,0.0,0.0,0.0,0.0,0.0,0.0,0.0,0.0,0.0,0.0,0.0,4.959,4.959,4.959,4.959,4.959,4.959,4.959,4.959,4.959,4.959,4.959,4.959,4.959,4.959,4.959,4.959,4.959,4.9396,4.5716,4.4116,4.3806,4.0141,3.8611,3.8611,3.8611,3.8611,3.8611,3.8611,3.8611,3.8611,0.0,0.0,2.6524,2.6575,2.6575,2.6776,2.7311,2.6432,2.5737,0.0,2.5394,2.5293,2.5912,2.651,2.7001,2.7305,2.737,2.7495,2.7714,2.7639,2.7585,2.7585,2.7585,2.7585,2.7585,2.7585,2.6986,2.5693,2.5633,2.4986,2.3849,2.4885,2.5094,2.4623,2.5154,2.5364,2.5304,2.4418,0.0,2.8353,3.5249,3.7304,0.0,0.0,4.3552,0.0,4.4609,4.4096,4.2997,4.5234,4.2232,0.0,0.0,0.0,0.0,0.0,2.678,2.8717,2.7043,2.7336,0.0,0.0,0.0,0.0,0.0,0.0,0.0,0.0,0.0,0.0,0.0,0.0,0.0,0.0,0.0,0.0,0.0,0.0,0.0,0.0,0.0,0.0,0.0,0.0,4.8944,4.9464,4.9565,4.959,4.959,4.959,4.959,4.959,4.959,4.959,4.959,4.959,4.959,4.959,4.959,4.959,4.959,4.959,4.9493,4.9112,4.5615,4.3978,4.353,4.0033,3.8611,3.8611,3.8611,3.8611,3.8611,3.8611,3.8611,3.8611,2.531,2.5929,2.6625,2.706,2.7135,2.7311,2.7871,2.7035,2.6633,2.7494,2.7143,2.7168,2.8154,2.8906,2.9476,2.9847,2.9827,2.9639,2.9226,2.8196,2.7585,2.7585,2.7585,2.7585,2.7585,2.7585,2.7225,2.6393,2.5854,2.5453,2.5184,2.4388,2.4197,2.4575,2.4167,2.3999,2.4118,2.6015,0.0,3.0624,3.1931,0.0,3.9942,4.1932,4.5307,4.9056,4.9941,4.8982,4.697,0.0,4.3151,4.1203,0.0,0.0,0.0,0.0,0.0,0.0,0.0,0.0,0.0,0.0,0.0,0.0,0.0,0.0,0.0,0.0,0.0,0.0,0.0,0.0,0.0,0.0,0.0,0.0,0.0,0.0,0.0,0.0,0.0,0.0,0.0,0.0,4.8309,4.8919,4.9339,4.959,4.959,4.959,4.959,4.959,4.959,4.959,4.959,4.959,4.959,4.959,4.959,4.959,4.959,4.959,4.8795,4.7221,4.505,4.3231,4.1679,3.9514,3.8611,3.8611,3.8611,3.8611,3.8611,3.8611,3.8611,3.8611,2.5536,2.6097,2.6751,2.7562,2.7695,2.7971,2.8825,2.8222,2.7896,2.843,2.8254,2.8304,2.8838,2.9599,3.0221,3.0562,3.041,3.0086,2.9641,2.865,2.7944,2.7615,2.7585,2.7764,2.8081,2.7764,2.7435,2.7106,2.6093,2.5423,2.5083,2.4395,2.5501,2.7923,2.5262,2.5573,2.7936,0.0,2.7591,3.0303,3.4346,0.0,4.4542,4.628,4.89,5.1539,5.1097,4.9772,4.7953,4.5969,4.3834,0.0,0.0,3.8684,3.6803,0.0,3.2298,3.3274,0.0,0.0,0.0,2.9609,0.0,0.0,0.0,0.0,0.0,0.0,0.0,0.0,0.0,0.0,0.0,0.0,0.0,0.0,0.0,0.0,0.0,0.0,0.0,0.0,0.0,0.0,4.7757,4.8309,4.8586,4.8887,4.9163,4.922,4.9314,4.959,4.959,4.959,4.959,4.959,4.959,4.959,4.959,4.959,4.9558,4.8608,4.7674,4.6632,4.3922,4.2171,4.117,3.9333,3.8611,3.8611,3.8611,3.8611,3.8611,3.8611,3.8611,3.8611,2.5485,2.6097,2.6801,2.777,2.8021,2.8448,2.9478,2.9208,2.8888,2.8888,2.9283,2.9534,2.9534,3.0507,3.1278,3.1613,3.131,3.0904,3.0349,2.9594,2.8914,2.8379,2.7889,2.8038,2.8957,2.8068,2.7525,2.7405,2.6183,2.5334,2.4784,2.4545,2.6548,3.0225,2.7265,0.0,0.0,0.0,0.0,3.1426,0.0,4.2873,4.5839,4.8767,5.0409,5.1094,5.0537,4.9846,4.8907,4.7405,0.0,4.1848,4.2629,4.1349,0.0,0.0,0.0,0.0,0.0,0.0,0.0,0.0,0.0,3.0859,0.0,0.0,0.0,0.0,0.0,0.0,0.0,0.0,0.0,0.0,0.0,0.0,0.0,0.0,0.0,0.0,0.0,0.0,0.0,0.0,4.6697,4.7682,4.7355,4.7606,4.8743,4.8793,4.9069,4.9565,4.959,4.959,4.959,4.959,4.959,4.959,4.959,4.959,4.9525,4.7674,4.6599,4.6097,4.2744,4.1099,4.0672,3.9208,3.8611,3.8611,3.8611,3.8611,3.8611,3.8611,3.8611,3.8611,2.5385,2.6097,2.67,2.7286,2.777,2.8304,2.8907,2.8938,2.8888,2.8888,3.0613,3.1817,3.1817,3.3487,0.0,0.0,0.0,0.0,3.305,0.0,3.1103,3.113,2.8883,2.8467,3.033,2.8544,2.7315,2.6704,2.5974,2.5573,2.5453,2.4257,2.4616,2.641,2.9388,0.0,0.0,0.0,3.5473,0.0,4.043,3.9276,0.0,4.1905,4.4815,4.6777,4.9828,5.2088,5.2899,0.0,4.5903,4.4645,0.0,4.1482,4.3441,3.4716,0.0,0.0,0.0,0.0,0.0,0.0,3.0909,0.0,0.0,0.0,0.0,0.0,0.0,0.0,0.0,0.0,0.0,0.0,0.0,0.0,0.0,0.0,0.0,0.0,0.0,0.0,0.0,0.0,0.0,4.6998,4.5367,4.5573,4.8642,4.8793,4.9069,4.9565,4.959,4.959,4.959,4.959,4.959,4.959,4.959,4.959,4.9525,4.7674,4.5929,4.4299,4.2185,4.0407,3.8882,3.8683,3.8611,3.8611,3.8611,3.8611,3.8611,3.8611,3.8611,3.8611,2.4992,2.5586,2.6055,2.6281,2.7042,2.7821,2.8355,2.9258,2.976,2.9459,3.0487,3.1265,0.0,0.0,0.0,0.0,0.0,3.4739,0.0,0.0,3.2074,3.101,2.9557,2.9152,3.0017,2.8442,2.7465,2.7195,2.5734,2.5023,2.4993,2.4059,2.5944,3.0195,3.0206,0.0,3.5693,0.0,3.5271,0.0,0.0,0.0,0.0,4.574,4.9087,4.9389,4.9981,5.0804,5.1278,0.0,4.5936,0.0,0.0,0.0,0.0,0.0,0.0,0.0,0.0,0.0,0.0,0.0,0.0,0.0,3.0733,0.0,3.008,0.0,0.0,0.0,0.0,0.0,0.0,0.0,0.0,0.0,0.0,0.0,0.0,0.0,0.0,0.0,0.0,0.0,0.0,0.0,0.0,4.5321,4.7707,4.8109,4.8535,4.9145,4.9439,4.959,4.959,4.959,4.959,4.959,4.959,4.9047,4.7929,4.6063,4.4231,4.2382,4.055,3.9297,3.8611,3.8611,3.8611,3.8611,3.8611,3.8611,3.8611,3.8611,3.8611,3.8611,2.4264,2.4892,2.5435,2.5561,2.6432,2.7361,2.8179,2.9358,3.0036,0.0,0.0,0.0,3.1466,3.2337,0.0,0.0,0.0,3.6571,0.0,0.0,3.3803,3.2939,3.0764,0.0,0.0,2.8734,2.7435,2.7033,2.5393,2.4593,2.4605,2.4107,2.6632,3.16,3.1172,3.4385,3.9959,0.0,0.0,3.8871,3.9802,4.0682,4.2146,4.9129,5.1868,5.1803,5.0181,4.9886,5.0085,4.9013,4.587,0.0,4.6246,0.0,0.0,0.0,0.0,0.0,3.347,0.0,0.0,0.0,0.0,0.0,0.0,0.0,0.0,0.0,0.0,0.0,0.0,0.0,0.0,0.0,0.0,0.0,0.0,0.0,0.0,0.0,0.0,0.0,0.0,0.0,0.0,0.0,0.0,0.0,4.6973,4.745,4.8033,4.8768,4.9195,4.9439,4.959,4.959,4.9339,4.8828,4.9339,4.8347,4.603,4.4676,4.3079,4.1184,3.9369,3.8611,3.8611,3.8611,3.8611,3.8611,3.8611,3.8611,3.8611,3.8611,3.8611,3.8611,2.3145,2.4064,2.4992,2.5511,2.6105,2.706,2.8631,2.8932,0.0,0.0,0.0,0.0,0.0,0.0,0.0,0.0,0.0,4.138,4.0005,0.0,3.7053,0.0,0.0,3.1097,0.0,2.9922,2.6944,2.5663,2.4963,2.4593,2.4593,2.4575,0.0,0.0,3.2751,3.4956,3.4691,3.962,4.3799,4.6935,4.4782,4.697,5.1232,0.0,4.9477,5.1803,5.0181,0.0,0.0,4.7502,4.6082,0.0,0.0,0.0,0.0,0.0,0.0,0.0,0.0,0.0,0.0,3.1738,0.0,0.0,0.0,0.0,3.0432,0.0,0.0,0.0,0.0,0.0,0.0,0.0,0.0,0.0,0.0,0.0,0.0,0.0,0.0,0.0,0.0,0.0,0.0,0.0,0.0,0.0,4.6873,4.7124,4.7657,4.8768,4.8818,4.9095,4.959,4.959,4.8698,4.6898,4.873,4.7698,4.4185,4.415,4.3079,4.1184,3.9369,3.8611,3.8611,3.8611,3.8611,3.8611,3.8611,3.8611,3.8611,3.8611,3.8611,3.8611,2.3703,2.4014,2.4189,2.3988,2.5034,2.6465,0.0,2.9308,0.0,0.0,0.0,0.0,0.0,0.0,3.8291,0.0,0.0,4.0996,4.0786,3.8758,0.0,0.0,0.0,3.2692,0.0,0.0,2.8274,2.6914,2.5812,2.5274,2.5274,2.5274,0.0,0.0,0.0,3.5721,0.0,0.0,0.0,0.0,0.0,4.7512,5.027,0.0,0.0,5.1927,5.1393,5.0853,0.0,4.8853,4.6937,4.5316,4.6379,4.4478,4.2038,4.2944,4.2735,0.0,0.0,0.0,4.1354,3.5828,0.0,0.0,0.0,0.0,0.0,0.0,0.0,0.0,0.0,0.0,0.0,0.0,0.0,0.0,0.0,0.0,0.0,0.0,0.0,0.0,0.0,0.0,0.0,0.0,0.0,0.0,0.0,4.7099,4.7274,4.7682,4.8416,4.8894,4.9095,4.8183,4.7419,4.6798,4.6221,4.4641,4.2241,4.2241,4.1241,3.9478,3.8846,3.8611,3.8611,3.8611,3.8611,3.8611,3.8611,3.8611,3.8611,3.8611,3.8611,3.8611,2.4315,2.4264,2.4164,2.3772,2.4933,0.0,0.0,0.0,0.0,0.0,3.3567,0.0,3.7211,0.0,3.8818,0.0,4.1178,4.1301,4.1097,3.9709,0.0,3.9497,3.6699,0.0,0.0,0.0,0.0,2.9272,2.7272,2.6303,2.6315,2.6063,0.0,0.0,0.0,3.5419,4.0253,0.0,4.3992,0.0,0.0,4.8334,0.0,0.0,5.1268,0.0,0.0,5.0499,4.959,4.959,4.8159,4.6778,4.8912,4.6652,4.3639,4.5773,4.5146,4.3539,4.2559,4.384,0.0,3.8894,3.8542,0.0,3.2968,0.0,0.0,0.0,0.0,0.0,0.0,0.0,0.0,0.0,0.0,0.0,0.0,0.0,0.0,0.0,0.0,0.0,0.0,0.0,0.0,0.0,0.0,0.0,0.0,0.0,4.7099,4.7099,4.7832,4.8385,4.8793,4.7271,4.63,4.5828,4.4641,4.2801,4.0371,4.1028,4.03,3.8611,3.8611,3.8611,3.8611,3.8611,3.8611,3.8611,3.8611,3.8611,3.8611,3.8611,3.8611,3.8611,2.5007,2.4899,0.0,0.0,2.5778,0.0,0.0,0.0,3.0728,0.0,3.3796,3.5228,3.799,3.922,4.03,4.1378,4.2434,0.0,4.1359,4.063,0.0,0.0,3.9591,3.9059,4.0818,0.0,0.0,0.0,2.9241,2.7675,2.7645,2.7003,2.7003,0.0,3.0329,0.0,3.876,4.1372,4.5248,4.959,4.959,4.9547,4.9645,5.1278,0.0,4.7334,4.9089,4.9687,4.959,4.959,4.959,4.959,4.959,4.959,4.959,4.959,4.959,4.9012,4.6401,4.5698,4.4769,4.0927,0.0,0.0,0.0,0.0,3.5558,0.0,0.0,0.0,0.0,0.0,0.0,0.0,0.0,0.0,0.0,0.0,0.0,0.0,0.0,0.0,0.0,0.0,0.0,0.0,0.0,0.0,0.0,0.0,0.0,4.7048,4.7099,4.7631,4.8718,4.6932,4.5339,4.4071,4.399,4.2066,3.8647,4.0371,4.0228,3.8611,3.8611,3.8611,3.8611,3.8611,3.8611,3.8611,3.8611,3.8611,3.8611,3.8611,3.8611,3.8611,2.6498,2.6202,2.6055,0.0,2.6298,2.7002,0.0,0.0,0.0,0.0,3.711,3.9245,4.2007,4.2208,4.2585,4.3661,4.3664,0.0,0.0,0.0,0.0,4.3832,4.1512,4.0615,4.1516,3.7201,0.0,3.3723,0.0,2.883,2.8338,2.8158,2.7902,2.7705,0.0,0.0,3.876,4.1372,4.5248,4.959,4.959,4.8867,0.0,0.0,4.8917,4.7479,5.035,5.06,4.959,4.959,4.959,4.959,4.959,4.959,4.959,4.959,4.959,4.9439,4.8736,4.8535,4.7807,4.4769,4.3489,4.2233,0.0,0.0,0.0,0.0,0.0,0.0,0.0,0.0,0.0,0.0,0.0,0.0,0.0,0.0,0.0,0.0,0.0,0.0,0.0,0.0,0.0,0.0,0.0,0.0,0.0,0.0,0.0,4.6421,4.6898,4.7249,4.7525,4.6512,4.5153,4.3488,4.2488,4.0814,3.8611,3.91,3.9027,3.8611,3.8611,3.8611,3.8611,3.8611,3.8611,3.8611,3.8611,3.8611,3.8611,3.8611,3.8611,3.8611,2.7739,0.0,0.0,2.7512,0.0,0.0,3.0161,0.0,0.0,3.5954,3.7889,0.0,4.2108,4.3162,4.394,4.4539,4.4313,0.0,0.0,0.0,0.0,4.4163,4.3357,4.3177,4.3738,4.0564,0.0,3.6247,0.0,0.0,2.9026,2.844,2.7961,2.7705,0.0,3.3333,3.671,4.1441,4.4963,4.7556,4.9012,0.0,0.0,4.9242,4.902,4.844,5.0286,5.0372,4.959,4.959,4.959,4.959,4.959,4.959,4.959,4.959,4.959,4.959,4.959,4.959,4.9213,4.7657,4.6803,4.5623,4.2908,4.2082,4.1856,0.0,0.0,0.0,0.0,0.0,0.0,0.0,0.0,0.0,0.0,0.0,0.0,0.0,0.0,0.0,0.0,0.0,0.0,0.0,0.0,0.0,0.0,0.0,0.0,4.4525,4.6218,4.6736,4.5999,4.5214,4.3916,4.2152,4.0784,3.9586,3.8611,3.8611,3.8611,3.8611,3.8611,3.8611,3.8611,3.8611,3.8611,3.8611,3.8611,3.8611,3.8611,3.8611,3.8611,3.8611,0.0,0.0,0.0,0.0,0.0,0.0,0.0,3.2244,0.0,3.6482,0.0,3.9446,4.1003,4.3209,4.4665,4.4815,0.0,4.4285,4.3329,4.4249,4.4539,4.3975,4.5008,4.5824,4.6301,4.4419,0.0,0.0,0.0,0.0,2.9428,2.8274,2.7735,2.7842,0.0,0.0,0.0,4.1741,4.484,0.0,4.8435,4.959,4.959,4.959,4.959,4.959,4.959,4.959,4.959,4.959,4.959,4.959,4.959,4.959,4.959,4.959,4.959,4.959,4.959,4.959,4.959,4.959,4.959,4.8837,4.5919,4.5242,4.5242,4.5242,4.2986,0.0,0.0,0.0,0.0,0.0,0.0,0.0,0.0,0.0,0.0,0.0,0.0,0.0,0.0,0.0,0.0,0.0,0.0,0.0,0.0,0.0,0.0,0.0,4.5257,0.0,4.4603,0.0,4.2294,4.0654,3.9448,3.877,3.8611,3.8611,3.8611,3.8611,3.8611,3.8611,3.8611,3.8611,3.8611,3.8611,3.8611,3.8611,3.8611,3.8611,3.8611,3.8611,0.0,0.0,0.0,0.0,0.0,3.3592,3.5979,3.7337,3.8517,3.9647,4.1904,0.0,4.4543,4.4618,4.4966,4.5924,4.5598,0.0,0.0,0.0,0.0,4.5839,4.6039,4.62,4.6301,4.3978,4.1238,0.0,0.0,0.0,2.8757,2.8517,2.8427,2.8461,2.9315,0.0,3.9385,4.3053,0.0,4.8786,4.9364,4.959,4.959,4.959,4.959,4.959,4.959,4.959,4.959,4.959,4.959,4.959,4.959,4.959,4.959,4.959,4.959,4.959,4.959,4.959,4.959,4.959,4.959,4.9439,4.8862,4.8736,4.8736,4.8736,4.8259,4.738,4.5769,0.0,0.0,0.0,0.0,0.0,0.0,0.0,0.0,0.0,0.0,0.0,0.0,0.0,0.0,0.0,0.0,0.0,0.0,0.0,0.0,0.0,0.0,0.0,0.0,0.0,0.0,4.0515,4.0389,3.9704,3.8611,3.8611,3.8611,3.8611,3.8611,3.8611,3.8611,3.8611,3.8611,3.8611,3.8611,3.8611,3.8611,3.8611,3.8611,3.8611,0.0,0.0,0.0,0.0,0.0,0.0,0.0,4.1254,0.0,4.1076,4.2333,4.3492,4.3768,4.4794,4.5693,4.625,4.6075,4.6024,4.6301,4.6301,4.6301,4.6301,4.6301,0.0,4.6301,0.0,4.2527,3.8414,0.0,0.0,2.9099,2.841,2.8023,2.8029,3.0387,3.377,0.0,0.0,0.0,4.7179,4.8887,4.959,4.959,4.959,4.959,4.959,4.959,4.959,4.959,4.959,4.959,4.959,4.959,4.959,4.959,4.959,4.959,4.959,4.959,4.959,4.959,4.959,4.959,4.959,4.959,4.959,4.959,4.959,4.959,4.8586,4.5217,4.1932,0.0,0.0,0.0,0.0,0.0,0.0,0.0,0.0,0.0,0.0,0.0,0.0,0.0,0.0,0.0,0.0,0.0,0.0,0.0,0.0,0.0,0.0,0.0,0.0,0.0,3.8843,3.9121,3.9022,3.8611,3.8611,3.8611,3.8611,3.8611,3.8611,3.8611,3.8611,3.8611,3.8611,3.8611,3.8611,3.8611,3.8611,3.8611,3.8611,0.0,3.2206,0.0,0.0,3.7079,0.0,0.0,4.3765,4.4694,4.2482,4.271,4.3065,4.3065,4.4995,4.6301,4.6301,4.6301,4.6301,4.6301,4.6301,4.6301,4.6301,4.6301,4.6301,4.6301,4.6301,4.407,0.0,0.0,0.0,0.0,2.8554,0.0,0.0,0.0,0.0,0.0,0.0,4.5016,4.5869,4.8535,4.959,4.959,4.959,4.959,4.959,4.959,4.959,4.959,4.959,4.959,4.959,4.959,4.959,4.959,4.959,4.959,4.959,4.959,4.959,4.959,4.959,4.959,4.959,4.959,4.959,4.959,4.959,4.959,4.8586,4.5217,4.3087,0.0,0.0,0.0,0.0,0.0,0.0,0.0,0.0,0.0,0.0,0.0,0.0,0.0,0.0,0.0,0.0,0.0,0.0,0.0,0.0,0.0,4.25,4.0265,0.0,3.8743,0.0,3.7676,3.8066,3.8611,3.8611,3.8611,3.8611,3.8611,3.8611,3.8611,3.8611,3.8611,3.8611,3.8611,3.8611,3.8611,3.8611,3.8611,3.8611,0.0,0.0,0.0,0.0,0.0,0.0,0.0,4.4044,4.5397,4.5121,4.5573,4.5924,4.5924,4.615,4.6301,4.6301,4.6301,4.6301,4.6301,4.6301,4.6301,4.6301,4.6301,4.6301,4.6301,4.6301,4.4672,0.0,0.0,0.0,0.0,0.0,0.0,0.0,0.0,0.0,0.0,4.4145,4.6346,4.9163,4.9464,4.959,4.959,4.959,4.959,4.959,4.959,4.959,4.959,4.959,4.959,4.959,4.959,4.959,4.959,4.959,4.959,4.959,4.959,4.959,4.959,4.959,4.959,4.959,4.959,4.959,4.959,4.959,4.959,4.8586,4.5217,4.6828,4.7179,0.0,0.0,0.0,0.0,0.0,0.0,0.0,0.0,0.0,0.0,0.0,0.0,0.0,0.0,0.0,0.0,0.0,0.0,3.752,0.0,3.7389,3.7116,3.7072,0.0,3.7816,3.7519,3.7793,3.8611,3.8611,3.8611,3.8611,3.8611,3.8611,3.8611,3.8611,3.8611,3.8611,3.8611,3.8611,3.8611,3.8611,3.8611,3.8611,0.0,0.0,0.0,0.0,0.0,0.0,0.0,4.5397,4.5974,4.5974,4.6175,4.6301,4.6301,4.6301,4.6301,4.6301,4.6301,4.6301,4.6301,4.6301,4.6301,4.6301,4.6301,4.6301,4.6301,4.6301,4.5099,0.0,0.0,0.0,0.0,0.0,0.0,0.0,0.0,4.1424,4.3966,4.6527,4.8385,4.959,4.959,4.959,4.959,4.959,4.959,4.959,4.959,4.959,4.959,4.959,4.959,4.959,4.959,4.959,4.959,4.959,4.959,4.959,4.959,4.959,4.959,4.959,4.959,4.959,4.959,4.959,4.959,4.959,4.959,4.9188,4.7857,4.7054,4.6627,0.0,0.0,0.0,0.0,0.0,0.0,0.0,0.0,0.0,0.0,0.0,0.0,0.0,0.0,0.0,0.0,0.0,0.0,3.6178,0.0,3.9845,3.7843,3.7331,3.748,3.8301,3.7871,3.8125,3.8945,3.8728,3.8611,3.8611,3.8611,3.8611,3.8611,3.8611,3.8611,3.8611,3.8611,3.8611,3.8611,3.8611,3.8611,3.8611,4.0886,0.0,4.1487,0.0,4.3843,4.407,4.5999,4.6301,4.6301,4.6301,4.6301,4.6301,4.6301,4.6301,4.6301,4.6301,4.6301,4.6301,4.6301,4.6301,4.6376,4.6522,4.6552,0.0,4.6778,4.6778,4.6096,4.4722,4.1397,0.0,0.0,0.0,0.0,0.0,4.2631,4.4443,4.5673,4.8435,4.959,4.959,4.959,4.959,4.959,4.959,4.959,4.959,4.959,4.959,4.959,4.959,4.959,4.959,4.959,4.959,4.959,4.959,4.959,4.959,4.959,4.959,4.959,4.959,4.959,4.959,4.959,4.959,4.959,4.959,4.959,4.959,4.959,4.7682,4.6702,0.0,0.0,0.0,0.0,0.0,0.0,0.0,0.0,4.4173,0.0,0.0,0.0,0.0,0.0,0.0,0.0,0.0,0.0,0.0,0.0,0.0,0.0,0.0,3.7851,3.8611,3.8125,3.8379,3.918,3.8769,3.8611,3.8611,3.8611,3.8611,3.8611,3.8611,3.8611,3.8611,3.8611,3.8611,3.8611,3.8611,3.8496,3.8379,4.3492,4.3543,4.4126,4.5952,4.625,4.6276,4.6301,4.6301,4.6301,4.6301,4.6301,4.6301,4.6301,4.6301,4.6301,4.6301,4.6301,4.6301,4.6301,4.6301,4.6522,0.0,0.0,4.7324,4.7883,4.7883,4.7883,4.7832,0.0,0.0,4.4913,4.1593,4.1337,4.3743,4.379,4.5924,4.9515,4.9565,4.959,4.959,4.959,4.959,4.959,4.959,4.959,4.959,4.959,4.959,4.959,4.959,4.959,4.959,4.959,4.959,4.959,4.959,4.959,4.959,4.959,4.959,4.959,4.959,4.959,4.959,4.959,4.959,4.959,4.959,4.959,4.959,4.959,4.9565,4.9012,4.74,0.0,0.0,0.0,0.0,0.0,0.0,4.1304,3.9791,4.1715,0.0,0.0,0.0,0.0,0.0,0.0,0.0,0.0,3.5346,3.5457,0.0,3.474,3.6836,3.8144,3.8611,3.8125,3.8379,3.918,3.8769,3.8611,3.8611,3.8611,3.8611,3.8611,3.8611,3.8611,3.8611,3.8611,3.8611,3.8611,3.8611,3.8301,3.7894,4.7116,4.6134,4.5627,4.621,4.6301,4.6426,4.6772,4.6848,4.6973,4.7355,4.7405,4.7255,4.6873,4.6527,4.6301,0.0,4.6301,4.6301,0.0,4.6622,4.6923,4.7099,4.745,4.7732,4.7908,4.7908,4.8109,4.8485,0.0,0.0,0.0,4.4547,4.5559,4.8253,4.7933,4.8435,4.959,4.959,4.959,4.959,4.959,4.959,4.959,4.959,4.959,4.959,4.959,4.959,4.959,4.959,4.959,4.959,4.959,4.959,4.959,4.959,4.959,4.959,4.959,4.959,4.959,4.959,4.959,4.959,4.959,4.959,4.959,4.959,4.959,4.959,4.959,4.959,4.9414,4.8887,0.0,0.0,0.0,0.0,0.0,0.0,0.0,4.4532,0.0,0.0,0.0,0.0,0.0,0.0,0.0,0.0,0.0,0.0,3.753,0.0,3.6484,3.7734,3.875,3.9473,3.9004,3.9101,3.9668,3.9199,3.918,3.9434,3.8884,3.8787,3.8984,3.8691,3.8398,3.8125,3.8125,3.7949,3.7695,3.7695,3.7617,3.75,4.8791,4.7478,4.6597,4.6597,4.6778,4.7029,4.735,4.74,4.75,4.7857,4.7908,4.7782,4.7425,4.7104,0.0,4.6351,4.6301,0.0,4.6572,4.6923,4.7274,4.7732,4.8058,4.8335,4.8535,0.0,0.0,4.912,4.7633,4.727,4.793,4.8135,4.8993,5.0393,5.0067,4.9791,4.959,4.959,4.959,4.959,4.959,4.959,4.959,4.959,4.959,4.959,4.959,4.959,4.959,4.959,4.959,4.959,4.959,4.959,4.959,4.959,4.959,4.959,4.959,4.959,4.959,4.959,4.959,4.959,4.959,4.959,4.959,4.959,4.959,4.959,4.959,4.959,4.959,4.959,4.959,4.959,4.959,0.0,0.0,0.0,0.0,0.0,0.0,4.0864,0.0,0.0,0.0,0.0,0.0,0.0,0.0,3.5385,3.8562,0.0,3.7809,3.8337,3.906,3.9902,3.9766,3.9766,3.9883,3.9414,3.9355,3.959,3.8887,3.8633,3.8711,3.8437,3.8086,3.766,3.766,3.7539,3.7305,3.7305,3.7187,3.707,4.9016,4.7961,0.0,0.0,4.755,0.0,4.7958,4.7958,4.7983,4.8008,4.8033,4.8008,4.7983,4.8008,4.7606,4.6577,0.0,0.0,0.0,4.7299,4.7776,4.8868,4.8919,0.0,4.969,4.9665,4.9665,4.9715,5.0795,5.1381,5.1381,5.1875,5.1548,5.0486,5.0444,5.0117,4.964,4.9615,4.959,4.959,4.959,4.959,4.959,4.959,4.959,4.959,4.959,4.959,4.959,4.959,4.959,4.9615,4.964,4.9615,4.959,4.959,4.959,4.959,4.959,4.959,4.959,4.959,4.959,4.959,4.959,4.959,4.959,4.959,4.959,4.959,4.959,4.959,4.959,4.959,4.959,4.959,4.959,0.0,0.0,0.0,0.0,0.0,0.0,3.9399,3.9062,0.0,0.0,0.0,0.0,0.0,3.4668,3.8493,3.8611,3.8611,3.8611,3.865,3.908,3.9902,4.0332,4.0293,3.9883,3.9453,3.9258,3.9219,3.8806,3.8359,3.7972,3.7952,3.7715,3.7344,3.7305,3.7285,3.7246,3.7226,3.6953,3.6675,0.0,0.0,4.9157,4.7923,4.7832,4.8058,4.8542,4.8592,4.8711,4.9138,4.9188,4.9038,4.8642,4.8937,4.8912,4.8291,4.8215,4.8265,4.8385,4.9163,4.9766,5.0017,5.0017,5.0293,5.087,5.0444,5.0444,5.0896,5.1574,5.19,5.1925,5.2051,5.1975,5.1674,5.0795,5.0343,5.0193,4.9766,4.959,4.959,4.959,4.959,4.959,4.959,4.959,4.959,4.959,4.959,4.959,4.959,4.959,4.9665,5.0092,4.9941,4.959,4.959,4.959,4.959,4.959,4.959,4.959,4.959,4.959,4.959,4.959,4.959,4.959,4.959,4.959,4.959,4.959,4.959,4.959,4.959,4.959,4.959,4.959,4.959,0.0,0.0,4.7162,4.5932,4.5061,4.2435,3.9956,0.0,0.0,0.0,0.0,3.4746,3.5586,3.8513,3.8611,3.8611,3.8611,3.8887,3.9336,3.9902,4.0332,4.0293,3.9883,3.9785,3.9726,3.9687,3.8906,3.8691,3.8867,3.8555,3.8164,3.7734,3.7422,3.7109,3.6812,3.6445,3.6269,3.623,5.2266,5.1289,5.0215,4.8597,4.851,4.8786,4.9145,4.9195,4.9264,4.9565,4.959,4.9565,4.954,4.9791,4.9967,4.9949,4.9471,4.9264,4.9515,5.0092,5.0544,5.0795,5.082,5.0971,5.1306,5.0971,5.1096,5.1649,5.195,5.2226,5.2477,5.2477,5.2352,5.2076,5.1197,5.067,5.0361,4.9816,4.959,4.959,4.959,4.959,4.959,4.959,4.959,4.959,4.959,4.9766,4.9967,4.9967,5.0142,5.0419,5.072,5.0619,5.0368,5.0368,4.9992,4.959,4.959,4.959,4.959,4.959,4.959,4.959,4.959,4.959,4.959,4.959,4.959,4.959,4.959,4.959,4.959,4.959,4.8962,4.8736,4.949,4.8937,0.0,4.9515,4.8698,4.741,4.5727,4.3749,4.1287,3.8235,0.0,0.0,3.6465,3.6465,3.7109,3.8571,3.8611,3.8611,3.8611,3.8984,3.9336,3.959,4.0019,4.0117,3.9883,3.9668,3.957,3.9551,3.8904,3.8594,3.8594,3.8379,3.8027,3.7617,3.7383,3.7031,3.6695,3.6621,3.6484,3.6387,5.3219,5.2294,5.1158,4.9563,4.9455,4.959,4.959,4.959,4.959,4.959,4.9665,4.9891,5.0336,5.0536,5.087,5.1373,5.0594,5.0268,5.0645,5.0712,5.1021,5.1498,5.1448,5.1448,5.1523,5.1523,5.1749,5.2226,5.2226,5.2477,5.2895,5.2895,5.2644,5.2201,5.1574,5.0996,5.0494,4.9866,4.959,4.959,4.959,4.959,4.959,4.959,4.959,4.9615,4.969,5.0017,5.0411,5.0519,5.087,5.1297,5.1406,5.1381,5.1331,5.1406,5.067,4.9841,4.9841,4.9841,4.9816,4.9741,4.9715,4.969,4.9615,4.959,4.959,4.959,4.959,4.959,4.959,4.959,4.9414,4.8937,4.8083,4.7801,4.8711,0.0,4.8002,4.9414,4.959,4.8248,4.4846,4.4288,4.2696,3.9261,3.8756,0.0,0.0,3.8611,3.8611,3.8611,3.8611,3.865,3.8708,3.8965,3.9141,3.9199,3.9609,3.9766,3.9687,3.9355,3.916,3.9082,3.8767,3.8359,3.8027,3.8027,3.7812,3.748,3.7422,3.7168,3.6929,3.7187,3.707,3.6851,5.5558,5.4534,5.3383,5.1795,5.0454,4.959,4.959,4.959,4.959,4.959,4.9992,5.0318,5.0386,5.1272,5.1875,5.1975,5.2251,5.2218,5.1875,5.2243,5.2544,5.2644,5.2226,5.2201,5.2619,5.2644,5.2669,5.277,5.277,5.282,5.2895,5.2895,5.2845,5.2719,5.1724,5.1255,5.1071,5.0042,4.959,4.959,4.959,4.959,4.959,4.959,4.959,4.9665,5.0117,5.0343,5.0494,5.0971,5.1197,5.1373,5.1825,5.1649,5.1406,5.185,5.1523,5.1054,5.1054,5.1054,5.0896,5.0419,5.0293,5.0167,4.969,4.959,4.959,4.959,4.959,4.959,4.959,4.959,4.8686,4.5849,4.7531,4.8309,4.5748,0.0,4.9314,4.9565,4.959,4.8763,4.6565,4.4982,4.3218,4.1063,3.9478,3.8611,3.8611,3.8611,3.8611,3.8611,3.8611,3.875,3.9101,3.8809,3.8848,3.9199,3.9277,3.9121,3.8826,3.9062,3.9004,3.8708,3.865,3.8571,3.8476,3.8476,3.8437,3.834,3.7969,3.7793,3.7695,3.7402,3.7266,3.7266,5.5452,5.4721,5.361,5.1142,5.011,4.959,4.959,4.959,4.959,4.959,5.0067,5.0544,5.0845,5.1624,5.2226,5.2528,5.2744,5.2795,5.2578,5.2744,5.2895,5.2895,5.2644,5.2678,5.2895,5.2895,5.2895,5.2895,5.2895,5.2895,5.2895,5.2895,5.2895,5.287,5.2076,5.1548,5.128,5.072,5.0142,4.9615,4.9916,4.9866,4.9615,4.9916,5.0042,5.0117,5.067,5.1071,5.1373,5.1624,5.1925,5.2226,5.2477,5.2377,5.2226,5.2477,5.195,5.1306,5.1306,5.1306,5.1222,5.0946,5.087,5.082,5.0569,5.0268,5.0042,5.0042,4.9791,4.959,4.959,4.959,4.9088,4.7556,4.7832,0.0,0.0,4.7857,4.8611,4.949,4.873,4.7377,4.5524,4.368,4.182,3.9998,3.9063,3.8611,3.8611,3.8611,3.8611,3.8611,3.8611,3.8708,3.8867,3.8708,3.8708,3.8867,3.8867,3.8769,3.8611,3.8769,3.8787,3.8611,3.8611,3.8611,3.8611,3.8611,3.8611,3.8591,3.8359,3.8125,3.7894,3.7969,3.7832,3.7695,5.5879,5.5181,5.4059,5.1231,5.0404,5.0046,4.9654,4.9715,4.9791,4.9791,5.0268,5.0845,5.1398,5.185,5.2327,5.2845,5.2895,5.2895,5.2895,5.2895,5.2895,5.2895,5.2895,5.2895,5.2895,5.2895,5.2895,5.2895,5.2895,5.2895,5.2895,5.2895,5.2895,5.287,5.2352,5.1875,5.1473,5.1348,5.0795,5.0017,5.0444,5.0368,5.0042,5.0469,5.0619,5.0695,5.1272,5.1749,5.2126,5.2251,5.2578,5.2895,5.2895,5.2895,5.2895,5.2895,5.2327,5.1649,5.1649,5.1649,5.1624,5.1498,5.1473,5.1448,5.1322,5.0946,5.0619,5.0619,5.0268,4.9941,4.9816,4.9791,4.949,4.8586,0.0,0.0,0.0,4.7977,4.8153,4.9439,4.7937,4.6097,4.4288,4.2417,4.055,3.8756,3.8611,3.8611,3.8611,3.8611,3.8611,3.8611,3.8611,3.8611,3.8611,3.8611,3.8611,3.8611,3.8611,3.8611,3.8611,3.8611,3.8611,3.8611,3.8611,3.8611,3.8611,3.8611,3.8611,3.8611,3.8611,3.8359,3.8105,3.8493,3.8359,3.8125,5.8798,5.7552,5.5993,5.4327,5.2792,5.133,4.9822,5.0017,5.0336,5.0336,5.087,5.1423,5.1975,5.2076,5.2327,5.2845,5.2895,5.2895,5.2895,5.2895,5.2895,5.2895,5.2895,5.2895,5.2895,5.2895,5.2895,5.2895,5.2895,5.2895,5.2895,5.2895,5.2895,5.287,5.2352,5.2076,5.2026,5.1498,5.1255,5.1205,5.1197,5.1197,5.1205,5.1197,5.1222,5.1297,5.185,5.2076,5.2176,5.2669,5.287,5.2895,5.2895,5.2895,5.2895,5.2895,5.2845,5.277,5.277,5.277,5.2644,5.2176,5.2051,5.19,5.1398,5.128,5.1222,5.1222,5.1197,5.0996,5.0444,5.0336,4.9156,4.5543,0.0,0.0,4.5367,4.7556,4.9464,4.959,4.7937,4.6097,4.4288,4.2417,4.055,3.8756,3.8611,3.8611,3.8611,3.8611,3.8611,3.8611,3.8611,3.8611,3.8611,3.8611,3.8611,3.8611,3.8611,3.8611,3.8611,3.8611,3.8611,3.8611,3.8611,3.8611,3.8611,3.8611,3.8611,3.8611,3.8611,3.8591,3.8535,3.8591,3.8591,3.8535,5.7832,5.7103,5.6194,5.4653,5.3066,5.1934,5.1609,5.062,5.0167,5.087,5.1147,5.1498,5.2051,5.2402,5.2669,5.287,5.2895,5.2895,5.2895,5.2895,5.2895,5.2895,5.2895,5.2895,5.2895,5.2895,5.2895,5.2895,5.2895,5.2895,5.2895,5.2895,5.2895,5.2895,5.2669,5.2427,5.2126,5.2251,5.19,5.1322,5.1649,5.1599,5.1356,5.1649,5.18,5.1875,5.2427,5.2628,5.2619,5.282,5.2895,5.2895,5.2895,5.2895,5.2895,5.2895,5.2895,5.2895,5.2895,5.2895,5.2845,5.2678,5.2628,5.2519,5.2352,5.2026,5.18,5.18,5.1523,5.1222,5.0996,5.0946,5.0082,4.7321,0.0,4.7515,4.4996,4.5548,4.6187,4.6187,4.4516,4.3127,4.2452,4.0708,3.9333,3.8647,3.8611,3.8611,3.8611,3.8611,3.8611,3.8611,3.8611,3.8611,3.8611,3.8611,3.8611,3.8611,3.8611,3.8611,3.8611,3.8611,3.8611,3.8611,3.8611,3.8611,3.8611,3.8611,3.8611,3.8611,3.8611,3.8611,3.8611,3.8611,3.8611,3.8611,5.7664,5.744,5.6962,5.5385,5.382,5.2711,5.2579,5.1011,5.0117,5.0921,5.1172,5.1498,5.2051,5.2452,5.2694,5.287,5.2895,5.2895,5.2895,5.2895,5.2895,5.2895,5.2895,5.2895,5.2895,5.2895,5.2895,5.2895,5.2895,5.2895,5.2895,5.2895,5.2895,5.2895,5.2895,5.2729,5.2377,5.2719,5.2503,5.1825,5.2201,5.2126,5.185,5.2226,5.2352,5.2402,5.2744,5.2895,5.2895,5.2895,5.2895,5.2895,5.2895,5.2895,5.2895,5.2895,5.2995,5.3146,5.3146,5.3306,5.3356,5.297,5.2895,5.2895,5.2895,5.2628,5.2352,5.2352,5.2076,5.1749,5.1574,5.1548,5.1046,4.949,4.8482,4.7401,4.6034,4.5079,4.4428,4.4328,4.2667,4.1458,4.1311,3.9638,3.8611,3.8611,3.8611,3.8611,3.8611,3.8611,3.8611,3.8611,3.8611,3.8611,3.8611,3.8611,3.8611,3.8611,3.8611,3.8611,3.8611,3.8611,3.8611,3.8611,3.8611,3.8611,3.8611,3.8611,3.8611,3.8611,3.8611,3.8611,3.8611,3.8611,3.8611,3.8611,5.9129,5.9129,5.8607,5.699,5.5415,5.3877,5.2267,5.1088,5.0386,5.0444,5.0946,5.1498,5.2051,5.2126,5.2327,5.2845,5.2895,5.2895,5.2895,5.2895,5.2895,5.2895,5.2895,5.2895,5.2895,5.2895,5.2895,5.2895,5.2895,5.2895,5.2895,5.2895,5.2895,5.2895,5.2895,5.2895,5.2895,5.2895,5.2895,5.2895,5.2895,5.2895,5.2895,5.2895,5.2895,5.2895,5.2895,5.2895,5.2895,5.2895,5.2895,5.2895,5.2895,5.2895,5.2895,5.2895,5.3306,5.3708,5.3708,5.4135,5.4346,5.3206,5.2895,5.2895,5.2895,5.2895,5.2895,5.2895,5.2895,5.2719,5.2201,5.2067,5.1891,5.1339,4.9592,4.8265,4.823,4.6596,4.5216,4.4703,4.3092,4.1779,4.1318,3.9658,3.8611,3.863,3.8611,3.8611,3.8611,3.8611,3.8611,3.8611,3.8611,3.8611,3.8611,3.8611,3.8611,3.8611,3.8611,3.8611,3.8611,3.8611,3.8611,3.8611,3.8611,3.8611,3.8611,3.8611,3.8611,3.8611,3.8611,3.8611,3.8611,3.8611,3.8611,3.8611,6.0416,6.0116,5.929,5.7684,5.6457,5.5108,5.3366,5.1935,5.1297,5.2042,5.2,5.2076,5.2594,5.2644,5.2719,5.287,5.2895,5.2895,5.2895,5.2895,5.2895,5.2895,5.2895,5.2895,5.2895,5.2895,5.2895,5.2895,5.2895,5.2895,5.2895,5.2895,5.2895,5.2895,5.2895,5.2895,5.2895,5.2895,5.2895,5.2895,5.2895,5.2895,5.2895,5.2895,5.2895,5.2895,5.2895,5.2895,5.2895,5.2895,5.2895,5.2945,5.3356,5.3457,5.3557,5.3959,5.422,5.4346,5.4346,5.4471,5.4522,5.4195,5.4084,5.3959,5.3557,5.3457,5.3356,5.297,5.2895,5.2845,5.2669,5.1536,5.0122,4.8554,4.753,4.6016,4.3215,4.3251,4.3034,4.1523,4.0878,4.0467,4.0327,3.9512,3.916,3.9473,3.9199,3.8887,3.863,3.8611,3.8611,3.8611,3.8611,3.8611,3.8611,3.8611,3.8611,3.8611,3.8611,3.8611,3.8611,3.8611,3.8611,3.8611,3.8611,3.8611,3.8611,3.8611,3.8611,3.8611,3.8611,3.8611,3.8611,3.8611,3.8611,3.8611,6.1044,6.0775,5.9973,5.8321,5.6991,5.5542,5.3578,5.2133,5.1448,5.1841,5.2026,5.2226,5.2578,5.277,5.2895,5.2895,5.2895,5.2895,5.2895,5.2895,5.2895,5.2895,5.2895,5.2895,5.2895,5.2895,5.2895,5.2895,5.2895,5.2895,5.2895,5.2895,5.2895,5.2895,5.2895,5.2895,5.2895,5.2895,5.2895,5.2895,5.2895,5.2895,5.2895,5.2895,5.2895,5.2895,5.2895,5.2895,5.2895,5.2895,5.302,5.3246,5.3607,5.3858,5.411,5.4496,5.4748,5.4924,5.4924,5.5074,5.5214,5.5214,5.4924,5.4496,5.4135,5.4059,5.3884,5.3356,5.3231,5.3146,5.292,5.1921,5.0481,4.8506,4.7314,4.5544,4.2383,4.2064,4.1653,4.0308,4.0156,4.0078,3.9922,3.9648,3.9512,3.9609,3.9355,3.9023,3.863,3.8611,3.8611,3.8611,3.8611,3.8611,3.8611,3.8611,3.8611,3.8611,3.8611,3.8611,3.8611,3.8611,3.8611,3.8611,3.8611,3.8611,3.8611,3.8611,3.8611,3.8611,3.8611,3.8611,3.8611,3.8611,3.8611,3.8611,6.1283,6.1253,6.0627,5.8899,5.7354,5.56,5.3291,5.2114,5.1247,5.072,5.1548,5.2176,5.2176,5.2628,5.2895,5.2895,5.2895,5.2895,5.2895,5.2895,5.2895,5.2895,5.2895,5.2895,5.2895,5.2895,5.2895,5.2895,5.2895,5.2895,5.2895,5.2895,5.2895,5.2895,5.2895,5.2895,5.2895,5.2895,5.2895,5.2895,5.2895,5.2895,5.2895,5.2895,5.2895,5.2895,5.2895,5.2895,5.2895,5.2895,5.3196,5.3632,5.3683,5.4059,5.4547,5.4647,5.5024,5.539,5.544,5.5842,5.6219,5.6219,5.5465,5.4723,5.4672,5.4672,5.4451,5.3673,5.3478,5.3293,5.2571,5.2298,5.1586,4.9748,4.794,4.6035,4.4096,4.2445,4.1248,4.0625,4.0547,4.043,4.0039,4.0019,3.9805,3.9297,3.9297,3.9141,3.8747,3.8728,3.8728,3.8728,3.8689,3.8669,3.8669,3.863,3.8611,3.8611,3.8611,3.8611,3.8611,3.8611,3.8611,3.8611,3.8611,3.8611,3.8611,3.8611,3.8611,3.8611,3.8611,3.8611,3.8611,3.8611,3.8611,3.8611,6.254,6.2241,6.1397,5.9711,5.8428,5.6831,5.4548,5.3269,5.2528,5.2368,5.2569,5.2719,5.2719,5.282,5.2895,5.2895,5.2895,5.2895,5.2895,5.2895,5.2895,5.2895,5.2895,5.2895,5.2895,5.2895,5.2895,5.2895,5.2895,5.2895,5.2895,5.2895,5.2895,5.2895,5.2895,5.2895,5.2895,5.2895,5.2895,5.2895,5.2895,5.2895,5.2895,5.2895,5.2895,5.2895,5.2895,5.2895,5.2895,5.2895,5.297,5.3146,5.3582,5.3783,5.4059,5.4938,5.529,5.5491,5.5917,5.6118,5.6219,5.6219,5.6043,5.5742,5.5315,5.525,5.4583,5.2357,5.191,5.1247,4.9199,4.7537,4.6249,4.5506,4.5014,4.4058,4.208,4.279,4.2864,4.1229,4.1035,4.0996,4.0937,4.0937,4.0566,3.9805,4.0039,4.0059,3.9629,3.9609,3.9609,3.9609,3.9258,3.9062,3.9062,3.8787,3.8611,3.8611,3.8611,3.8611,3.8611,3.8611,3.8611,3.8611,3.8611,3.8611,3.8611,3.8611,3.8611,3.8611,3.8611,3.8611,3.8611,3.8611,3.8611,3.8611,6.3048,6.2838,6.205,6.0348,5.8907,5.7214,5.4946,5.3628,5.2795,5.2578,5.2719,5.2895,5.2895,5.2895,5.2895,5.2895,5.2895,5.2895,5.2895,5.2895,5.2895,5.2895,5.2895,5.2895,5.2895,5.2895,5.2895,5.2895,5.2895,5.2895,5.2895,5.2895,5.2895,5.2895,5.2895,5.2895,5.2895,5.2895,5.2895,5.2895,5.2895,5.2895,5.2895,5.2895,5.2895,5.2895,5.2895,5.2895,5.2895,5.2895,5.3046,5.3331,5.3607,5.3884,5.427,5.4813,5.5024,5.515,5.5666,5.5817,5.5892,5.6143,5.6219,5.6143,5.5842,5.5792,5.5301,5.3655,5.2499,5.1352,4.9744,4.7626,4.575,4.4605,4.4222,4.3435,4.1463,4.21,4.235,4.1327,4.1211,4.1211,4.1211,4.1211,4.0937,4.0254,4.0391,4.0332,3.9922,3.9902,3.9902,3.9902,3.9453,3.9199,3.9199,3.8789,3.8611,3.8611,3.8611,3.8611,3.8611,3.8611,3.8611,3.8611,3.8611,3.8611,3.8611,3.8611,3.8611,3.8611,3.8611,3.8611,3.8611,3.8611,3.8611,3.8611,6.3108,6.3108,6.2642,6.1198,5.9565,5.7685,5.5505,5.4122,5.307,5.2336,5.2594,5.2895,5.2895,5.2895,5.2895,5.2895,5.2895,5.2895,5.2895,5.2895,5.2895,5.2895,5.2895,5.2895,5.2895,5.2895,5.2895,5.2895,5.2895,5.2895,5.2895,5.2895,5.2895,5.2895,5.2895,5.2895,5.2895,5.2895,5.2895,5.2895,5.2895,5.2895,5.2895,5.2895,5.2895,5.2895,5.2895,5.2895,5.2895,5.2895,5.3206,5.3557,5.3557,5.3909,5.4346,5.4421,5.4446,5.4572,5.5089,5.5239,5.5365,5.5817,5.5993,5.6068,5.6068,5.6143,5.5959,5.5156,5.3655,5.2045,5.076,4.8808,4.6729,4.4579,4.394,4.3119,4.1444,4.1211,4.1211,4.1211,4.1211,4.1211,4.1211,4.1211,4.1035,4.0664,4.0644,4.0488,4.0137,4.0117,4.0117,4.0117,3.9668,3.9434,3.9434,3.9004,3.8787,3.8691,3.8691,3.8689,3.8611,3.8611,3.8611,3.8611,3.8611,3.8611,3.8611,3.8611,3.8611,3.8611,3.8611,3.8611,3.8611,3.8611,3.8611,3.8611,6.3108,6.3108,6.305,6.2788,6.1318,5.9569,5.7803,5.612,5.4515,5.2975,5.2845,5.2895,5.2895,5.2895,5.2895,5.2895,5.2895,5.2895,5.2895,5.2895,5.2895,5.2895,5.2895,5.2895,5.2895,5.2895,5.2895,5.2895,5.2895,5.2895,5.2895,5.2895,5.2895,5.2895,5.2895,5.2895,5.2895,5.2895,5.2895,5.2895,5.2895,5.2895,5.2895,5.2895,5.2895,5.2895,5.2895,5.2895,5.2895,5.2895,5.2945,5.2995,5.2995,5.3046,5.3231,5.3683,5.3808,5.3934,5.4547,5.4723,5.4723,5.4798,5.5175,5.5491,5.5491,5.5867,5.5692,5.3779,5.3193,5.1734,4.7679,4.6613,4.5477,4.2664,4.2151,4.1876,4.1308,4.1211,4.1211,4.1211,4.1211,4.1211,4.1211,4.1211,4.1191,4.1094,4.1132,4.1055,4.1035,4.1035,4.1035,4.1035,4.0566,4.0313,4.0313,3.9922,3.9512,3.9121,3.9121,3.8926,3.8611,3.8611,3.8611,3.8611,3.8611,3.8611,3.8611,3.8611,3.8611,3.8611,3.8611,3.8611,3.8611,3.8611,3.8611,3.8611,6.3108,6.3108,6.3108,6.3108,6.1644,5.9933,5.8257,5.6504,5.4809,5.311,5.2895,5.2895,5.2895,5.2895,5.2895,5.2895,5.2895,5.2895,5.2895,5.2895,5.2895,5.2895,5.2895,5.2895,5.2895,5.2895,5.2895,5.2895,5.2895,5.2895,5.2895,5.2895,5.2895,5.2895,5.2895,5.2895,5.2895,5.2895,5.2895,5.2895,5.2895,5.2895,5.2895,5.2895,5.2895,5.2895,5.2895,5.2895,5.2895,5.2895,5.2895,5.2895,5.2895,5.2895,5.2945,5.3171,5.3246,5.3381,5.3934,5.4084,5.4195,5.4522,5.4773,5.4974,5.4974,5.515,5.5224,5.4918,5.2987,5.0732,4.8684,4.6014,4.3739,4.268,4.1914,4.1465,4.1523,4.1328,4.1211,4.1211,4.1211,4.1211,4.1211,4.1211,4.1211,4.1211,4.1211,4.1211,4.1211,4.1211,4.1211,4.1211,4.0742,4.0489,4.0489,4.0098,3.9785,3.959,3.9316,3.8984,3.8611,3.8611,3.8611,3.8611,3.8611,3.8611,3.8611,3.8611,3.8611,3.8611,3.8611,3.8611,3.8611,3.8611,3.8611,3.8611]}]]